[[{"header":{"parameterUnit":"m.s-1","parameterCategory":1,"la1":30.6,"la2":29.2853,"lo1":-89.7004,"lo2":-87.6739,"dy":0.0162,"dx":0.0183,"nx":112,"ny":82,"refTime":"2023-08-14T12:00:00:Z","depth":0,"parameterNumber":2,"parameterNumberName":"U-component_of_WINDS"},"data":[0.0,0.0,0.0,0.0,0.0,0.0,0.0,0.0,0.0,0.0,0.0,0.0,0.0,0.0,0.0,0.0,0.0,0.0,0.0,0.0,0.0,0.0,0.0,0.0,0.0,0.0,0.0,0.0,0.0,0.0,0.0,0.0,0.0,0.0,0.0,0.0,0.0,0.0,0.0,0.0,0.0,0.0,0.0,0.0,0.0,0.0,0.0,0.0,0.0,0.0,0.0,0.0,0.0,0.0,0.0,0.0,0.0,0.0,0.0,0.0,0.0,0.0,0.0,0.0,0.0,0.0,0.0,0.0,0.0,0.0,0.0,0.0,0.0,0.0,0.0,0.0,0.0,0.0,0.0,0.0,0.0,0.0,0.0,0.0,0.0,0.0,0.0,0.0,0.0,0.0,0.0,0.8739,0.9094,0.923,0.8934,1.0429,1.1427,1.1482,0.0,0.0,0.0,0.0,0.0,0.0,0.0,0.0,0.0,0.0,0.0,0.0,0.0,0.0,0.0,0.0,0.0,0.0,0.0,0.0,0.0,0.0,0.0,0.0,0.0,0.0,0.0,0.0,0.0,0.0,0.0,0.0,0.0,0.0,0.0,0.0,0.0,0.0,0.0,0.0,0.0,0.0,0.0,0.0,0.0,0.0,0.0,0.0,0.0,0.0,0.0,0.0,0.0,0.0,0.0,0.0,0.0,0.0,0.0,0.0,0.0,0.0,0.0,0.0,0.0,0.0,0.0,0.0,0.0,0.0,0.0,0.0,0.0,0.0,0.0,0.0,0.0,0.0,0.0,0.0,0.0,0.0,0.0,0.0,0.0,0.0,0.0,0.0,0.0,0.0,0.0,0.0,0.0,0.0,0.0,0.0,0.0,0.0,0.0,0.0,0.0,0.0,0.0,0.0,0.7645,0.845,0.8613,0.8878,0.9444,1.0089,1.0491,1.0507,0.0,0.0,0.0,0.0,0.0,0.0,0.0,0.0,0.0,0.0,0.0,0.0,0.0,0.0,0.0,0.0,0.0,0.0,0.0,0.0,0.0,0.0,0.0,0.0,0.0,0.0,0.0,0.0,0.0,0.0,0.0,0.0,0.0,0.0,0.0,0.0,0.0,0.0,0.0,0.0,0.0,0.0,0.0,0.0,0.0,0.0,0.0,0.0,0.0,0.0,0.0,0.0,0.0,0.0,0.0,0.0,0.0,0.0,0.0,0.0,0.0,0.0,0.0,0.0,0.0,0.0,0.0,0.0,0.0,0.0,0.0,0.0,0.0,0.0,0.0,0.0,0.0,0.0,0.0,0.0,0.0,0.0,0.0,0.0,0.0,0.0,0.0,0.0,0.0,0.0,0.0,0.0,0.0,0.0,0.0,0.0,0.0,0.0,0.0,0.0,0.0,0.0,0.0,0.7507,0.7224,0.7603,0.7712,0.7778,0.7899,0.867,0.9293,0.9634,1.102,0.0,0.0,0.0,0.0,0.0,0.0,0.0,0.0,0.0,0.0,0.0,0.0,0.0,0.0,0.0,0.0,0.0,0.0,0.0,0.0,0.0,0.0,0.0,0.0,0.0,0.0,0.0,0.0,0.0,0.0,0.0,0.0,0.0,0.0,0.0,0.0,0.0,0.0,0.0,0.0,0.0,0.0,0.0,0.0,0.0,0.0,0.0,0.0,0.0,0.0,0.0,0.0,0.0,0.0,0.0,0.0,0.0,0.0,0.0,0.0,0.0,0.0,0.0,0.0,0.0,0.0,0.0,0.0,0.0,0.0,0.0,0.0,0.0,0.0,0.0,0.0,0.0,0.0,0.0,0.0,0.0,0.0,0.0,0.0,0.0,0.0,0.0,0.0,0.0,0.0,0.0,0.0,0.0,0.0,0.0,0.0,0.0,0.0,0.0,0.0,0.0,0.0,0.6973,0.6969,0.677,0.6852,0.6811,0.6513,0.75,0.8352,0.8907,0.9561,0.0,0.0,0.0,0.0,0.0,0.0,0.0,0.0,0.0,0.0,0.0,0.0,0.0,0.0,0.0,0.0,0.0,0.0,0.0,0.0,0.0,0.0,0.0,0.0,0.0,0.0,0.0,0.0,0.0,0.0,0.0,0.0,0.0,0.0,0.0,0.0,0.0,0.0,0.0,0.0,0.0,0.0,0.0,0.0,0.0,0.0,0.0,0.0,0.0,0.0,0.0,0.0,0.0,0.0,0.0,0.0,0.0,0.0,0.0,0.0,0.0,0.0,0.0,0.0,0.0,0.0,0.0,0.0,0.0,0.0,0.0,0.0,0.0,0.0,0.0,0.0,0.0,0.0,0.0,0.0,0.0,0.0,0.0,0.0,0.0,0.0,0.0,0.0,0.0,0.0,0.0,0.0,0.0,0.0,0.0,0.0,0.0,0.0,0.0,0.0,0.0,0.0,0.6809,0.6682,0.6364,0.6361,0.639,0.6482,0.7332,0.802,0.8427,0.8952,0.0,0.0,0.0,0.0,0.0,0.0,0.0,0.0,0.0,0.0,0.0,0.0,0.0,0.0,0.0,0.0,0.0,0.0,0.0,0.0,0.0,0.0,0.0,0.0,0.0,0.0,0.0,0.0,0.0,0.0,0.0,0.0,0.0,0.0,0.0,0.0,0.0,0.0,0.0,0.0,0.0,0.0,0.0,0.0,0.0,0.0,0.0,0.0,0.0,0.0,0.0,0.0,0.0,0.0,0.0,0.0,0.0,0.0,0.0,0.0,0.0,0.0,0.0,0.0,0.0,0.0,0.0,0.0,0.0,0.0,0.0,0.0,0.0,0.0,0.0,0.0,0.0,0.0,0.0,0.0,0.0,0.0,0.0,0.0,0.0,0.0,0.0,0.0,0.0,0.0,0.0,0.0,0.0,0.0,0.0,0.0,0.0,0.0,0.0,0.0,0.0,0.0,0.6433,0.6306,0.0,0.6138,0.5962,0.6,0.6498,0.7028,0.7498,0.0,0.0,0.0,0.0,0.0,0.0,0.0,0.0,0.0,0.0,0.0,0.0,0.0,0.0,0.0,0.0,0.0,0.0,0.0,0.0,0.0,0.0,0.0,0.0,0.0,0.0,0.0,0.0,0.0,0.0,0.0,0.0,0.0,0.0,0.0,0.0,0.0,0.0,0.0,0.0,0.0,0.0,0.0,0.0,0.0,0.0,0.0,0.0,0.0,0.0,0.0,0.0,0.0,0.0,0.0,0.0,0.0,0.0,0.0,0.0,0.0,0.0,0.0,0.0,0.0,0.0,0.0,0.0,0.0,0.0,0.0,0.0,0.0,0.0,0.0,0.0,0.0,0.0,0.0,0.0,0.0,0.0,0.0,0.0,0.0,0.0,0.0,0.0,0.0,0.0,0.0,0.0,0.0,0.0,0.0,0.0,0.0,0.0,0.0,0.0,0.0,0.0,0.6444,0.6186,0.6065,0.0,0.6035,0.5852,0.5852,0.6021,0.6411,0.7077,0.0,0.0,0.0,0.0,0.0,0.0,0.0,0.0,0.0,0.0,0.0,0.0,0.0,0.0,0.0,0.0,0.0,0.0,0.0,0.0,0.0,0.0,0.0,0.0,0.0,0.0,0.0,0.0,0.0,0.0,0.0,0.0,0.0,0.0,0.0,0.0,0.0,0.0,0.0,0.0,0.0,0.0,0.0,0.0,0.0,0.0,0.0,0.0,0.0,0.0,0.0,0.0,0.0,0.0,0.0,0.0,0.0,0.0,0.0,0.0,0.0,0.0,0.0,0.0,0.0,0.0,0.0,0.0,0.0,0.0,0.0,0.0,0.0,0.0,0.0,0.0,0.0,0.0,0.0,0.0,0.0,0.0,0.0,0.0,0.0,0.0,0.0,0.0,0.0,0.0,0.0,0.0,0.0,0.0,0.0,0.0,0.0,0.0,0.0,0.0,0.0,0.0,0.6179,0.6179,0.6042,0.5745,0.599,0.6196,0.6196,0.6021,0.6326,0.0,0.0,0.0,0.0,0.0,0.0,0.0,0.0,0.0,0.0,0.0,0.0,0.0,0.0,0.0,0.0,0.0,0.0,0.0,0.0,0.0,0.0,0.0,0.0,0.0,0.0,0.0,0.0,0.0,0.0,0.0,0.0,0.0,0.0,0.0,0.0,0.0,0.0,0.0,0.0,0.0,0.0,0.0,0.0,0.0,0.0,0.0,0.0,0.0,0.0,0.0,0.0,0.0,0.0,0.0,0.0,0.0,0.0,0.0,0.0,0.0,0.0,0.0,0.0,0.0,0.0,0.0,0.0,0.0,0.0,0.0,0.0,0.0,0.0,0.0,0.0,0.0,0.0,0.0,0.0,0.0,0.0,0.0,0.0,0.0,0.0,0.0,0.0,0.0,0.0,0.0,0.0,0.0,0.0,0.0,0.0,0.0,0.0,0.0,0.0,0.0,0.0,0.0,0.5545,0.5173,0.5062,0.5387,0.5665,0.5679,0.5314,0.5588,0.589,0.6171,0.0,0.0,0.0,0.0,0.0,0.0,0.0,0.0,0.0,0.0,0.0,0.0,0.0,0.0,0.0,0.0,0.0,0.0,0.0,0.0,0.0,0.0,0.0,0.0,0.0,0.0,0.0,0.0,0.0,0.0,0.0,0.0,0.0,0.0,0.0,0.0,0.0,0.0,0.0,0.0,0.0,0.0,0.0,0.0,0.0,0.0,0.0,0.0,0.0,0.0,0.0,0.0,0.0,0.0,0.0,0.0,0.0,0.0,0.0,0.0,0.0,0.0,0.0,0.0,0.0,0.0,0.0,0.0,0.0,0.0,0.0,0.0,0.0,0.0,0.0,0.0,0.0,0.0,0.0,0.0,0.0,0.0,0.0,0.0,0.0,0.0,0.0,0.0,0.0,0.0,0.0,0.0,0.0,0.0,0.0,0.0,0.0,0.0,0.0,0.0,0.0,0.0,0.5014,0.4657,0.4522,0.4913,0.5194,0.53,0.5059,0.5275,0.5508,0.5767,0.0,0.0,0.0,0.0,0.0,0.0,0.0,0.0,0.0,0.0,0.0,0.0,0.0,0.0,0.0,0.0,0.0,0.0,0.0,0.0,0.0,0.0,0.0,0.0,0.0,0.0,0.0,0.0,0.0,0.0,0.0,0.0,0.0,0.0,0.0,0.0,0.0,0.0,0.0,0.0,0.0,0.0,0.0,0.0,0.0,0.0,0.0,0.0,0.0,0.0,0.0,0.0,0.0,0.0,0.0,0.0,0.0,0.0,0.0,0.0,0.0,0.0,0.0,0.0,0.0,0.0,0.0,0.0,0.0,0.0,0.0,0.0,0.0,0.0,0.0,0.0,0.0,0.0,0.0,0.0,0.0,0.0,0.0,0.0,0.0,0.0,0.0,0.0,0.0,0.0,0.0,0.0,0.0,0.0,0.0,0.0,0.0,0.0,0.0,0.0,0.0,0.0,0.4633,0.448,0.432,0.4308,0.4623,0.4924,0.5115,0.4954,0.5132,0.5711,0.0,0.0,0.0,0.0,0.0,0.0,0.0,0.0,0.0,0.0,0.0,0.0,0.0,0.0,0.0,0.0,0.0,0.0,0.0,0.0,0.0,0.0,0.0,0.0,0.0,0.0,0.0,0.0,0.0,0.0,0.0,0.0,0.0,0.0,0.0,0.0,0.0,0.0,0.0,0.0,0.0,0.0,0.0,0.0,0.0,0.0,0.0,0.0,0.0,0.0,0.0,0.0,0.0,0.0,0.0,0.0,0.0,0.0,0.0,0.0,0.986,0.0,0.0,0.0,0.0,0.0,0.0,0.0,0.0,0.0,0.0,0.0,0.0,0.0,0.0,0.0,0.0,0.0,0.0,0.0,0.0,0.0,0.0,0.0,0.0,0.0,0.0,0.0,0.0,0.0,0.0,0.0,0.0,0.0,0.0,0.0,0.0,0.0,0.0,0.0,0.0,0.0,0.4008,0.3947,0.388,0.3762,0.4231,0.4353,0.4012,0.4318,0.4561,0.4691,0.4918,0.0,0.0,0.0,0.0,0.0,0.0,0.0,0.0,0.0,0.0,0.0,0.0,0.0,0.0,0.0,0.0,0.0,0.0,0.0,0.0,0.0,0.0,0.0,0.0,0.0,0.0,0.0,0.0,0.0,0.0,0.0,0.0,0.0,0.0,0.0,0.0,0.0,0.0,0.0,0.0,0.0,0.0,0.0,0.0,0.0,0.0,0.0,0.0,0.0,0.0,0.0,0.0,0.0,0.0,0.0,0.0,0.0,0.0,0.0,0.0,0.888,0.0,0.0,0.0,0.0,0.0,0.0,0.0,0.0,0.0,0.0,0.0,0.0,0.0,0.0,0.0,0.0,0.0,0.0,0.0,0.0,0.0,0.0,0.0,0.0,0.0,0.0,0.0,0.0,0.0,0.0,0.0,0.0,0.0,0.0,0.0,0.0,0.0,0.0,0.0,0.0,0.4033,0.3883,0.3765,0.369,0.388,0.3924,0.3622,0.3836,0.4005,0.4005,0.4443,0.0,0.0,0.0,0.0,0.0,0.0,0.0,0.0,0.0,0.0,0.0,0.0,0.0,0.0,0.0,0.0,0.0,0.0,0.0,0.0,0.0,0.0,0.0,0.0,0.0,0.0,0.0,0.0,0.0,0.0,0.0,0.0,0.0,0.0,0.0,0.0,0.0,0.0,0.0,0.0,0.0,0.0,0.0,0.0,0.0,0.0,0.0,0.0,0.0,0.0,0.0,0.0,0.0,0.6519,0.646,0.7561,0.758,0.7686,0.7966,0.7752,0.6136,0.3873,0.5993,0.0,0.0,0.0,0.0,0.0,0.0,0.0,0.0,0.0,0.0,0.0,0.0,0.0,0.0,0.0,0.0,0.0,0.0,0.0,0.0,0.0,0.0,0.0,0.0,0.3881,0.5206,0.0,0.0,0.0,0.0,0.0,0.0,0.0,0.0,0.0,0.0,0.0,0.0,0.42,0.4026,0.3849,0.3795,0.3687,0.3605,0.3581,0.3581,0.3581,0.3581,0.4188,0.4705,0.0,0.0,0.0,0.0,0.0,0.0,0.0,0.0,0.0,0.0,0.0,0.0,0.0,0.0,0.0,0.0,0.0,0.0,0.0,0.0,0.0,0.0,0.0,0.0,0.0,0.0,0.0,0.0,0.0,0.0,0.0,0.0,0.6056,0.8413,0.0,0.0,0.0,0.0,0.0,0.0,0.0,0.0,0.0,0.0,0.0,0.0,0.0,0.533,0.5286,0.544,0.5303,0.4939,0.35,0.2901,0.3079,0.3084,0.3771,0.5053,0.4998,0.0,0.2445,0.2817,0.0,0.0,0.0,0.0,0.0,0.0,0.0,0.0,0.0,0.0,0.0,0.0,0.0,0.0,0.0,0.0,0.0,0.0,0.0,0.0,0.0,0.0,0.0616,0.1908,0.1514,0.1177,0.0,0.2519,0.2512,0.251,0.3583,0.0,0.0,0.0,0.0,0.0,0.0,0.0,0.421,0.416,0.4036,0.3819,0.3775,0.3714,0.3592,0.3581,0.3581,0.3581,0.3711,0.3968,0.4478,0.4052,0.0,0.0,0.0,0.0,0.0,0.0,0.0,0.0,0.0,0.0,0.0,0.0,0.0,0.0,0.0,0.0,0.0,0.0,0.0,0.0,0.0,0.0,0.0,0.0,0.0,0.0,0.0,0.0,0.0,0.5003,0.4252,0.3865,0.3817,0.4158,0.0,0.0,0.0,0.0,0.0,0.0,0.0,0.0,0.0,0.2741,0.198,0.1157,0.0183,0.0189,0.0192,0.0192,-0.045,-0.0702,-0.0565,-0.0565,-0.0185,0.0481,0.0481,0.006,-0.0467,0.0563,0.1715,0.303,0.0,0.0,0.0,0.0,0.4831,0.4271,0.512,0.4984,0.0,0.2187,0.0,0.0,0.0,0.0,0.0,0.0,0.0,0.0,0.0,0.0,0.2244,0.1234,0.0449,0.0168,0.0842,0.2301,0.2974,0.0,0.2852,0.432,0.3741,0.0,0.0,0.0,0.0,0.445,0.4385,0.4364,0.4261,0.4063,0.3972,0.386,0.371,0.3697,0.3663,0.3585,0.3581,0.3711,0.3921,0.3707,0.3742,0.0,0.0,0.0,0.0,0.0,0.0,0.0,0.0,0.0,0.0,0.0,0.0,0.0,0.0,0.0,0.0,0.0,0.0,0.0,0.0,0.0,0.0,0.0,0.0,0.0,0.0,0.0,0.0,0.3005,0.2052,0.0223,0.0724,0.167,0.0,0.0,0.0,0.0,0.0,0.0,-0.0715,-0.1312,-0.1634,-0.1689,-0.1866,-0.2551,-0.3878,-0.3922,-0.391,-0.391,-0.391,-0.3799,-0.3586,-0.3493,-0.3363,-0.34,-0.3372,-0.3411,-0.3252,-0.1331,-0.0563,-0.0448,0.0665,0.1767,0.2713,0.2713,0.1997,0.1226,0.2404,0.28,0.2406,0.0167,0.0167,0.106,0.1059,0.0,0.0,0.0,0.0,0.1898,0.3033,0.3373,0.2807,0.0561,-0.0,-0.0,-0.0,0.174,0.2923,0.0,0.2352,0.3246,0.2843,0.0,0.0,0.0,0.0,0.3913,0.3913,0.4277,0.4467,0.4312,0.4148,0.4016,0.3863,0.3816,0.3744,0.3639,0.3598,0.3581,0.3581,0.3629,0.3649,0.3636,0.0,0.0,0.0,0.0,0.0,0.0,0.0,0.0,0.0,0.0,0.0,0.0,0.0,0.0,0.0,0.0,0.0,0.0,0.0,0.0,0.0,0.0,0.0,0.0,0.0,0.0,0.0,0.0,0.0,-0.0167,-0.0778,0.0,0.0,0.0,0.0,-0.0,-0.0179,-0.08,-0.1967,-0.4223,-0.5546,-0.5505,-0.5521,-0.5745,-0.6106,-0.6122,-0.6129,-0.6129,-0.6129,-0.6126,-0.6111,-0.5524,-0.5238,-0.5296,-0.5284,-0.5273,-0.5071,-0.297,-0.2104,-0.2096,-0.203,-0.1949,-0.1893,-0.1893,-0.1895,-0.195,-0.1895,-0.184,-0.1896,-0.2063,-0.2063,-0.2007,-0.2007,-0.2007,0.0,0.0,0.0112,0.0112,0.0224,0.0224,0.0168,0.0056,-0.0,-0.0,-0.0,0.0112,0.1007,0.0,0.2079,0.0672,0.2009,0.0,0.4504,0.4484,0.3239,0.2341,0.2341,0.3569,0.4474,0.4499,0.4302,0.4123,0.4022,0.3877,0.3788,0.3782,0.3653,0.3581,0.3581,0.3765,0.3836,0.3782,0.4254,0.0,0.0,0.0,0.0,0.0,0.0,0.0,0.0,0.0,0.0,0.0,0.0,0.0,0.0,0.0,0.0,0.0,0.0,0.0,0.0,0.0,0.0,0.0,0.0,0.0,0.0,0.0,0.0,-0.352,-0.2893,0.0,-0.4173,-0.3943,-0.3771,-0.3776,-0.3675,-0.3873,-0.454,-0.5302,-0.5716,-0.5797,-0.5882,-0.5961,-0.611,-0.6268,-0.6273,-0.6273,-0.6273,-0.6218,-0.6117,-0.5908,-0.5678,-0.5518,-0.5531,-0.5491,-0.5335,-0.4409,-0.3892,-0.3693,-0.3688,-0.3697,-0.3697,-0.3697,-0.3697,-0.3697,-0.3697,-0.3697,-0.3697,-0.3697,-0.3697,-0.3697,-0.3697,-0.3697,-0.3583,-0.3021,-0.2178,-0.1172,-0.0224,-0.0,-0.0,-0.0,-0.0,-0.0,-0.0,-0.0,0.0336,0.1403,0.2303,0.2467,0.1004,0.2858,0.4511,0.4504,0.4045,0.297,0.106,0.1282,0.2334,0.4306,0.446,0.4391,0.4351,0.4182,0.4003,0.3857,0.371,0.3637,0.3774,0.3843,0.3946,0.4079,0.399,0.4031,0.0,0.0,0.0,0.0,0.0,0.0,0.0,0.0,0.0,0.0,0.0,0.0,0.0,0.0,0.0,0.0,0.0,0.0,0.0,0.0,0.0,0.0,0.0,0.0,0.0,0.0,-0.6327,-0.6354,-0.5672,-0.567,-0.6953,-0.698,-0.695,-0.6899,-0.6506,-0.6436,-0.6695,-0.6136,-0.5881,-0.6023,-0.6081,-0.6108,-0.6108,-0.621,-0.6338,-0.6338,-0.6338,-0.6433,-0.6625,-0.657,-0.6572,-0.678,-0.6591,-0.6471,-0.641,-0.6101,-0.5781,-0.5405,-0.4787,-0.4531,-0.4484,-0.4484,-0.4484,-0.4484,-0.4484,-0.4484,-0.4484,-0.4484,-0.4484,-0.4484,-0.4484,-0.4484,-0.4487,-0.449,-0.3749,-0.2734,-0.1786,-0.1116,-0.0614,-0.0112,-0.0,-0.0,-0.0,-0.0,-0.0,-0.0,0.1625,0.2355,0.0335,0.1679,0.3317,0.4337,0.3655,0.2242,0.0279,-0.0,0.0781,0.274,0.3411,0.3938,0.4462,0.4354,0.401,0.3343,0.3559,0.3636,0.3524,0.3827,0.4063,0.4114,0.3561,0.3646,0.4316,0.0,0.0,0.0,0.0,0.0,0.0,0.0,0.0,0.0,0.0,0.0,0.0,0.0,0.0,0.0,0.0,0.0,0.0,0.0,0.0,0.0,0.0,0.0,-0.7741,-0.7833,-0.8154,-0.8327,-0.8938,-0.9592,-1.0202,-0.9854,-0.9414,-0.9184,-0.8477,-0.8099,-0.8291,-0.7125,-0.6492,-0.6635,-0.6503,-0.643,-0.643,-0.6426,-0.6419,-0.6419,-0.6416,-0.6872,-0.7851,-0.7663,-0.8084,-0.9067,-0.8626,-0.8425,-0.8379,-0.7869,-0.7558,-0.7156,-0.5444,-0.4652,-0.4515,-0.4515,-0.4515,-0.4519,-0.4519,-0.4519,-0.4519,-0.4519,-0.4519,-0.4519,-0.4519,-0.4519,-0.4519,-0.4477,-0.448,-0.448,-0.4494,-0.3413,-0.1896,-0.0502,-0.0056,-0.0,-0.0,-0.0,-0.0,-0.0,-0.0,-0.0,-0.0,-0.0,0.1008,0.3928,0.1961,0.0,-0.0,-0.0,0.0056,0.0112,0.1395,0.285,0.4383,0.4473,0.3791,0.2344,0.3197,0.3486,0.277,0.3715,0.4143,0.4036,0.3174,0.3337,0.4508,0.0,0.0,0.0,0.0,0.0,0.0,0.0,0.0,0.0,0.0,0.0,0.0,0.0,0.0,0.0,0.0,0.0,0.0,0.0,0.0,0.0,0.0,-1.052,-0.8474,-0.9053,-0.9611,-0.9332,-0.9732,-1.0046,-1.0236,-1.0094,-0.9974,-0.9912,-0.9706,-0.9642,-0.9621,-0.9332,-0.9162,-0.9219,-0.9167,-0.9138,-0.9138,-0.8913,-0.876,-0.8755,-0.8535,-0.8618,-0.8917,-0.8854,-0.8808,-0.871,-0.8589,-0.8351,-0.8108,-0.7981,-0.7792,-0.7487,-0.6769,-0.594,-0.5218,-0.5218,-0.4893,-0.4519,-0.4519,-0.4519,-0.4519,-0.4519,-0.4519,-0.4519,-0.4519,-0.4519,-0.4519,-0.4522,-0.4522,-0.4525,-0.448,-0.4203,-0.3758,-0.3368,-0.1568,-0.0,-0.0,-0.0,-0.0,-0.0,-0.0,-0.0,-0.0,-0.0,0.028,0.112,0.2417,0.0,0.028,-0.0,0.084,0.303,0.2629,0.285,0.4383,0.3498,0.3147,0.3828,0.2082,0.196,0.3938,0.4249,0.4406,0.4341,0.3995,0.3958,0.0,0.0,0.0,0.0,0.0,0.0,0.0,0.0,0.0,0.0,0.0,0.0,0.0,0.0,0.0,0.0,0.0,0.0,0.0,0.0,0.0,0.0,-1.3728,-1.3323,-1.2395,-1.1807,-1.1483,-1.1694,-1.1782,-1.1817,-1.1817,-1.1817,-1.1776,-1.1665,-1.1254,-1.1062,-1.1062,-1.0553,-1.0254,-1.0254,-1.0248,-1.0201,-1.0201,-0.9894,-0.9703,-0.9698,-0.9402,-0.9523,-0.9895,-0.9895,-1.004,-1.0116,-0.9909,-0.9645,-0.9423,-0.9215,-0.8908,0.0,0.0,0.0,0.0,0.0,-0.5714,-0.5336,-0.5003,-0.4893,-0.4897,-0.457,-0.4519,-0.4519,-0.4519,-0.4519,-0.4519,-0.4519,-0.4519,-0.4519,-0.4525,-0.4477,-0.4314,-0.3702,-0.2183,-0.0727,-0.0112,-0.0,-0.0,-0.0,-0.0,0.0,-0.0,-0.0,-0.0,-0.0,0.1514,0.2417,0.1964,0.0784,0.0673,0.2413,0.2919,0.3538,0.4396,0.2517,0.0,0.0,0.0,0.213,0.2577,0.3816,0.0,0.0,0.0,0.4328,0.4347,0.0,0.0,0.0,0.4519,0.4385,0.0,0.0,0.0,0.0,0.0,0.0,0.0,0.0,0.0,0.0,0.0,0.0,0.0,0.0,0.0,0.0,-1.6119,-1.6867,-1.7925,-1.5393,-1.3773,-1.4695,-1.4394,-1.4148,-1.4182,-1.4155,-1.4028,-1.3761,-1.3024,-1.2534,-1.2504,0.0,0.0,0.0,0.0,-1.0616,-1.0642,-1.0306,-1.0174,-1.0168,-0.9864,-1.0187,-1.1055,-1.1055,-1.1477,-1.2225,-1.1703,-1.1436,-1.1336,-1.0822,-1.0434,-0.9971,-0.8404,-0.7568,-0.7177,-0.6809,-0.6608,-0.6534,-0.5873,0.0,0.0,-0.4952,-0.468,-0.4625,-0.4625,-0.457,-0.4522,-0.4539,-0.4532,-0.4525,-0.456,-0.4543,-0.4135,-0.2815,-0.2244,-0.162,-0.0281,-0.0,-0.0,-0.0,-0.0,-0.0,-0.0,-0.0,-0.0,-0.0,-0.0,0.0953,0.3658,0.1682,-0.0,-0.0,0.0,0.0,0.4472,0.2073,0.1512,0.384,0.4005,0.2805,0.0112,0.2571,0.4098,0.4209,0.4258,0.4311,0.448,0.4525,0.4522,0.4519,0.4519,0.4385,0.0,0.0,0.0,0.0,0.0,0.0,0.0,0.0,0.0,0.0,0.0,0.0,0.0,0.0,0.0,-1.8247,-1.8478,-1.886,-1.9947,-1.8625,-1.7233,-1.6468,-1.52,-1.4529,-1.477,-1.4576,-1.4409,-1.4355,-1.4136,-1.3972,-1.3743,-1.351,-1.3496,-1.3719,-1.3457,-1.3425,-1.3649,-1.3144,-1.2813,-1.2806,0.0,0.0,-1.2424,-1.2424,-1.2249,-1.1944,-1.183,-1.1516,-1.1069,-1.0955,-1.0735,-1.0358,-0.8969,-0.8259,-0.7937,-0.7268,-0.6854,-0.6588,-0.6421,-0.6367,-0.6367,-0.6258,-0.5764,-0.5328,-0.5328,-0.4948,0.0,-0.4613,-0.4558,-0.4573,-0.4765,-0.4653,-0.4482,-0.4305,-0.232,-0.0337,-0.0058,-0.0,-0.0,-0.0,-0.0,-0.0,-0.0,-0.0,-0.0,-0.0,-0.0,0.0224,0.0784,0.0336,-0.0,-0.0,0.2693,0.4518,0.4518,0.3943,0.2863,0.101,0.0897,0.0616,-0.0,0.0559,0.1452,0.2623,0.2623,0.3241,0.4494,0.449,0.4484,0.4477,0.4522,0.4385,0.0,0.0,0.0,0.0,0.0,0.0,0.0,0.0,0.0,0.0,0.0,-1.6592,0.0,0.0,-1.9072,-2.0381,-2.0713,-2.0987,-2.1795,-2.0754,-1.9474,-1.8321,-1.7175,-1.6665,-1.6996,-1.6725,-1.6462,-1.6305,-1.644,-1.613,-1.5142,-1.5355,-1.5266,-1.4736,-1.4456,-1.4369,-1.4522,-1.3935,-1.3559,-1.3641,-1.3347,-1.3126,-1.2973,-1.3341,-1.3322,-1.3084,-1.3253,-1.3126,-1.2796,-1.2021,-1.161,-1.1362,-1.0089,-0.9389,-0.9053,-0.8375,-0.8029,-0.7839,-0.7333,-0.7128,-0.7074,-0.6696,-0.6091,-0.5504,-0.56,-0.5133,-0.4609,-0.4762,-0.4752,-0.4724,-0.4877,-0.4809,-0.4721,-0.468,-0.3521,-0.2174,-0.1316,-0.0509,-0.0,-0.0,-0.0,-0.0,-0.0,-0.0,-0.0,-0.0,-0.0,-0.0,-0.0,-0.0,-0.0,-0.0,0.1344,0.2244,0.2244,0.2244,0.1625,0.0112,-0.0,-0.0,-0.0,-0.0,0.0335,0.1062,0.1116,0.1451,0.2235,0.2965,0.3355,0.335,0.4141,0.4436,0.0,0.0,0.0,0.0,0.0,0.0,0.0,0.0,-1.6387,-1.7187,-1.7705,-1.832,-1.9346,-1.9951,-2.0674,-2.1816,-2.2353,-2.2754,-2.3096,-2.2217,-2.1302,-2.0314,-1.9272,-1.8837,-1.9123,-1.8912,-1.8571,-1.8203,-1.8529,-1.8099,-1.6637,-1.696,-1.6712,-1.5831,-1.5441,-1.5315,-1.5371,-1.4825,-1.451,-1.4454,-1.4209,-1.4027,-1.3894,-1.4409,-1.4591,-1.4492,-1.4652,-1.4678,-1.4637,-1.327,-1.263,-1.2412,-1.1326,-1.0683,-1.0214,-0.9568,-0.9316,-0.9167,-0.8275,-0.8015,-0.7907,-0.7307,-0.6559,-0.5968,-0.6269,-0.569,-0.4958,-0.515,-0.506,-0.4931,-0.4989,-0.4962,-0.4844,-0.4727,-0.471,-0.4387,-0.2974,-0.1755,-0.0845,-0.0564,-0.0452,-0.0339,-0.0057,-0.0,-0.0,-0.0,-0.0,-0.0,-0.0,-0.0,-0.0,-0.0,-0.0,-0.0,-0.0,-0.0,-0.0,-0.0,-0.0,-0.0,-0.0,-0.0,-0.0,-0.0,-0.0,-0.0,-0.0,0.1173,0.1898,0.2233,0.3758,0.4487,-1.2167,-1.3118,-1.418,-1.4941,-1.5527,-1.6416,0.0,0.0,-1.8994,-1.9463,-1.9902,-2.0254,-2.04,-2.1103,-2.1836,-2.2353,-2.2793,-2.3086,-2.3135,-2.296,-2.2862,-2.2687,-2.0571,-1.9132,-1.9397,-1.9198,-1.9062,-1.9021,-1.9054,-1.8825,-1.8374,-1.839,-1.8477,-1.8628,-1.8287,-1.8246,-1.8571,-1.8259,-1.7823,-1.7513,-1.7473,-1.7115,-1.6464,-1.6106,-1.5847,-1.5577,-1.5002,-1.4678,-1.4653,-1.4255,-1.3571,-1.2825,-1.2355,-1.1697,-1.0828,-1.0234,-0.9853,-0.9593,-0.918,-0.902,-0.902,-0.8909,-0.8239,-0.7535,-0.8126,-0.7065,-0.5727,-0.6133,-0.5566,-0.4979,-0.5243,-0.5118,-0.4982,-0.523,-0.4927,-0.45,-0.4489,-0.4424,-0.3987,-0.2627,-0.2158,-0.1516,-0.0234,-0.0,-0.0,-0.0,-0.0,-0.0,-0.0,-0.0,-0.0,-0.0,-0.0,-0.0,-0.0,-0.0,-0.0,-0.0,-0.0,-0.0,-0.0,-0.0,-0.0,-0.0,-0.0,-0.0,-0.0,0.0168,0.0896,0.2238,0.3766,0.4501,-1.3262,-1.4321,0.0,0.0,-1.6875,-1.8174,-1.9082,-1.9668,-2.0225,-2.0918,-2.1406,-2.1777,-2.2021,-2.2363,-2.2676,0.0,-2.3027,-2.3135,-2.3135,-2.3135,-2.3047,-2.2803,-2.1729,-2.1154,-2.1231,-2.1103,-2.0998,-2.0769,-2.1172,-2.0983,-1.9878,-2.0062,-1.9909,-1.9355,-1.9007,-1.8979,-1.9137,-1.8771,-1.8512,-1.8362,-1.807,-1.7805,-1.7554,-1.7227,-1.7049,-1.7021,-1.6762,-1.6615,-1.6578,-1.569,-1.5123,-1.4672,-1.351,-1.2595,-1.1689,-1.0513,-1.004,-0.9893,-0.9599,-0.9499,-0.9499,-0.9499,-0.8896,-0.8297,-0.8592,-0.7838,-0.6866,-0.6659,-0.6297,-0.5834,-0.5526,-0.527,-0.5186,-0.522,-0.5021,-0.4822,-0.4867,-0.4823,-0.4663,-0.4171,-0.4054,-0.3813,-0.3021,-0.2148,-0.1527,-0.1326,-0.0567,-0.0,-0.0,-0.0,-0.0,-0.0,-0.0,-0.0,-0.0,-0.0,-0.0,-0.0,-0.0,-0.0,-0.0,-0.0,-0.0,-0.0,-0.0,-0.0,-0.0,-0.0,0.0336,0.0952,0.1569,0.2354,-1.425,0.0,0.0,-1.6836,-1.8398,-1.9883,-2.0127,-2.0752,-2.1494,-2.2256,-2.2559,-2.2744,-2.293,-2.2969,-2.2969,-2.2969,-2.2969,-2.3008,-2.3125,-2.3037,-2.2852,-2.2549,-2.2305,-2.2158,-2.2158,-2.2373,-2.2383,-2.208,-2.2734,-2.2553,-2.1429,-2.1599,-2.1391,-2.0494,-2.0323,-2.0175,-2.0175,-1.9887,-1.9641,-1.9536,-1.9068,-1.8833,-1.8684,-1.8348,-1.814,-1.8174,-1.8057,-1.8076,-1.8086,-1.7071,-1.6545,-1.6292,-1.4837,-1.3769,-1.2868,-1.1718,-1.0801,-1.02,-0.9907,-0.986,-0.9927,-0.9927,-0.9504,-0.9081,-0.9352,-0.872,-0.7913,-0.7505,-0.7242,-0.685,-0.6009,-0.5752,-0.5668,-0.5336,-0.5192,-0.5114,-0.5053,-0.4951,-0.4927,-0.5054,-0.5188,-0.5261,-0.5071,-0.4092,-0.3297,-0.3104,-0.2101,-0.1029,-0.0112,-0.0,-0.0,-0.0,-0.0,-0.0,-0.0,-0.0,-0.0,-0.0,-0.0,-0.0,-0.0,-0.0,-0.0,-0.0,-0.0,-0.0,-0.0,-0.0,-0.0,-0.0,-0.0,0.056,0.0,0.0,-1.7109,-1.8779,-2.0195,-2.1396,-2.2227,-2.2754,-2.3184,-2.3633,-2.3408,-2.2998,-2.2607,-2.2529,-2.2529,-2.2529,-2.2529,-2.2676,-2.3086,-2.2783,-2.2529,-2.251,-2.1777,-2.1279,0.0,-2.2021,-2.251,-2.249,-2.2891,-2.3047,-2.3028,-2.3038,-2.3047,-2.296,-2.295,-2.294,-2.294,-2.2609,-2.2201,-2.1792,-2.1364,-2.0926,-2.0469,-1.9603,-1.9043,-1.8523,-1.8184,-1.8242,-1.8584,-1.8095,-1.766,-1.7063,-1.631,-1.5458,-1.4604,-1.4305,-1.2634,-1.0571,-1.0207,-1.0294,-1.0598,-1.0598,-1.0334,-1.0146,-1.0724,-0.9907,-0.8848,-0.9128,-0.8613,-0.7767,-0.6915,-0.6654,-0.6502,-0.574,-0.5348,-0.5169,-0.5318,-0.523,-0.5061,-0.5125,-0.5125,-0.5195,-0.5339,-0.5158,-0.5067,-0.5261,-0.5006,-0.3612,-0.0394,-0.0,-0.0,-0.0,-0.0,-0.0,-0.0,-0.0,-0.0,-0.0,-0.0,-0.0,-0.0,-0.0,-0.0,-0.0,-0.0,-0.0,-0.0,-0.0,-0.0,-0.0,-0.0,-0.0,0.0,0.0,-1.9551,-2.0723,-2.1982,-2.3076,-2.3643,-2.3672,-2.3525,-2.3389,-2.2793,-2.209,-2.1357,-2.1465,-2.167,-2.167,-2.2139,-2.2656,-2.3076,-2.3018,-2.2725,-2.2168,-2.1846,0.0,0.0,0.0,0.0,-2.207,-2.248,-2.2842,-2.3125,-2.3135,-2.3135,-2.3135,-2.3135,-2.3135,-2.3135,-2.2725,-2.2441,-2.2295,-2.1582,-2.085,-2.0127,-1.9834,-1.9316,-1.8643,-1.8789,-1.8769,-1.8582,-1.8799,-1.8547,-1.8071,-1.7579,-1.6807,-1.6032,-1.5366,-1.4402,-1.3298,-1.2327,-1.157,-1.1136,-1.1136,-1.0935,-1.0735,-1.0935,-1.0522,-0.9913,-0.9436,-0.9196,-0.8915,-0.8041,-0.7943,-0.7862,-0.697,-0.661,-0.6405,-0.578,-0.5538,-0.5437,-0.5437,-0.5352,-0.5349,-0.5356,-0.5319,-0.5321,-0.536,-0.4309,-0.3055,-0.1911,-0.0715,-0.0,-0.0,-0.0,-0.0,-0.0,-0.0,-0.0,-0.0,-0.0,-0.0,-0.0,-0.0,-0.0,-0.0,-0.0,-0.0,-0.0,-0.0,-0.0,-0.0,-0.0,-0.0,-1.8418,-1.9844,-2.1123,-2.2461,-2.3408,-2.4082,-2.4355,-2.4092,-2.3584,-2.2842,-2.2379,-2.167,-2.0532,-2.0422,-2.0536,-2.0844,-2.1155,-2.167,-2.2568,-2.2685,-2.2549,-2.2158,-2.1982,-2.1777,0.0,0.0,0.0,-2.208,-2.25,-2.2852,-2.3125,-2.3135,-2.3135,-2.3135,-2.3135,-2.3135,-2.3135,-2.2725,-2.2363,-2.2051,-2.1338,-2.0693,-2.0137,-1.999,-1.9531,-1.8877,-1.9004,-1.8896,-1.8592,-1.8936,-1.8984,-1.8848,-1.8574,-1.8177,-1.761,-1.7058,-1.6464,-1.573,-1.4017,-1.2848,-1.2061,-1.2061,-1.1724,-1.1309,-1.1309,-1.1102,-1.0803,-1.0208,-1.0201,-1.0129,-0.923,-0.914,-0.906,-0.8151,-0.7615,-0.7158,-0.6512,-0.6051,-0.5664,-0.5664,-0.5586,-0.5501,-0.545,-0.5466,-0.5397,-0.5373,-0.4435,-0.3653,-0.3645,-0.2647,-0.171,-0.1016,-0.0973,-0.0977,-0.0958,-0.0975,-0.0678,-0.0062,-0.0,-0.0,-0.0,-0.0,-0.0,-0.0,-0.0,-0.0,-0.0,-0.0,-0.0,-0.0,-0.0,-0.0,-2.0088,-2.1025,-2.1885,-2.3916,-2.4434,-2.4443,-2.4394,-2.4023,-2.334,-2.208,-2.203,-2.1649,0.0,0.0,-1.9391,-2.0234,-1.9825,-1.999,-2.1709,-2.1953,-2.209,0.0,0.0,0.0,0.0,0.0,0.0,-2.2595,0.0,-2.3115,-2.3135,-2.3135,-2.3135,-2.3135,-2.3135,-2.3135,-2.3135,-2.2725,-2.209,-2.126,-2.081,-2.0596,-2.0586,-2.0146,-1.9717,-1.9297,-1.8906,-1.8721,-1.863,-1.8721,-1.8965,-1.9316,-1.9316,-1.9316,-1.9316,-1.9297,-1.8775,-1.7669,-1.5368,-1.4006,-1.3374,-1.3359,-1.265,-1.187,-1.187,-1.1663,-1.1423,-1.1423,-1.1436,-1.1237,-1.0402,-1.02,-1.0061,-0.9363,-0.8308,-0.7431,-0.747,-0.6641,-0.5813,-0.5813,-0.58,-0.5749,-0.5613,-0.5464,-0.5428,-0.5428,-0.5428,-0.5401,-0.5395,-0.542,-0.4723,-0.3022,-0.2839,-0.2841,-0.2837,-0.2839,-0.21,-0.0371,-0.0185,-0.0124,-0.0124,-0.0124,-0.0122,-0.0,-0.0,-0.0,-0.0,-0.0,-0.0,-0.0,-0.0,-0.0,-2.1514,-2.2793,-2.374,-2.4277,-2.4658,-2.4736,-2.4092,-2.3135,-2.209,-2.1103,-2.036,-1.9619,0.0,0.0,0.0,-2.0234,-2.0607,0.0,-2.2627,-2.2822,0.0,-2.2539,0.0,-2.2695,-2.2383,-2.2637,0.0,0.0,-2.3278,-2.2812,-2.3125,-2.3135,-2.3135,-2.3135,-2.3135,-2.3135,-2.3135,-2.2725,-2.2246,-2.1719,-2.1269,-2.1064,-2.1045,-2.0605,-2.0166,-1.9766,-1.998,-1.9893,-1.9609,-1.9941,-1.9951,-1.9756,-1.9756,-1.9756,-1.9717,-1.9404,-1.9335,-1.9266,-1.8375,-1.6309,-1.4094,-1.37,-1.2821,-1.187,-1.187,-1.1663,-1.1423,-1.1423,-1.1583,-1.1757,-1.1468,-1.1625,-1.1503,-1.0598,-0.9532,-0.8618,-0.7849,-0.6821,-0.5973,-0.5973,-0.5793,-0.5633,-0.5596,-0.5464,-0.5428,-0.5428,-0.5428,-0.5404,-0.5401,-0.5401,-0.5226,-0.4785,-0.4681,-0.4705,-0.4731,-0.4687,-0.4546,-0.408,-0.2756,-0.2012,-0.2033,-0.2031,-0.1377,-0.0,-0.0,-0.0,-0.0,-0.0,-0.0,-0.0,-0.0,-0.0,-2.2867,-2.4217,-2.5328,-2.4884,-2.4746,-2.4545,-2.365,-2.2579,-2.1369,-2.0032,-1.9592,0.0,0.0,0.0,0.0,0.0,0.0,0.0,-2.207,-2.3033,-2.3493,0.0,-2.3943,0.0,-2.3163,-2.371,-2.4099,0.0,-2.374,-2.3795,-2.4542,-2.4553,-2.4553,-2.4553,-2.4553,-2.4553,-2.4553,-2.419,-2.3835,-2.3585,-2.2918,-2.2371,-2.1898,-2.1433,-2.0761,-1.9922,0.0,-2.0039,-1.9668,-2.0098,-2.0137,-1.9932,-2.0127,-2.0195,-2.0195,-2.0156,-2.0166,-2.0166,-1.9932,-1.8254,-1.6121,-1.5684,-1.4387,-1.2976,-1.2976,-1.2398,-1.181,-1.181,-1.1931,-1.2058,-1.2058,-1.2178,-1.215,-1.162,-1.072,-0.9669,-0.8689,-0.7546,-0.6655,-0.6204,-0.5942,-0.5762,-0.5694,-0.5559,-0.544,-0.5439,-0.5428,-0.5428,-0.5428,-0.5432,-0.5404,-0.5387,-0.5394,-0.5411,-0.5394,-0.5397,-0.5382,-0.5386,-0.4431,-0.3862,-0.3868,-0.3866,-0.3425,-0.2386,-0.1566,-0.1104,-0.094,-0.0294,-0.0,-0.0,-0.0,-0.0,-2.4147,-2.5432,-2.6599,-2.5357,-2.4619,-2.3969,-2.3043,-2.1943,-2.0586,-1.8935,0.0,-1.9118,-1.7981,0.0,-1.782,-1.9555,0.0,-1.9272,-2.1481,-2.3298,-2.4294,-2.4029,-2.5626,-2.5988,-2.4267,-2.5077,-2.5222,-2.3921,-2.4744,-2.5535,-2.6224,-2.6389,-2.6483,-2.6483,-2.6483,-2.6483,-2.6483,-2.6127,-2.588,-2.5801,-2.4936,-2.4007,-2.3041,-2.2539,-2.158,-2.0357,-2.0216,0.0,-1.9703,-1.9987,-2.0049,-2.0049,-2.0547,-2.0703,-2.0713,-2.1152,-2.1035,-2.0654,-2.0654,-1.9811,-1.8678,-1.8079,-1.6412,-1.4674,-1.4524,-1.3582,-1.2553,-1.2446,-1.2365,-1.2351,-1.2311,-1.2305,-1.2305,-1.2305,-1.1539,-1.0565,-0.9669,-0.8613,-0.748,-0.649,-0.6135,-0.5986,-0.5854,-0.5711,-0.5566,-0.5413,-0.5459,-0.5452,-0.5428,-0.5428,-0.5428,-0.5428,-0.5428,-0.5428,-0.5428,-0.5428,-0.5432,-0.5376,-0.5376,-0.5379,-0.5389,-0.5389,-0.5397,-0.5396,-0.3878,-0.2888,-0.2613,-0.1306,-0.0525,-0.0281,-0.035,-0.0236,-2.5571,-2.6305,-2.6526,-2.4888,-2.3955,-2.3179,-2.2124,-2.0349,0.0,0.0,0.0,-1.7509,-1.7298,-1.7847,0.0,-2.0865,0.0,0.0,0.0,0.0,-2.5272,0.0,0.0,0.0,0.0,0.0,0.0,0.0,0.0,-2.686,-2.521,-2.5975,-2.6483,-2.6483,-2.6483,-2.6483,-2.6483,-2.6393,-2.6136,-2.563,-2.5553,-2.4971,-2.3962,-2.3938,-2.3552,-2.2805,-2.1987,0.0,-2.1463,-2.1124,-2.0791,-2.0537,-2.1338,-2.1435,-2.1172,-2.1611,-2.1494,-2.1123,-2.1123,-2.0742,-2.0005,-1.8395,-1.7032,-1.591,-1.5011,-1.4597,-1.4117,-1.3037,-1.2741,-1.2612,-1.2365,-1.2305,-1.2305,-1.2305,-1.1539,-1.0783,-1.0559,-0.9064,-0.748,-0.649,-0.6135,-0.602,-0.5993,-0.5864,-0.5715,-0.5572,-0.5549,-0.5504,-0.5446,-0.5428,-0.5428,-0.5428,-0.5428,-0.5428,-0.5428,-0.5428,-0.5428,-0.5432,-0.5432,-0.5432,-0.5432,-0.5432,-0.5425,-0.5408,-0.5071,-0.4922,-0.4832,-0.4316,-0.3263,-0.1803,-0.2104,-0.1443,-2.6867,-2.7668,-2.7878,-2.5875,-2.4201,-2.2715,-2.1481,0.0,0.0,0.0,0.0,-1.7262,-1.7262,0.0,0.0,0.0,0.0,0.0,0.0,0.0,0.0,0.0,0.0,0.0,0.0,0.0,0.0,0.0,0.0,-2.8704,-2.7487,-2.7879,-2.8211,-2.8211,-2.8211,-2.8211,-2.8211,-2.8211,-2.808,-2.7818,-2.7544,-2.6907,-2.5866,-2.5321,-2.4642,-2.3895,-2.3446,0.0,-2.236,-2.2367,-2.198,-2.1299,-2.1719,-2.1758,-2.1621,-2.2051,-2.1797,-2.126,-2.1494,-2.1133,-2.0498,-1.9612,-1.8473,-1.7286,-1.6207,-1.5265,-1.4357,-1.3161,-1.2632,-1.2485,-1.2338,-1.2305,-1.2305,-1.2305,-1.1539,-1.0783,-1.0783,-0.921,-0.7629,-0.7176,-0.6579,-0.6125,-0.6044,-0.5969,-0.5871,-0.5722,-0.5698,-0.5674,-0.5599,-0.5528,-0.545,-0.5435,-0.5428,-0.5428,-0.5428,-0.5428,-0.5428,-0.5428,-0.5428,-0.5428,-0.5428,-0.5428,-0.5432,-0.5369,-0.5369,-0.5363,-0.5216,-0.5219,-0.4662,-0.3735,-0.3791,-0.3501,-2.7736,-2.8715,-2.911,-2.7009,-2.4698,-2.2649,-2.1336,-1.9144,0.0,0.0,-1.7287,-1.72,-1.72,0.0,0.0,0.0,0.0,0.0,0.0,0.0,0.0,0.0,0.0,0.0,0.0,0.0,0.0,0.0,0.0,0.0,-2.9952,-2.9854,-2.9792,-2.9792,-2.9792,-2.9792,-2.9792,-2.9792,-2.9729,-2.9603,-2.9277,-2.8585,-2.7617,-2.6793,-2.5941,-2.509,-2.4865,0.0,0.0,-2.361,-2.3134,-2.2215,-2.2163,-2.21,-2.206,-2.2393,-2.2031,-2.1416,-2.166,-2.123,-2.0566,-2.0566,-1.986,-1.872,-1.7369,-1.6036,-1.4752,-1.3258,-1.2679,-1.2465,-1.2331,-1.2305,-1.2305,-1.2305,-1.1694,-1.1087,-1.0864,-0.9625,-0.8453,-0.8223,-0.741,-0.6691,-0.6529,-0.6273,-0.6061,-0.5878,-0.585,-0.5837,-0.5803,-0.5705,-0.5579,-0.5426,-0.5449,-0.5428,-0.5428,-0.5428,-0.5428,-0.5428,-0.5428,-0.5428,-0.5428,-0.5428,-0.5428,-0.5428,-0.5428,-0.5301,-0.5179,-0.5321,-0.5315,-0.5109,-0.5008,-0.5125,-2.7545,-2.8692,-2.9197,-2.7453,-2.5158,-2.3095,-2.2313,0.0,0.0,-1.7418,-1.6961,-1.6597,-1.6597,-1.7468,0.0,0.0,0.0,0.0,0.0,0.0,0.0,0.0,0.0,0.0,0.0,0.0,0.0,0.0,0.0,0.0,-3.0545,-3.0068,-2.9792,-2.9792,-2.9792,-2.9792,-2.9792,-2.9792,-2.9528,-2.9013,-2.949,-2.9101,-2.8038,-2.8437,-2.8263,-2.7717,-2.6767,0.0,0.0,-2.4723,-2.3801,-2.3346,-2.3037,-2.2793,-2.2461,-2.25,-2.2217,-2.1777,-2.1416,-2.0977,-2.0566,-2.0566,-2.0537,-2.0022,-1.7929,-1.7162,-1.6493,-1.3856,-1.3146,-1.2999,-1.2445,-1.2305,-1.2305,-1.2305,-1.2224,-1.1922,-1.1013,-1.0831,-1.0612,-0.9673,-0.8795,-0.8133,-0.8036,-0.7141,-0.6335,-0.6051,-0.601,-0.5959,-0.582,-0.5789,-0.5728,-0.5586,-0.5443,-0.5428,-0.5428,-0.5428,-0.5428,-0.5428,-0.5428,-0.5428,-0.5428,-0.5428,-0.5428,-0.5428,-0.5428,-0.5422,-0.5342,-0.5408,-0.5329,-0.5118,-0.527,-0.5274,-2.7888,-2.9089,-2.9363,-2.8046,-2.5582,-2.3129,-2.1678,0.0,0.0,-1.694,-1.6685,-1.6522,-1.6522,-1.7438,-1.8342,0.0,0.0,0.0,0.0,0.0,0.0,0.0,0.0,0.0,0.0,0.0,0.0,0.0,0.0,0.0,-3.062,-3.0093,-2.9792,-2.9792,-2.9792,-2.9792,-2.9792,-2.9792,-2.9679,-2.9453,-2.9679,-2.9553,-2.9114,-2.8988,-2.88,-2.8525,-2.8188,0.0,0.0,-2.6679,-2.5628,-2.4252,-2.3854,-2.3223,-2.248,-2.2227,-2.1865,-2.1475,-2.1289,-2.0937,-2.0566,-2.0566,-2.0566,-2.0187,-1.7777,-1.7075,-1.6452,-1.3705,-1.2933,-1.2872,-1.2632,-1.2705,-1.2846,-1.2846,-1.2846,-1.2769,-1.2293,-1.1829,-1.1344,-1.0948,-0.9565,-0.8376,-0.8307,-0.7327,-0.643,-0.6315,-0.6224,-0.6146,-0.6084,-0.5996,-0.5918,-0.5861,-0.564,-0.546,-0.5435,-0.5428,-0.5428,-0.5428,-0.5428,-0.5428,-0.5428,-0.5428,-0.5428,-0.5428,-0.5428,-0.5428,-0.5428,-0.5428,-0.5328,-0.527,-0.5332,-0.5332,-2.7008,-2.8373,-2.8837,-2.7855,-2.556,-2.3013,0.0,0.0,-1.707,-1.6623,-1.6522,-1.6522,-1.6522,-1.73,-1.8016,0.0,0.0,-1.9798,0.0,0.0,0.0,0.0,0.0,0.0,0.0,0.0,0.0,0.0,0.0,0.0,-3.0382,-3.0005,-2.9792,-2.9792,-2.9792,-2.9792,-2.9792,-2.9792,-2.9792,-2.9792,-2.9792,-2.9792,-2.9779,-2.9365,-2.9189,-2.9189,-2.9189,0.0,0.0,-2.8112,-2.7023,-2.5251,-2.446,-2.3472,-2.2441,-2.1894,-2.1504,-2.1221,-2.1084,-2.083,-2.0566,-2.0566,-2.0566,-2.0139,-1.7854,-1.7086,-1.6499,-1.3761,-1.2953,-1.2866,-1.2849,-1.2979,-1.3213,-1.3213,-1.3213,-1.3213,-1.3213,-1.2708,-1.2271,-1.2271,-1.0838,-0.9537,-0.948,-0.8217,-0.7152,-0.7104,-0.6651,-0.6322,-0.6322,-0.619,-0.6081,-0.6034,-0.5844,-0.564,-0.5447,-0.543,-0.541,-0.5432,-0.5428,-0.5428,-0.5428,-0.5428,-0.5428,-0.5428,-0.5428,-0.5428,-0.5428,-0.5428,-0.5428,-0.5428,-0.5428,-0.5428,-2.4288,-2.6063,-2.718,-2.6628,-2.4808,-2.2652,0.0,0.0,-1.7225,-1.6635,-1.6522,-1.6522,-1.6522,-1.6999,-1.7564,-1.8116,-1.8668,0.0,0.0,0.0,0.0,0.0,0.0,0.0,0.0,0.0,0.0,0.0,0.0,0.0,-2.9829,-2.9792,-2.9792,-2.9792,-2.9792,-2.9792,-2.9792,-2.9792,-2.9792,-2.9792,-2.9792,-2.9792,-2.9792,-2.9779,-2.9779,0.0,0.0,0.0,0.0,-2.8597,-2.7441,-2.6345,-2.4791,-2.3472,-2.2402,-2.1553,-2.124,-2.1172,-2.0723,-2.0566,-2.0566,-2.0566,-2.0566,-2.0246,-1.8405,-1.7631,-1.6774,-1.4274,-1.3427,-1.3133,-1.2903,-1.2979,-1.3213,-1.3213,-1.3213,-1.3213,-1.3213,-1.3434,-1.3559,-1.3559,-1.2835,-1.224,-1.2082,-1.0198,-0.8619,-0.8427,-0.7281,-0.6471,-0.6471,-0.6346,-0.62,-0.6047,-0.6027,-0.5905,-0.5613,-0.5589,-0.5521,-0.5435,-0.5428,-0.5428,-0.5428,-0.5428,-0.5428,-0.5428,-0.5428,-0.5428,-0.5428,-0.5428,-0.5428,-0.5428,-0.5428,-0.5428,-2.2176,-2.3477,-2.4318,-2.3766,-2.2535,-2.1104,-1.9836,-1.8417,-1.7212,-1.6635,-1.6522,-1.6522,-1.6522,-1.6986,-1.7689,-1.8618,-1.9208,0.0,0.0,0.0,0.0,0.0,0.0,0.0,0.0,0.0,0.0,0.0,0.0,0.0,-2.9804,-2.9792,-2.9792,-2.9792,-2.9792,-2.9792,-2.9792,-2.9792,-2.9792,-2.9792,-2.9792,-2.9792,-2.9792,-2.9792,-2.9792,0.0,0.0,0.0,0.0,-2.8944,-2.8053,-2.6837,-2.496,-2.3634,-2.2482,-2.1214,-2.0781,-2.0752,-2.0615,-2.0566,-2.0566,-2.0566,-2.0566,-2.0294,-1.865,-1.7752,-1.6774,-1.4281,-1.3581,-1.3487,-1.3387,-1.3581,-1.3808,-1.3808,-1.3808,-1.3808,-1.3808,-1.3881,-1.3948,-1.3948,-1.3056,-1.2304,-1.2222,-1.0879,-0.9834,-0.9761,-0.8677,-0.7789,-0.7676,-0.6983,-0.6349,-0.6203,-0.6186,-0.6064,-0.5762,-0.5735,-0.5715,-0.5667,-0.5572,-0.5518,-0.5518,-0.5416,-0.5428,-0.5428,-0.5428,-0.5428,-0.5428,-0.5428,-0.5428,-0.5428,-0.5428,-0.5428,0.0,-2.1368,-2.2071,-2.1506,-2.0702,0.0,0.0,-1.7702,-1.6948,-1.6597,-1.6522,-1.6522,-1.6522,-1.6986,-1.7677,-1.8581,-1.9158,0.0,0.0,0.0,0.0,0.0,0.0,0.0,0.0,0.0,0.0,0.0,0.0,0.0,-2.9792,-2.9792,-2.9792,-2.9792,-2.9792,-2.9792,-2.9792,-2.9792,-2.9792,-2.9792,-2.9792,-2.9792,-2.9792,-2.9792,-2.9792,0.0,0.0,0.0,0.0,-2.9164,-2.8282,-2.7127,-2.5093,-2.3646,-2.2522,-2.1093,-2.0566,-2.0566,-2.0566,-2.0566,-2.0566,-2.0566,-2.0342,-1.9792,-1.8047,-1.6896,-1.5854,-1.3999,-1.3561,-1.3559,-1.3559,-1.3868,-1.4088,-1.4088,-1.4088,-1.4088,-1.4088,-1.4088,-1.4088,-1.4088,-1.347,-1.2942,-1.2942,-1.1945,-1.1158,-1.1158,-0.9628,-0.847,-0.8359,-0.7262,-0.6437,-0.6349,-0.6291,-0.6183,-0.5989,-0.5922,-0.5864,-0.5803,-0.5718,-0.5671,-0.5671,-0.5528,-0.5471,-0.5528,-0.5483,-0.5456,-0.5447,-0.5456,-0.5428,-0.5428,-0.5428,-0.5428,0.0,0.0,0.0,0.0,0.0,0.0,0.0,-1.6911,0.0,-1.6522,-1.6522,-1.6522,-1.6572,-1.7024,-1.7589,-1.8216,0.0,0.0,0.0,0.0,0.0,0.0,0.0,0.0,0.0,0.0,0.0,0.0,0.0,0.0,-2.9729,-2.9767,-2.9754,-2.9679,-2.9716,-2.9729,-2.9729,-2.9729,-2.9729,-2.9729,-2.9729,-2.9729,-2.9729,-2.9691,-2.9679,0.0,0.0,0.0,0.0,-2.9051,-2.8172,-2.7097,-2.5025,-2.3667,-2.2548,-2.1161,-2.0566,-2.0566,-2.0566,-2.0566,-2.0566,-2.0566,-1.9971,-1.8864,-1.6824,-1.5473,-1.4499,-1.3543,-1.3447,-1.3674,-1.3674,-1.3881,-1.4088,-1.4088,-1.4088,-1.4088,-1.4088,-1.4088,-1.4088,-1.4088,-1.4088,-1.4088,-1.4088,-1.3203,-1.2413,-1.2413,-1.0434,-0.8958,-0.8945,-0.7644,-0.6722,-0.6711,-0.6577,-0.649,-0.6416,-0.6204,-0.5986,-0.5844,-0.5823,-0.5817,-0.5817,-0.5681,-0.5737,-0.5868,-0.5668,-0.5525,-0.5596,-0.5457,-0.5456,-0.5449,-0.5435,-0.5428,-1.6999,0.0,-1.7451,-1.7325,-1.72,-1.7036,0.0,-1.6609,-1.6522,-1.6522,0.0,0.0,-1.7099,-1.7287,0.0,0.0,0.0,0.0,0.0,0.0,0.0,0.0,0.0,0.0,0.0,0.0,0.0,0.0,0.0,-2.9603,-2.9151,-2.9553,-2.9402,-2.8524,-2.8913,-2.9139,-2.9139,-2.9139,-2.9139,-2.9139,-2.9139,-2.9139,-2.9114,-2.8699,-2.8499,0.0,0.0,0.0,-2.8461,-2.7896,-2.7513,-2.7065,-2.4595,-2.3535,-2.3088,-2.1272,-2.0566,-2.0566,-2.0566,-2.0566,-2.0566,-2.0566,-1.9756,-1.8471,-1.6813,-1.5992,-1.5381,-1.3943,-1.3754,-1.3981,-1.3981,-1.4035,-1.4088,-1.4088,-1.4088,-1.4088,-1.4088,-1.4088,-1.4088,-1.4088,-1.4088,-1.4088,-1.4088,-1.3822,-1.3646,-1.3646,-1.2372,-1.1404,-1.1311,-1.0034,-0.9082,-0.8932,-0.8735,-0.8313,-0.748,-0.6681,-0.6193,-0.6156,-0.604,-0.5976,-0.5976,-0.583,-0.6118,-0.6928,-0.6917,-0.6441,-0.5644,-0.5681,-0.5661,-0.5655,-0.55,-0.5428,-1.6522,-1.6522,-1.6522,-1.6522,-1.6522,-1.6522,-1.6522,0.0,0.0,0.0,0.0,0.0,0.0,0.0,0.0,0.0,0.0,0.0,0.0,0.0,0.0,0.0,0.0,0.0,0.0,0.0,0.0,0.0,0.0,-2.9151,-2.8586,-2.885,-2.8737,-2.8122,-2.8147,-2.8411,-2.8925,-2.8674,-2.8812,-2.9315,-2.88,-2.8687,-2.8913,-2.836,-2.8109,0.0,0.0,0.0,-2.8059,-2.7507,-2.7281,-2.7076,-2.4522,-2.3514,-2.3294,-2.1308,-2.0566,-2.0566,-2.0566,-2.0566,-2.0498,-2.0107,-1.9502,-1.8639,-1.7175,-1.6396,-1.5666,-1.394,-1.3661,-1.3915,-1.4048,-1.4088,-1.4088,-1.4088,-1.4088,-1.4088,-1.4088,-1.4088,-1.4088,-1.4088,-1.4088,-1.4088,-1.4088,-1.4088,-1.4088,-1.4088,-1.3033,-1.2275,-1.223,-1.0887,-0.9893,-0.9782,-0.9488,-0.9069,-0.8542,-0.8012,-0.7249,-0.6338,-0.6183,-0.6135,-0.6135,-0.5966,-0.6565,-0.7986,-0.8079,-0.7651,-0.6781,-0.707,-0.6718,-0.5868,-0.6117,-0.604,-1.6522,-1.6522,-1.6522,-1.6522,-1.6522,-1.6522,-1.6522,0.0,0.0,0.0,0.0,0.0,0.0,0.0,0.0,0.0,0.0,0.0,0.0,0.0,0.0,0.0,0.0,0.0,0.0,0.0,0.0,0.0,0.0,-2.8561,-2.8009,-2.8059,-2.8034,-2.7858,-2.7482,-2.7733,-2.8662,-2.821,-2.8461,-2.9402,-2.8436,-2.8222,-2.8662,-2.8109,-2.7858,-2.7858,0.0,0.0,-2.7821,-2.7356,-2.7155,-2.6951,-2.4487,-2.3514,-2.3294,-2.1308,-2.0566,-2.0566,-2.0566,-2.0518,-2.0352,-1.9697,-1.9394,-1.901,-1.7588,-1.6679,-1.5705,-1.3815,-1.3487,-1.3768,-1.4021,-1.4088,-1.4088,-1.4088,-1.4088,-1.4088,-1.4088,-1.4088,-1.4088,-1.4088,-1.4088,-1.4088,-1.4088,-1.4088,-1.4088,-1.4088,-1.3203,-1.2589,-1.2589,-1.1327,-1.0481,-1.0481,-1.0073,-0.9803,-0.9575,-0.9544,-0.8765,-0.6872,-0.6795,-0.6721,-0.6567,-0.6543,-0.7269,-0.9004,-0.9274,-0.9046,-0.8325,-0.8709,-0.8145,-0.6663,-0.7207,-0.7085,-1.6522,-1.6522,-1.6522,-1.6522,-1.6522,-1.6522,-1.6522,0.0,0.0,0.0,0.0,0.0,0.0,0.0,0.0,0.0,0.0,0.0,0.0,0.0,0.0,0.0,0.0,0.0,0.0,0.0,0.0,0.0,0.0,-2.7996,-2.7444,-2.7846,-2.767,-2.6741,-2.708,-2.7369,-2.7532,-2.7444,-2.7494,-2.767,-2.7494,-2.7457,-2.7519,-2.6967,-2.6716,-2.6716,0.0,-2.6716,-2.6703,-2.6697,-2.6647,-2.6427,-2.436,-2.3514,-2.3294,-2.1308,-2.0566,-2.0566,-2.0566,-2.0322,-2.0049,-2.0293,-1.9883,-1.9033,-1.7388,-1.6796,-1.6142,-1.4121,-1.3794,-1.4028,-1.4075,-1.4088,-1.4088,-1.4088,-1.4088,-1.4088,-1.4088,-1.4088,-1.4088,-1.4088,-1.4088,-1.4088,-1.4088,-1.4088,-1.4088,-1.4088,-1.3913,-1.3822,-1.3822,-1.3361,-1.3072,-1.3072,-1.2557,-1.1903,-1.0975,-1.0691,-1.004,-0.8917,-0.8841,-0.8466,-0.7629,-0.8348,-0.9215,-1.0085,-1.0416,-1.0347,-0.9974,-0.9425,-0.935,-0.9595,-0.8595,-0.836,-1.6522,-1.6522,-1.6522,-1.6522,-1.6522,-1.6522,-1.6522,0.0,0.0,0.0,0.0,0.0,0.0,0.0,0.0,0.0,0.0,0.0,0.0,0.0,0.0,0.0,0.0,0.0,0.0,0.0,0.0,0.0,0.0,0.0,-2.6866,-2.708,-2.6841,-2.6013,-2.6239,-2.6239,-2.5963,-2.6239,-2.6829,-2.772,-2.7118,-2.6992,-2.7268,-2.6716,-2.6533,-2.6533,0.0,-2.6533,-2.6533,-2.6533,-2.6533,-2.6314,-2.4325,-2.3514,-2.3294,-2.1308,-2.0566,-2.0566,-2.0566,-2.0439,-2.0254,-2.0225,-1.9951,-1.9351,-1.8059,-1.7242,-1.642,-1.5109,-1.4462,-1.4088,-1.4088,-1.4088,-1.4088,-1.4088,-1.4088,-1.4088,-1.4088,-1.4088,-1.4088,-1.4088,-1.4088,-1.4088,-1.4088,-1.4088,-1.4088,-1.4088,-1.4088,-1.4088,-1.4088,-1.3828,-1.3559,-1.3559,-1.3253,-1.2771,-1.2139,-1.1923,-1.1175,-0.9382,-0.9296,-0.8917,-0.8075,-0.9362,-1.0496,-1.1323,-1.1545,-1.1545,-1.1403,-1.1099,-1.0795,-1.0571,-0.9959,-0.9513,-1.6522,-1.6522,-1.6522,-1.6522,0.0,-1.6559,-1.6685,0.0,0.0,0.0,0.0,0.0,0.0,0.0,0.0,0.0,0.0,0.0,0.0,0.0,0.0,0.0,0.0,0.0,0.0,0.0,0.0,0.0,0.0,0.0,-2.6101,-2.6076,-2.5875,-2.5435,-2.541,-2.5222,-2.482,-2.5222,-2.6126,-2.7507,-2.6804,-2.6747,-2.7067,-2.6515,-2.6264,-2.6251,-2.6138,-2.6151,-2.6264,-2.6264,-2.6339,-2.6314,-2.4325,-2.322,-2.2638,-2.1155,-2.0566,-2.0566,-2.0566,-2.0566,-2.0508,-2.0176,-2.0068,-1.9831,-1.8497,-1.7465,-1.6644,-1.5636,-1.4734,-1.4088,-1.4088,-1.4088,-1.4088,-1.4088,-1.4088,-1.4088,-1.4088,-1.4088,-1.4088,-1.4088,-1.4088,-1.4088,-1.4088,-1.4088,-1.4088,-1.4088,-1.4088,-1.4088,-1.4088,-1.3888,-1.3748,-1.3748,-1.3487,-1.316,-1.2856,-1.2761,-1.1929,-1.0137,-0.9744,-0.9437,-0.8903,-1.0104,-1.1162,-1.1922,-1.215,-1.2305,-1.2305,-1.2305,-1.1922,-1.1162,-1.1162,-1.0714,-1.6522,-1.6522,-1.6522,-1.6522,-1.6522,0.0,-1.72,-1.7714,0.0,-1.8745,0.0,0.0,0.0,0.0,0.0,0.0,0.0,0.0,0.0,0.0,0.0,0.0,0.0,0.0,0.0,0.0,0.0,0.0,0.0,0.0,-2.4971,-2.4946,-2.4921,-2.4883,-2.487,-2.4858,-2.482,-2.4858,-2.5184,-2.5787,-2.6239,-2.6546,-2.6571,-2.5925,-2.5649,-2.5636,-2.5146,-2.5209,-2.5649,-2.5649,-2.5975,-2.6314,-2.4325,-2.2414,-2.0789,-2.0634,-2.0566,-2.0566,-2.0566,-2.0566,-2.0557,-2.0527,-2.0518,-2.011,-1.8026,-1.7301,-1.6822,-1.481,-1.4166,-1.4088,-1.4088,-1.4088,-1.4088,-1.4088,-1.4088,-1.4088,-1.4088,-1.4088,-1.4088,-1.4088,-1.4088,-1.4088,-1.4088,-1.4088,-1.4088,-1.4088,-1.4088,-1.4088,-1.4088,-1.4068,-1.4055,-1.4055,-1.3788,-1.338,-1.2876,-1.2492,-1.2251,-1.2077,-1.1242,-1.0634,-1.0634,-1.0708,-1.0858,-1.0938,-1.1848,-1.2305,-1.2305,-1.2305,-1.2224,-1.2224,-1.2224,-1.215,-1.6522,-1.6522,-1.6522,-1.6522,-1.6522,0.0,0.0,-1.8078,-1.8869,-1.9397,0.0,0.0,0.0,0.0,0.0,0.0,0.0,0.0,0.0,0.0,0.0,0.0,0.0,0.0,0.0,0.0,0.0,0.0,0.0,0.0,-2.4845,-2.482,-2.4669,-2.4318,-2.4305,-2.3966,-2.3263,-2.3954,-2.423,-2.4079,-2.5008,-2.5435,-2.5435,-2.5222,-2.5109,-2.5109,-2.4908,-2.5109,-2.5573,-2.5247,-2.5649,-2.6314,-2.4325,-2.2339,-2.0566,-2.0566,-2.0566,-2.0566,-2.0566,-2.0566,-2.0566,-2.0566,-2.0566,-2.0157,-1.798,-1.7342,-1.6854,-1.4741,-1.4088,-1.4088,-1.4088,-1.4088,-1.4088,-1.4088,-1.4088,-1.4088,-1.4088,-1.4088,-1.4088,-1.4088,-1.4088,-1.4088,-1.4088,-1.4088,-1.4088,-1.4088,-1.4088,-1.4088,-1.4088,-1.4088,-1.4088,-1.4088,-1.3661,-1.328,-1.3053,-1.2585,-1.2305,-1.2305,-1.1922,-1.1694,-1.1694,-1.1694,-1.1694,-1.1694,-1.2077,-1.2305,-1.2305,-1.2305,-1.2305,-1.2305,-1.2305,-1.2305,-1.6522,-1.6522,-1.6522,-1.6522,0.0,0.0,-1.7727,-1.8756,-1.9748,-2.0451,0.0,0.0,0.0,0.0,0.0,0.0,0.0,0.0,0.0,0.0,0.0,0.0,0.0,0.0,0.0,0.0,0.0,0.0,0.0,0.0,0.0,-2.4293,-2.4042,-2.3489,-2.3464,-2.3012,-2.2071,-2.2811,-2.31,-2.2887,-2.3653,-2.4305,-2.4808,-2.4644,-2.4556,-2.4556,-2.4368,-2.4695,-2.5322,-2.4971,-2.5016,-2.5257,-2.3879,-2.2126,-2.0361,-2.0361,-2.0449,-2.0566,-2.0566,-2.0566,-2.0566,-2.0566,-2.0566,-2.0157,-1.798,-1.7342,-1.6854,-1.4741,-1.4088,-1.4088,-1.4088,-1.4088,-1.4108,-1.4202,-1.4222,-1.4222,-1.4222,-1.4222,-1.4195,-1.4108,-1.4088,-1.4088,-1.4088,-1.4088,-1.4088,-1.4088,-1.4088,-1.4088,-1.4088,-1.4088,-1.4088,-1.4088,-1.3647,-1.3313,-1.322,-1.2739,-1.2405,-1.2311,-1.2305,-1.2305,-1.2305,-1.2305,-1.2305,-1.2305,-1.2305,-1.2305,-1.2305,-1.2305,-1.2305,-1.2305,-1.2305,-1.2305,-1.6522,-1.6522,-1.6522,0.0,0.0,0.0,-1.8781,-1.9874,-2.1033,-2.2096,0.0,0.0,0.0,0.0,0.0,0.0,0.0,0.0,0.0,0.0,0.0,0.0,0.0,0.0,0.0,0.0,0.0,0.0,0.0,0.0,0.0,-2.3065,-2.2874,-2.2334,-2.2309,-2.2033,-2.1493,-2.1493,-2.1769,-2.2297,-2.2309,-2.3188,-2.4795,-2.4243,-2.3991,-2.3954,-2.3389,-2.3716,-2.4808,-2.482,-2.4025,-2.2857,-2.2868,-2.1647,-1.9912,-1.9912,-2.0195,-2.0566,-2.0566,-2.0566,-2.0557,-2.0566,-2.0566,-2.0157,-1.798,-1.7342,-1.6854,-1.4741,-1.4088,-1.4088,-1.4088,-1.4088,-1.4162,-1.4449,-1.4516,-1.4516,-1.4516,-1.4516,-1.4429,-1.4142,-1.4088,-1.4088,-1.4095,-1.4088,-1.4088,-1.4088,-1.4088,-1.4088,-1.4088,-1.4088,-1.4088,-1.4088,-1.3821,-1.3527,-1.324,-1.2926,-1.2625,-1.2325,-1.2305,-1.2305,-1.2305,-1.2305,-1.2305,-1.2305,-1.2305,-1.2305,-1.2305,-1.2305,-1.2305,-1.2305,-1.2305,-1.2305,-1.6522,-1.6522,0.0,0.0,0.0,0.0,0.0,-1.9874,0.0,0.0,0.0,0.0,0.0,0.0,0.0,0.0,0.0,0.0,0.0,0.0,0.0,0.0,0.0,0.0,0.0,0.0,0.0,0.0,0.0,0.0,0.0,-2.2397,-2.2083,-2.2297,-2.1933,-2.1468,-2.097,-2.1681,-2.1757,-2.1167,-2.2334,-2.309,-2.3566,-2.3464,-2.3389,-2.3389,-2.3153,-2.3552,-2.4268,-2.4657,-2.358,-2.171,-2.2125,-2.1278,-1.9912,-1.9912,-2.0195,-2.0566,-2.0566,-2.0361,-2.0156,-2.0469,-2.0361,-1.9765,-1.7903,-1.7342,-1.6854,-1.4741,-1.4088,-1.4088,-1.4088,-1.4242,-1.4362,-1.4242,-1.4215,-1.4215,-1.4215,-1.4215,-1.4195,-1.4108,-1.4088,-1.4175,-1.4449,-1.4269,-1.4155,-1.4362,-1.4215,-1.4088,-1.4088,-1.4088,-1.4088,-1.4088,-1.3821,-1.3607,-1.352,-1.3247,-1.2939,-1.2632,-1.2612,-1.2518,-1.2311,-1.2305,-1.2305,-1.2305,-1.2305,-1.2305,-1.2305,-1.2305,-1.2305,-1.2305,-1.2305,-1.2305,-1.6522,0.0,0.0,0.0,0.0,0.0,0.0,0.0,0.0,0.0,0.0,0.0,0.0,0.0,0.0,0.0,0.0,0.0,0.0,0.0,0.0,0.0,0.0,0.0,0.0,0.0,0.0,0.0,0.0,0.0,0.0,-2.1845,-2.1543,-2.1656,-2.133,-2.0891,-2.0326,-2.0978,-2.1091,-2.0731,-2.1681,-2.2272,-2.2498,-2.2937,-2.3078,-2.3078,-2.3376,-2.3678,-2.4042,-2.4184,-2.3126,-2.1274,-2.1226,-2.0488,-1.9404,-1.9404,-1.9785,-2.0303,-2.0303,-2.0137,-1.999,-2.042,-2.0156,-1.9437,-1.8118,-1.733,-1.6532,-1.4914,-1.4234,-1.3941,-1.4055,-1.4215,-1.4335,-1.4275,-1.4349,-1.4402,-1.4289,-1.4262,-1.4222,-1.4108,-1.4088,-1.4162,-1.4396,-1.4242,-1.4142,-1.4322,-1.4202,-1.4088,-1.4088,-1.4088,-1.4088,-1.4088,-1.3928,-1.3774,-1.3572,-1.3487,-1.3253,-1.2953,-1.2933,-1.2852,-1.2672,-1.2432,-1.2305,-1.2305,-1.2305,-1.2305,-1.2305,-1.2305,-1.2305,-1.2305,-1.2305,-1.2305,-1.6522,0.0,0.0,0.0,0.0,0.0,0.0,0.0,0.0,0.0,0.0,0.0,0.0,0.0,0.0,0.0,0.0,0.0,0.0,0.0,0.0,0.0,0.0,0.0,0.0,0.0,0.0,0.0,0.0,0.0,0.0,-2.1393,-2.1129,-2.0731,-2.0668,-2.0338,-1.9811,-1.9849,-2.0125,-2.0643,-2.0743,-2.0978,-2.1443,-2.256,-2.3027,-2.3103,-2.369,-2.3916,-2.3891,-2.3506,-2.2535,-2.1251,-2.0393,-1.941,-1.8562,-1.8562,-1.915,-1.9853,-1.9853,-1.9834,-1.9873,-2.0303,-1.9922,-1.9136,-1.8428,-1.7294,-1.6106,-1.5249,-1.4332,-1.3707,-1.3975,-1.4088,-1.4188,-1.4422,-1.4689,-1.481,-1.4543,-1.4482,-1.4402,-1.4135,-1.4088,-1.4095,-1.4122,-1.4108,-1.4088,-1.4088,-1.4088,-1.4088,-1.4088,-1.4088,-1.4088,-1.4088,-1.4088,-1.3975,-1.3707,-1.3687,-1.3561,-1.3267,-1.3253,-1.324,-1.3213,-1.2652,-1.2345,-1.2345,-1.2318,-1.2305,-1.2305,-1.2305,-1.2305,-1.2305,-1.2305,-1.2305,0.0,-1.6522,0.0,0.0,0.0,0.0,0.0,0.0,0.0,0.0,0.0,0.0,0.0,0.0,0.0,0.0,0.0,0.0,0.0,0.0,0.0,0.0,0.0,0.0,0.0,0.0,0.0,0.0,0.0,0.0,-2.1468,-2.0639,-2.0326,-2.0706,-2.0225,-1.9924,-1.9798,-2.025,-2.0313,0.0,-2.0891,-2.1142,-2.0932,-2.1983,-2.2723,-2.3078,-2.3263,-2.3265,-2.3265,-2.2551,-2.1684,-2.0683,-1.9843,-1.9134,-1.8562,-1.8562,-1.8975,-1.9424,-1.9424,-1.9199,-1.8984,-1.9424,-1.9434,-1.9151,-1.8108,-1.7353,-1.6452,-1.5108,-1.4163,-1.3661,-1.3721,-1.4082,-1.4389,-1.4222,-1.4229,-1.4255,-1.4195,-1.4182,-1.4162,-1.4095,-1.4088,-1.4162,-1.4389,-1.4242,-1.4088,-1.4088,-1.4088,-1.4088,-1.4088,-1.4088,-1.4088,-1.4088,-1.4088,-1.4062,-1.4001,-1.3988,-1.3868,-1.3567,-1.3547,-1.3447,-1.322,-1.2852,-1.2728,-1.2728,-1.2418,-1.2305,-1.2305,-1.2305,-1.2305,-1.2305,-1.2305,-1.2305,0.0,0.0,0.0,0.0,0.0,0.0,0.0,0.0,0.0,0.0,0.0,0.0,0.0,0.0,0.0,0.0,0.0,0.0,0.0,0.0,0.0,0.0,0.0,0.0,0.0,0.0,0.0,0.0,0.0,-1.9886,-1.9911,-1.9849,-1.9823,-1.9874,-1.9823,-1.9798,-1.9798,-2.01,-2.01,-1.9811,-2.0401,-2.0677,-2.0743,-2.1531,-2.2221,-2.2736,-2.2736,-2.2887,-2.3017,-2.1803,-2.0974,-2.0462,-1.9177,-1.8534,-1.833,-1.833,-1.8603,-1.8975,-1.8975,-1.8828,-1.8711,-1.915,-1.9014,-1.8498,-1.7734,-1.6824,-1.5847,-1.4721,-1.3853,-1.328,-1.3567,-1.3868,-1.4095,-1.4088,-1.4195,-1.4255,-1.4115,-1.4088,-1.4088,-1.4088,-1.4088,-1.4135,-1.4282,-1.4188,-1.4088,-1.4088,-1.4088,-1.4088,-1.4088,-1.4088,-1.4088,-1.4088,-1.4088,-1.4088,-1.4088,-1.4088,-1.4021,-1.3868,-1.3854,-1.3788,-1.3641,-1.3333,-1.3113,-1.2973,-1.2819,-1.2665,-1.2512,-1.2512,-1.2445,-1.2305,-1.2305,-1.2305,0.0,0.0,0.0,0.0,0.0,0.0,0.0,0.0,0.0,0.0,0.0,0.0,0.0,0.0,0.0,0.0,0.0,0.0,0.0,0.0,0.0,0.0,0.0,0.0,0.0,0.0,0.0,0.0,0.0,-1.8832,-1.8367,-1.9095,-1.9409,-1.9171,-1.9497,-1.966,-1.966,-1.966,-1.966,-1.966,-1.966,-1.9962,-2.058,-2.0891,-2.1468,-2.2171,-2.2171,-2.2422,-2.267,-2.1116,-2.0467,-2.0275,-1.8623,-1.8008,-1.8008,-1.8008,-1.8232,-1.8525,-1.8525,-1.8525,-1.8584,-1.8945,-1.8633,-1.8027,-1.7506,-1.6537,-1.5455,-1.482,-1.3819,-1.3167,-1.3593,-1.3642,-1.3707,-1.3948,-1.4235,-1.4382,-1.4135,-1.4088,-1.4088,-1.4088,-1.4088,-1.4088,-1.4088,-1.4088,-1.4088,-1.4088,-1.4088,-1.4088,-1.4088,-1.4088,-1.4088,-1.4088,-1.4088,-1.4088,-1.4088,-1.4088,-1.4088,-1.4088,-1.4088,-1.4088,-1.4088,-1.3848,-1.3607,-1.3367,-1.326,-1.3086,-1.2903,-1.2903,-1.2672,-1.2378,-1.2378,-1.2378,0.0,0.0,0.0,0.0,0.0,0.0,0.0,0.0,0.0,0.0,0.0,0.0,0.0,0.0,0.0,0.0,0.0,0.0,0.0,0.0,0.0,0.0,0.0,0.0,0.0,0.0,0.0,0.0,-1.8933,-1.8945,-1.892,-1.8606,-1.8807,-1.9673,-1.9334,-1.9133,-1.9133,-1.9133,-1.9133,-1.9133,-1.9133,-1.9409,-1.9911,-1.9522,-2.0175,-2.1594,-2.1594,-2.1644,-2.1631,-2.0396,-1.9879,-1.9725,-1.8502,-1.8008,-1.8008,-1.8008,-1.8047,-1.8096,-1.8096,-1.8096,-1.8105,-1.8164,-1.835,-1.8426,-1.8046,-1.7446,-1.6821,-1.6378,-1.517,-1.4035,-1.4131,-1.3873,-1.3572,-1.3694,-1.3928,-1.4135,-1.4095,-1.4088,-1.4088,-1.4088,-1.4088,-1.4088,-1.4088,-1.4088,-1.4088,-1.4088,-1.4088,-1.4088,-1.4088,-1.4088,-1.4088,-1.4088,-1.4088,-1.4088,-1.4088,-1.4088,-1.4088,-1.4088,-1.4088,-1.4088,-1.4088,-1.4048,-1.4008,-1.3968,-1.3474,-1.3186,-1.3153,-1.3153,-1.2986,-1.2761,-1.2761,-1.2761,0.0,0.0,0.0,0.0,0.0,0.0,0.0,0.0,0.0,0.0,0.0,0.0,0.0,0.0,0.0,0.0,0.0,0.0,0.0,0.0,0.0,0.0,0.0,0.0,0.0,0.0,0.0,0.0,-1.8359,-1.8265,-1.7639,-1.799,-1.8279,-1.8442,-1.853,-1.8568,-1.8568,-1.8568,-1.8568,-1.8568,-1.8568,-1.8694,-1.8907,-1.8668,-1.9472,-2.1029,-2.1029,-2.1204,-2.1419,-2.0245,-1.9716,-1.9563,-1.8481,-1.8008,-1.8008,-1.8008,-1.8008,-1.8008,-1.8008,-1.8008,-1.8008,-1.8008,-1.8135,-1.8104,-1.743,-1.707,-1.6731,-1.5982,-1.492,-1.3933,-1.4119,-1.3761,-1.344,-1.3519,-1.3868,-1.4088,-1.4088,-1.4088,-1.4088,-1.4088,-1.4088,-1.4088,-1.4088,-1.4088,-1.4088,-1.4088,-1.4088,-1.4088,-1.4088,-1.4088,-1.4088,-1.4088,-1.4088,-1.4088,-1.4088,-1.4088,-1.4088,-1.4088,-1.4088,-1.4088,-1.4088,-1.4088,-1.4088,-1.4088,-1.3834,-1.3621,-1.3454,-1.3454,-1.33,-1.3006,-1.3006,-1.3006,0.0,0.0,0.0,0.0,0.0,0.0,0.0,0.0,0.0,0.0,0.0,0.0,0.0,0.0,0.0,0.0,0.0,0.0,0.0,0.0,0.0,0.0,0.0,0.0,0.0,0.0,0.0,0.0,-1.7974,-1.7822,-1.6964,-1.7478,-1.7727,-1.7601,-1.7852,-1.8003,-1.8003,-1.8003,-1.8003,-1.8003,-1.8003,-1.8078,-1.8204,-1.8053,-1.8819,-2.025,-2.025,-2.0564,-2.0982,-1.9794,-1.9404,-1.9386,-1.8309,-1.791,-1.8008,-1.8008,-1.8008,-1.8008,-1.8008,-1.8008,-1.8008,-1.8008,-1.8008,-1.7872,-1.7166,-1.6941,-1.6784,-1.6088,-1.5234,-1.4441,-1.4487,-1.3975,-1.3571,-1.348,-1.3821,-1.4088,-1.4088,-1.4088,-1.4088,-1.4088,-1.4088,-1.4088,-1.4088,-1.4088,-1.4088,-1.4088,-1.4088,-1.4088,-1.4088,-1.4088,-1.4088,-1.4088,-1.4088,-1.4088,-1.4088,-1.4088,-1.4088,-1.4088,-1.4088,-1.4088,-1.4088,-1.4088,-1.4088,-1.4088,-1.4088,-1.3975,-1.3754,-1.3754,-1.3607,-1.332,-1.332,-1.332,0.0,0.0,0.0,0.0,0.0,0.0,0.0,0.0,0.0,0.0,0.0,0.0,0.0,0.0,0.0,0.0,0.0,0.0,0.0,0.0,0.0,0.0,0.0,0.0,0.0,0.0,0.0,0.0,-1.8179,-1.8166,-1.8126,-1.7153,-1.7087,-1.8129,-1.7689,-1.7426,-1.7426,-1.7426,-1.7426,-1.7426,-1.7426,-1.7702,-1.8191,-1.7664,-1.8041,-1.912,-1.912,-1.9409,-1.982,-1.8802,-1.8603,-1.8819,-1.7863,-1.7656,-1.8008,-1.8008,-1.8008,-1.8008,-1.8008,-1.8008,-1.8008,-1.8008,-1.8008,-1.8008,-1.794,-1.794,-1.794,-1.7872,-1.7148,-1.6219,-1.5392,-1.4836,-1.4272,-1.3457,-1.3667,-1.4088,-1.4088,-1.4088,-1.4088,-1.4088,-1.4088,-1.4088,-1.4088,-1.4088,-1.4088,-1.4088,-1.4088,-1.4088,-1.4088,-1.4088,-1.4088,-1.4088,-1.4088,-1.4088,-1.4088,-1.4088,-1.4088,-1.4088,-1.4088,-1.4088,-1.4088,-1.4088,-1.4088,-1.4088,-1.4088,-1.4082,-1.4062,-1.4062,-1.3908,-1.3539,-1.3539,-1.3539,0.0,0.0,0.0,0.0,0.0,0.0,0.0,0.0,0.0,0.0,0.0,0.0,0.0,0.0,0.0,0.0,0.0,0.0,0.0,0.0,0.0,0.0,0.0,0.0,0.0,0.0,0.0,0.0,0.0,-1.8003,-1.7629,-1.691,-1.671,-1.7112,-1.6923,-1.6823,-1.6823,-1.6823,-1.6823,-1.6823,-1.6823,-1.6923,-1.7112,-1.6923,-1.7438,-1.8505,-1.8505,-1.8995,-1.9733,-1.923,-1.8817,-1.8452,-1.7864,-1.766,-1.7607,-1.7607,-1.7773,-1.8008,-1.8008,-1.8008,-1.8008,-1.8008,-1.8008,-1.8008,-1.8008,-1.8008,-1.8008,-1.8008,-1.7285,-1.6498,-1.6219,-1.5663,-1.5205,-1.505,-1.537,-1.5544,-1.4924,-1.4435,-1.4088,-1.4088,-1.4088,-1.4088,-1.4088,-1.4088,-1.4088,-1.4088,-1.4088,-1.4088,-1.4088,-1.4088,-1.4088,-1.4088,-1.4088,-1.4088,-1.4088,-1.4088,-1.4412,-1.5054,-1.4489,-1.4412,-1.5137,-1.5137,-1.5137,-1.5137,-1.5794,-1.547,-1.4088,-1.4088,-1.4035,-1.3928,-1.3928,-1.3928,0.0,0.0,0.0,0.0,0.0,0.0,0.0,0.0,0.0,0.0,0.0,0.0,0.0,0.0,0.0,0.0,0.0,0.0,0.0,0.0,0.0,0.0,0.0,0.0,0.0,0.0,0.0,0.0,0.0,0.0,-1.7585,-1.6879,-1.6522,-1.6522,-1.6522,-1.6522,-1.6522,-1.6522,-1.6522,-1.6522,-1.6522,-1.6522,-1.6522,-1.6722,-1.7313,-1.8216,-1.8405,-1.8982,-1.9772,-1.9324,-1.8834,-1.8233,-1.7807,-1.7439,-1.7168,-1.7168,-1.7344,-1.7578,-1.7578,-1.7676,-1.7803,-1.7803,-1.79,-1.8008,-1.8008,-1.8008,-1.8008,-1.8008,-1.7569,-1.7001,-1.6706,-1.6065,-1.5634,-1.5918,-1.6256,-1.6312,-1.5738,-1.5072,-1.4455,-1.4146,-1.433,-1.4455,-1.4153,-1.4412,-1.4489,-1.4166,-1.4412,-1.4657,-1.4657,-1.4985,-1.5144,-1.5144,-1.5144,-1.5144,-1.5144,-1.5144,-1.547,-1.6191,-1.5553,-1.547,-1.6191,-1.6273,-1.6273,-1.6273,-1.6927,-1.6609,-1.5144,-1.5144,-1.4985,-1.4657,-1.4985,-1.5144,0.0,0.0,0.0,0.0,0.0,0.0,0.0,0.0,0.0,0.0,0.0,0.0,0.0,0.0,0.0,0.0,0.0,0.0,0.0,0.0,0.0,0.0,0.0,0.0,0.0,0.0,0.0,0.0,-1.838,-1.8066,-1.8066,-1.7076,-1.6522,-1.6522,-1.6522,-1.6522,-1.6522,-1.6522,-1.6522,-1.6522,-1.6522,-1.6522,-1.6534,-1.7112,-1.7689,-1.8242,-1.8794,-1.9321,-1.9747,-1.9044,-1.8577,-1.8247,-1.7504,-1.7042,-1.6709,-1.6709,-1.6719,-1.6665,-1.6665,-1.7021,-1.7383,-1.7383,-1.7666,-1.8008,-1.8008,-1.8008,-1.8008,-1.8008,-1.8008,-1.7794,-1.6853,-1.6137,-1.5766,-1.5961,-1.6051,-1.6149,-1.6587,-1.5976,-1.5146,-1.435,-1.481,-1.5095,-1.4364,-1.5054,-1.5379,-1.4334,-1.5054,-1.5779,-1.5779,-1.6683,-1.7342,-1.7342,-1.7342,-1.7342,-1.7342,-1.7342,-1.7334,-1.7342,-1.7334,-1.7334,-1.7342,-1.7342,-1.7342,-1.7342,-1.7415,-1.7415,-1.7342,-1.7334,-1.6764,-1.5779,-1.6846,-1.7342,-1.9207,0.0,0.0,0.0,0.0,0.0,0.0,0.0,0.0,0.0,0.0,0.0,0.0,0.0,0.0,0.0,0.0,0.0,0.0,0.0,0.0,0.0,0.0,0.0,0.0,0.0,0.0,0.0,-1.7827,-1.7504,-1.7504,-1.6879,-1.6522,-1.6522,-1.6522,-1.6522,-1.6522,-1.6522,-1.6522,-1.6522,-1.6522,-1.6522,-1.6534,-1.7112,-1.7689,-1.8242,-1.8794,-1.9321,-1.9798,-1.9579,-1.9129,-1.8495,-1.7779,-1.7301,-1.7031,-1.6485,-1.6455,-1.6665,-1.6665,-1.7021,-1.7383,-1.7383,-1.7666,-1.8008,-1.8008,-1.8008,-1.8008,-1.8008,-1.8008,-1.794,-1.7647,-1.7449,-1.7344,-1.7455,-1.7636,-1.7723,-1.7028,-1.7058,-1.7055,-1.649,-1.6611,-1.6652,-1.6429,-1.6683,-1.6764,-1.6445,-1.669,-1.6846,-1.6846,-1.709,-1.7342,-1.7342,-1.7342,-1.7342,-1.7342,-1.7342,-1.7658,-1.8479,-1.7747,-1.7666,-1.8479,-1.855,-1.855,-1.855,-1.9274,-1.9274,-1.855,-1.7658,-1.718,-1.6846,-1.7172,-1.7342,0.0,0.0,0.0,0.0,0.0,0.0,-1.8855,-1.8612,0.0,0.0,0.0,0.0,0.0,0.0,0.0,0.0,0.0,0.0,0.0,0.0,0.0,0.0,0.0,0.0,0.0,-1.8765,-1.8765,-1.8765,-1.8066,-1.7422,-1.6993,-1.668,-1.6522,-1.6522,-1.6522,-1.6522,-1.6522,-1.6522,-1.6522,-1.6522,-1.6522,-1.6647,-1.6898,-1.7463,-1.8028,-1.8581,-1.912,-1.9522,-1.9798,-1.9798,-1.9202,-1.8221,-1.7797,-1.714,-1.6374,-1.597,-1.5957,-1.6182,-1.6182,-1.6465,-1.6865,-1.7051,-1.7402,-1.7783,-1.7959,-1.8008,-1.8008,-1.8008,-1.8008,-1.8008,-1.8008,-1.8008,-1.8008,-1.8008,-1.8193,-1.8209,-1.7797,-1.8089,-1.819,-1.7225,-1.7431,-1.7721,-1.739,-1.7658,-1.7827,-1.7342,-1.7658,-1.7989,-1.7989,-1.839,-1.8709,-1.8709,-1.8709,-1.8709,-1.8709,-1.8709,-1.8948,-1.9599,-1.9027,-1.8948,-1.9599,-1.9687,-1.9687,-1.9687,-2.0245,-2.0323,-1.9687,-1.9027,-1.8709,-1.8709,-1.8709,-1.8709,0.0,0.0,0.0,0.0,0.0,0.0,-1.8855,-1.8855,-1.893,0.0,0.0,0.0,0.0,0.0,0.0,0.0,0.0,0.0,0.0,0.0,0.0,0.0,0.0,0.0,-1.953,-1.953,-1.953,-1.953,-1.8574,-1.7585,-1.6637,-1.6522,-1.6522,-1.6522,-1.6522,-1.6522,-1.6522,-1.6522,-1.6522,-1.6522,-1.6584,-1.6886,-1.74,-1.8016,-1.8568,-1.9008,-1.9572,-1.9798,-1.9798,-1.9798,-1.9044,-1.7841,-1.7677,-1.68,-1.5633,-1.5468,-1.541,-1.541,-1.541,-1.5693,-1.6133,-1.6523,-1.6953,-1.7393,-1.7812,-1.7939,-1.7949,-1.7998,-1.8008,-1.8008,-1.8008,-1.8008,-1.8008,-1.8008,-1.8008,-1.8115,-1.8486,-1.8906,-1.8803,-1.7261,-1.7958,-1.8533,-1.7768,-1.847,-1.8789,-1.7819,-1.855,-1.9195,-1.9195,-2.0001,-2.0566,-2.0566,-2.0566,-2.0566,-2.0566,-2.0566,-2.0566,-2.0566,-2.0566,-2.0566,-2.0566,-2.0566,-2.0566,-2.0566,-2.0566,-2.0566,-2.0566,-2.0566,-2.0566,-2.0566,-2.0566,-2.0566,0.0,0.0,0.0,0.0,0.0,0.0,-1.953,-1.953,-1.953,0.0,0.0,0.0,0.0,0.0,0.0,0.0,0.0,0.0,0.0,0.0,0.0,0.0,0.0,0.0,-1.8458,-1.8419,-1.8419,-1.8419,-1.7827,-1.7353,-1.7146,-1.671,-1.6522,-1.6522,-1.6522,-1.6522,-1.6522,-1.6522,-1.6522,-1.6522,-1.6986,-1.7275,-1.7413,-1.8405,-1.8883,-1.9008,-1.9572,-1.9798,-1.9798,-1.9798,-1.9631,-1.9254,-1.8058,-1.7413,-1.7024,-1.5853,-1.541,-1.541,-1.541,-1.5693,-1.6135,-1.6162,-1.6494,-1.6943,-1.7373,-1.75,-1.7578,-1.791,-1.8008,-1.8008,-1.8008,-1.8008,-1.8008,-1.8008,-1.8008,-1.8037,-1.8115,-1.8467,-1.8744,-1.8794,-1.9573,-2.0149,-1.9982,-2.0157,-2.0235,-2.0001,-2.0157,-2.0323,-2.0323,-2.0479,-2.0566,-2.0566,-2.0566,-2.0566,-2.0566,-2.0566,-2.0566,-2.0566,-2.0566,-2.0566,-2.0566,-2.0566,-2.0566,-2.0566,-2.0566,-2.0566,-2.0566,-2.0566,-2.0566,-2.0566,-2.0566,-2.0566,0.0,0.0,0.0,-1.969,0.0,0.0,0.0,-1.969,-1.969,0.0,0.0,0.0,0.0,0.0,0.0,0.0,0.0,0.0,0.0,0.0,0.0,0.0,0.0,0.0,-1.893,-1.865,-1.8302,-1.7747,-1.7463,-1.7188,-1.6909,-1.6637,-1.6522,-1.6522,-1.6522,-1.6522,-1.6522,-1.6522,-1.666,-1.6948,-1.725,-1.7664,-1.8229,-1.8769,-1.9171,-1.9434,-1.9685,-1.9798,-1.9798,-1.9798,-1.9579,-1.9202,-1.8447,-1.7688,-1.6978,-1.6197,-1.57,-1.541,-1.541,-1.5557,-1.5771,-1.5986,-1.6211,-1.6484,-1.6924,-1.7061,-1.71,-1.7314,-1.7529,-1.7695,-1.7695,-1.7852,-1.8008,-1.8008,-1.8008,-1.8008,-1.8008,-1.8516,-1.9023,-1.9248,-1.998,-2.0566,-2.0566,-2.0566,-2.0566,-2.0566,-2.0566,-2.0566,-2.0566,-2.0566,-2.0566,-2.0566,-2.0566,-2.0566,-2.0566,-2.0566,-2.0566,-2.0566,-2.0566,-2.0566,-2.0566,-2.0566,-2.0566,-2.0566,-2.0566,-2.0566,-2.0566,-2.0566,-2.0566,-2.0566,-2.0566,-2.0566,0.0,0.0,0.0,0.0,0.0,-1.969,0.0,0.0,0.0,0.0,0.0,0.0,0.0,0.0,0.0,0.0,0.0,0.0,0.0,0.0,0.0,0.0,0.0,0.0,0.0,-1.9332,-1.865,-1.7666,-1.7504,-1.7229,-1.668,-1.6552,-1.6522,-1.6522,-1.6522,-1.6522,-1.6522,-1.6522,-1.681,-1.7388,-1.7488,-1.8066,-1.8983,-1.9133,-1.9409,-1.9798,-1.9798,-1.9798,-1.9798,-1.9798,-1.9423,-1.8874,-1.8608,-1.7688,-1.6492,-1.6322,-1.5921,-1.541,-1.541,-1.541,-1.5469,-1.582,-1.6056,-1.6133,-1.6494,-1.667,-1.6665,-1.6665,-1.6982,-1.7256,-1.7256,-1.7578,-1.7891,-1.7891,-1.7949,-1.8008,-1.8008,-1.8613,-1.9189,-1.9268,-1.9912,-2.0469,-2.0547,-2.0566,-2.0566,-2.0566,-2.0566,-2.0566,-2.0566,-2.0566,-2.0566,-2.0566,-2.0566,-2.0566,-2.0566,-2.0566,-2.0566,-2.0566,-2.0566,-2.0566,-2.0566,-2.0566,-2.0566,-2.0566,-2.0566,-2.0566,-2.0566,-2.0566,-2.0566,-2.0566,-2.0566,-2.0566,0.0,0.0,0.0,0.0,-1.969,0.0,0.0,0.0,0.0,-1.969,0.0,0.0,0.0,0.0,0.0,0.0,0.0,0.0,0.0,0.0,0.0,0.0,0.0,0.0,0.0,-1.9639,-1.9369,-1.8765,-1.8302,-1.7787,-1.7229,-1.6752,-1.6522,-1.6522,-1.6522,-1.6522,-1.6522,-1.6522,-1.681,-1.7388,-1.7877,-1.843,-1.8995,-1.9497,-1.9748,-1.9798,-1.9798,-1.9798,-1.9798,-1.9798,-1.9747,-1.954,-1.8232,-1.7191,-1.6436,-1.5758,-1.5468,-1.541,-1.541,-1.541,-1.542,-1.5469,-1.5752,-1.6135,-1.6123,-1.6416,-1.6665,-1.6665,-1.6768,-1.6807,-1.6807,-1.7129,-1.7451,-1.7451,-1.7734,-1.8008,-1.8008,-1.8379,-1.8828,-1.9209,-1.9668,-2.0107,-2.0498,-2.0566,-2.0566,-2.0566,-2.0566,-2.0566,-2.0566,-2.0566,-2.0566,-2.0566,-2.0566,-2.0566,-2.0566,-2.0566,-2.0566,-2.0566,-2.0566,-2.0566,-2.0566,-2.0566,-2.0566,-2.0566,-2.0566,-2.0566,-2.0566,-2.0566,-2.0566,-2.0566,-2.0566,-2.0566,0.0,0.0,0.0,0.0,0.0,0.0,-1.969,0.0,-1.969,0.0,0.0,0.0,0.0,0.0,0.0,0.0,-1.951,0.0,0.0,0.0,0.0,0.0,0.0,0.0,0.0,0.0,0.0,0.0,-1.7585,-1.7394,-1.6879,-1.6637,-1.6522,-1.6522,-1.6522,-1.6685,-1.7024,-1.6685,-1.7137,-1.8342,-1.8242,-1.8643,-1.9484,-1.9698,-1.9798,-1.9798,-1.9798,-1.9798,-1.9798,-1.9798,-1.9527,-1.9097,-1.8501,-1.7797,-1.709,-1.68,-1.613,-1.541,-1.541,-1.541,-1.541,-1.541,-1.5537,-1.5684,-1.5684,-1.582,-1.5967,-1.5967,-1.6338,-1.6665,-1.6665,-1.7236,-1.7744,-1.7744,-1.7881,-1.8008,-1.8008,-1.834,-1.8691,-1.8877,-1.9453,-1.9971,-2.0156,-2.04,-2.0566,-2.0566,-2.0566,-2.0566,-2.0566,-2.0566,-2.0566,-2.0566,-2.0566,-2.0566,-2.0566,-2.0566,-2.0566,-2.0566,-2.0566,-2.0566,-2.0566,-2.0566,-2.0566,-2.0566,-2.0566,-2.0566,-2.0566,-2.0566,-2.0566,-2.0566,-2.0566,-2.0566,-1.9914,0.0,0.0,0.0,0.0,0.0,0.0,0.0,0.0,0.0,0.0,0.0,0.0,0.0,0.0,0.0,0.0,-1.963,0.0,0.0,0.0,0.0,0.0,0.0,0.0,0.0,0.0,-1.7271,-1.7394,-1.7312,-1.6752,-1.6595,-1.6522,-1.6522,-1.6672,-1.6961,-1.7388,-1.7112,-1.7664,-1.902,-1.8631,-1.8907,-1.9798,-1.9798,-1.9798,-1.9798,-1.9798,-1.9798,-1.9798,-1.9798,-1.9475,-1.898,-1.898,-1.8555,-1.7907,-1.7688,-1.68,-1.569,-1.569,-1.5584,-1.541,-1.541,-1.541,-1.541,-1.541,-1.541,-1.541,-1.541,-1.5879,-1.6396,-1.6514,-1.71,-1.7695,-1.7812,-1.793,-1.8008,-1.8008,-1.834,-1.8562,-1.8562,-1.9326,-1.9912,-1.9912,-2.0273,-2.0566,-2.0566,-2.0566,-2.0566,-2.0566,-2.0566,-2.0566,-2.0566,-2.0566,-2.0566,-2.0566,-2.0566,-2.0566,-2.0566,-2.0566,-2.0566,-2.0566,-2.0566,-2.0566,-2.0566,-2.0566,-2.0625,-2.0752,-2.0752,-2.081,-2.0918,-2.0684,-2.0566,0.0,0.0,0.0,-1.969,0.0,0.0,0.0,0.0,-1.969,0.0,0.0,0.0,0.0,0.0,0.0,0.0,0.0,0.0,0.0,0.0,0.0,0.0,0.0,0.0,0.0,0.0,0.0,-1.8855,-1.838,-1.7827,-1.7312,-1.6795,-1.6522,-1.6522,-1.7061,-1.7363,-1.7388,-1.789,-1.8442,-1.8983,-1.8958,-1.9284,-1.9798,-1.9798,-1.9798,-1.9798,-1.9798,-1.9798,-1.9798,-1.9798,-1.9798,-1.9747,-1.9747,-1.9307,-1.8555,-1.7841,-1.7146,-1.6482,-1.6482,-1.5979,-1.541,-1.541,-1.541,-1.541,-1.541,-1.541,-1.541,-1.541,-1.543,-1.5557,-1.5977,-1.6426,-1.6885,-1.7305,-1.7715,-1.8008,-1.8008,-1.834,-1.8562,-1.8562,-1.9326,-1.9912,-1.9912,-2.0273,-2.0566,-2.0566,-2.0566,-2.0566,-2.0566,-2.0566,-2.0566,-2.0566,-2.0566,-2.0566,-2.0566,-2.0566,-2.0566,-2.0566,-2.0566,-2.0566,-2.0566,-2.0566,-2.0566,-2.0566,-2.0566,-2.0781,-2.1211,-2.1211,-2.1426,-2.1826,-2.0967,-2.0566,0.0,0.0,-1.969,-1.969,0.0,0.0,0.0,0.0,0.0,0.0,0.0,0.0,0.0,0.0,0.0,0.0,0.0,0.0,0.0,0.0,0.0,0.0,0.0,0.0,0.0,0.0,0.0,-1.7947,-1.8224,-1.7947,-1.6837,-1.6595,-1.6522,-1.6522,-1.7087,-1.7551,-1.7928,-1.8116,-1.8656,-1.9535,-1.9196,-1.9296,-1.9798,-1.9798,-1.9798,-1.9798,-1.9798,-1.9798,-1.9798,-1.9798,-1.9798,-1.9798,-1.9798,-1.9643,-1.9319,-1.8608,-1.7841,-1.7146,-1.6652,-1.6322,-1.6036,-1.5584,-1.541,-1.541,-1.541,-1.541,-1.541,-1.541,-1.583,-1.6318,-1.6465,-1.7041,-1.7617,-1.7764,-1.791,-1.8008,-1.8008,-1.8125,-1.8223,-1.8223,-1.8916,-1.9502,-1.9502,-1.9853,-2.0234,-2.0518,-2.0566,-2.0566,-2.0566,-2.0566,-2.0566,-2.0566,-2.0566,-2.0566,-2.0566,-2.0566,-2.0566,-2.0566,-2.0566,-2.0566,-2.0566,-2.0566,-2.0703,-2.0996,-2.1006,-2.123,-2.167,-2.167,-2.1738,-2.1875,-2.1582,-2.1435,-2.0333,-2.0049,0.0,-1.969,-1.969,0.0,-1.969,0.0,0.0,0.0,0.0,0.0,0.0,0.0,0.0,0.0,0.0,0.0,0.0,-1.969,-1.969,0.0,0.0,0.0,0.0,0.0,-1.8542,-1.5649,-1.7291,-1.7947,0.0,0.0,-1.6609,-1.6823,-1.7375,-1.794,-1.8493,-1.8681,-1.912,-1.9798,-1.9459,-1.9472,-1.9798,-1.9798,-1.9798,-1.9798,-1.9798,-1.9798,-1.9798,-1.9798,-1.9798,-1.9798,-1.9798,-1.9798,-1.9747,-1.9254,-1.8608,-1.7907,-1.7146,-1.6866,-1.6754,-1.6036,-1.5806,-1.5748,-1.5468,-1.541,-1.5439,-1.5596,-1.6055,-1.6572,-1.6885,-1.7373,-1.7822,-1.7978,-1.8008,-1.8008,-1.8008,-1.8008,-1.8008,-1.8008,-1.8574,-1.9053,-1.9053,-1.9404,-1.9893,-2.0478,-2.0439,-2.0391,-2.0547,-2.0566,-2.0566,-2.0566,-2.0566,-2.0566,-2.0566,-2.0566,-2.0566,-2.0566,-2.0713,-2.0801,-2.0801,-2.0957,-2.1172,-2.1455,-2.1465,-2.168,-2.2109,-2.2109,-2.2187,-2.2334,-2.2334,-2.2334]},{"header":{"parameterUnit":"m.s-1","parameterCategory":1,"la1":30.6,"la2":29.2853,"lo1":-89.7004,"lo2":-87.6739,"dy":0.0162,"dx":0.0183,"nx":112,"ny":82,"refTime":"2023-08-14T12:00:00:Z","depth":0,"parameterNumber":3,"parameterNumberName":"V-component_of_WINDS"},"data":[0.0,0.0,0.0,0.0,0.0,0.0,0.0,0.0,0.0,0.0,0.0,0.0,0.0,0.0,0.0,0.0,0.0,0.0,0.0,0.0,0.0,0.0,0.0,0.0,0.0,0.0,0.0,0.0,0.0,0.0,0.0,0.0,0.0,0.0,0.0,0.0,0.0,0.0,0.0,0.0,0.0,0.0,0.0,0.0,0.0,0.0,0.0,0.0,0.0,0.0,0.0,0.0,0.0,0.0,0.0,0.0,0.0,0.0,0.0,0.0,0.0,0.0,0.0,0.0,0.0,0.0,0.0,0.0,0.0,0.0,0.0,0.0,0.0,0.0,0.0,0.0,0.0,0.0,0.0,0.0,0.0,0.0,0.0,0.0,0.0,0.0,0.0,0.0,0.0,0.0,0.0,-1.2835,-1.342,-1.3493,-1.2819,-1.4223,-1.4692,-1.3745,0.0,0.0,0.0,0.0,0.0,0.0,0.0,0.0,0.0,0.0,0.0,0.0,0.0,0.0,0.0,0.0,0.0,0.0,0.0,0.0,0.0,0.0,0.0,0.0,0.0,0.0,0.0,0.0,0.0,0.0,0.0,0.0,0.0,0.0,0.0,0.0,0.0,0.0,0.0,0.0,0.0,0.0,0.0,0.0,0.0,0.0,0.0,0.0,0.0,0.0,0.0,0.0,0.0,0.0,0.0,0.0,0.0,0.0,0.0,0.0,0.0,0.0,0.0,0.0,0.0,0.0,0.0,0.0,0.0,0.0,0.0,0.0,0.0,0.0,0.0,0.0,0.0,0.0,0.0,0.0,0.0,0.0,0.0,0.0,0.0,0.0,0.0,0.0,0.0,0.0,0.0,0.0,0.0,0.0,0.0,0.0,0.0,0.0,0.0,0.0,0.0,0.0,0.0,0.0,-1.3582,-1.3926,-1.4055,-1.3936,-1.3487,-1.4275,-1.4708,-1.4528,0.0,0.0,0.0,0.0,0.0,0.0,0.0,0.0,0.0,0.0,0.0,0.0,0.0,0.0,0.0,0.0,0.0,0.0,0.0,0.0,0.0,0.0,0.0,0.0,0.0,0.0,0.0,0.0,0.0,0.0,0.0,0.0,0.0,0.0,0.0,0.0,0.0,0.0,0.0,0.0,0.0,0.0,0.0,0.0,0.0,0.0,0.0,0.0,0.0,0.0,0.0,0.0,0.0,0.0,0.0,0.0,0.0,0.0,0.0,0.0,0.0,0.0,0.0,0.0,0.0,0.0,0.0,0.0,0.0,0.0,0.0,0.0,0.0,0.0,0.0,0.0,0.0,0.0,0.0,0.0,0.0,0.0,0.0,0.0,0.0,0.0,0.0,0.0,0.0,0.0,0.0,0.0,0.0,0.0,0.0,0.0,0.0,0.0,0.0,0.0,0.0,0.0,0.0,-1.397,-1.3877,-1.4604,-1.4658,-1.4401,-1.382,-1.5246,-1.5856,-1.5122,-1.596,0.0,0.0,0.0,0.0,0.0,0.0,0.0,0.0,0.0,0.0,0.0,0.0,0.0,0.0,0.0,0.0,0.0,0.0,0.0,0.0,0.0,0.0,0.0,0.0,0.0,0.0,0.0,0.0,0.0,0.0,0.0,0.0,0.0,0.0,0.0,0.0,0.0,0.0,0.0,0.0,0.0,0.0,0.0,0.0,0.0,0.0,0.0,0.0,0.0,0.0,0.0,0.0,0.0,0.0,0.0,0.0,0.0,0.0,0.0,0.0,0.0,0.0,0.0,0.0,0.0,0.0,0.0,0.0,0.0,0.0,0.0,0.0,0.0,0.0,0.0,0.0,0.0,0.0,0.0,0.0,0.0,0.0,0.0,0.0,0.0,0.0,0.0,0.0,0.0,0.0,0.0,0.0,0.0,0.0,0.0,0.0,0.0,0.0,0.0,0.0,0.0,0.0,-1.4786,-1.4528,-1.5116,-1.5122,-1.4775,-1.3966,-1.5725,-1.6481,-1.5583,-1.6986,0.0,0.0,0.0,0.0,0.0,0.0,0.0,0.0,0.0,0.0,0.0,0.0,0.0,0.0,0.0,0.0,0.0,0.0,0.0,0.0,0.0,0.0,0.0,0.0,0.0,0.0,0.0,0.0,0.0,0.0,0.0,0.0,0.0,0.0,0.0,0.0,0.0,0.0,0.0,0.0,0.0,0.0,0.0,0.0,0.0,0.0,0.0,0.0,0.0,0.0,0.0,0.0,0.0,0.0,0.0,0.0,0.0,0.0,0.0,0.0,0.0,0.0,0.0,0.0,0.0,0.0,0.0,0.0,0.0,0.0,0.0,0.0,0.0,0.0,0.0,0.0,0.0,0.0,0.0,0.0,0.0,0.0,0.0,0.0,0.0,0.0,0.0,0.0,0.0,0.0,0.0,0.0,0.0,0.0,0.0,0.0,0.0,0.0,0.0,0.0,0.0,0.0,-1.6439,-1.6132,-1.546,-1.5356,-1.4962,-1.398,-1.4786,-1.5488,-1.5848,-1.7381,0.0,0.0,0.0,0.0,0.0,0.0,0.0,0.0,0.0,0.0,0.0,0.0,0.0,0.0,0.0,0.0,0.0,0.0,0.0,0.0,0.0,0.0,0.0,0.0,0.0,0.0,0.0,0.0,0.0,0.0,0.0,0.0,0.0,0.0,0.0,0.0,0.0,0.0,0.0,0.0,0.0,0.0,0.0,0.0,0.0,0.0,0.0,0.0,0.0,0.0,0.0,0.0,0.0,0.0,0.0,0.0,0.0,0.0,0.0,0.0,0.0,0.0,0.0,0.0,0.0,0.0,0.0,0.0,0.0,0.0,0.0,0.0,0.0,0.0,0.0,0.0,0.0,0.0,0.0,0.0,0.0,0.0,0.0,0.0,0.0,0.0,0.0,0.0,0.0,0.0,0.0,0.0,0.0,0.0,0.0,0.0,0.0,0.0,0.0,0.0,0.0,0.0,-1.7091,-1.6867,0.0,-1.62,-1.5431,-1.5039,-1.5785,-1.6261,-1.6265,0.0,0.0,0.0,0.0,0.0,0.0,0.0,0.0,0.0,0.0,0.0,0.0,0.0,0.0,0.0,0.0,0.0,0.0,0.0,0.0,0.0,0.0,0.0,0.0,0.0,0.0,0.0,0.0,0.0,0.0,0.0,0.0,0.0,0.0,0.0,0.0,0.0,0.0,0.0,0.0,0.0,0.0,0.0,0.0,0.0,0.0,0.0,0.0,0.0,0.0,0.0,0.0,0.0,0.0,0.0,0.0,0.0,0.0,0.0,0.0,0.0,0.0,0.0,0.0,0.0,0.0,0.0,0.0,0.0,0.0,0.0,0.0,0.0,0.0,0.0,0.0,0.0,0.0,0.0,0.0,0.0,0.0,0.0,0.0,0.0,0.0,0.0,0.0,0.0,0.0,0.0,0.0,0.0,0.0,0.0,0.0,0.0,0.0,0.0,0.0,0.0,0.0,-1.8582,-1.8093,-1.7866,0.0,-1.6925,-1.6078,-1.6078,-1.6431,-1.6702,-1.6877,0.0,0.0,0.0,0.0,0.0,0.0,0.0,0.0,0.0,0.0,0.0,0.0,0.0,0.0,0.0,0.0,0.0,0.0,0.0,0.0,0.0,0.0,0.0,0.0,0.0,0.0,0.0,0.0,0.0,0.0,0.0,0.0,0.0,0.0,0.0,0.0,0.0,0.0,0.0,0.0,0.0,0.0,0.0,0.0,0.0,0.0,0.0,0.0,0.0,0.0,0.0,0.0,0.0,0.0,0.0,0.0,0.0,0.0,0.0,0.0,0.0,0.0,0.0,0.0,0.0,0.0,0.0,0.0,0.0,0.0,0.0,0.0,0.0,0.0,0.0,0.0,0.0,0.0,0.0,0.0,0.0,0.0,0.0,0.0,0.0,0.0,0.0,0.0,0.0,0.0,0.0,0.0,0.0,0.0,0.0,0.0,0.0,0.0,0.0,0.0,0.0,0.0,-1.9596,-1.9596,-1.9311,-1.8503,-1.752,-1.6908,-1.6908,-1.6431,-1.6589,0.0,0.0,0.0,0.0,0.0,0.0,0.0,0.0,0.0,0.0,0.0,0.0,0.0,0.0,0.0,0.0,0.0,0.0,0.0,0.0,0.0,0.0,0.0,0.0,0.0,0.0,0.0,0.0,0.0,0.0,0.0,0.0,0.0,0.0,0.0,0.0,0.0,0.0,0.0,0.0,0.0,0.0,0.0,0.0,0.0,0.0,0.0,0.0,0.0,0.0,0.0,0.0,0.0,0.0,0.0,0.0,0.0,0.0,0.0,0.0,0.0,0.0,0.0,0.0,0.0,0.0,0.0,0.0,0.0,0.0,0.0,0.0,0.0,0.0,0.0,0.0,0.0,0.0,0.0,0.0,0.0,0.0,0.0,0.0,0.0,0.0,0.0,0.0,0.0,0.0,0.0,0.0,0.0,0.0,0.0,0.0,0.0,0.0,0.0,0.0,0.0,0.0,0.0,-1.9825,-1.9824,-1.9752,-1.9423,-1.8528,-1.8013,-1.8083,-1.7857,-1.7862,-1.818,0.0,0.0,0.0,0.0,0.0,0.0,0.0,0.0,0.0,0.0,0.0,0.0,0.0,0.0,0.0,0.0,0.0,0.0,0.0,0.0,0.0,0.0,0.0,0.0,0.0,0.0,0.0,0.0,0.0,0.0,0.0,0.0,0.0,0.0,0.0,0.0,0.0,0.0,0.0,0.0,0.0,0.0,0.0,0.0,0.0,0.0,0.0,0.0,0.0,0.0,0.0,0.0,0.0,0.0,0.0,0.0,0.0,0.0,0.0,0.0,0.0,0.0,0.0,0.0,0.0,0.0,0.0,0.0,0.0,0.0,0.0,0.0,0.0,0.0,0.0,0.0,0.0,0.0,0.0,0.0,0.0,0.0,0.0,0.0,0.0,0.0,0.0,0.0,0.0,0.0,0.0,0.0,0.0,0.0,0.0,0.0,0.0,0.0,0.0,0.0,0.0,0.0,-2.0489,-2.0172,-1.9983,-1.989,-1.9051,-1.8636,-1.9047,-1.8704,-1.8596,-1.8865,0.0,0.0,0.0,0.0,0.0,0.0,0.0,0.0,0.0,0.0,0.0,0.0,0.0,0.0,0.0,0.0,0.0,0.0,0.0,0.0,0.0,0.0,0.0,0.0,0.0,0.0,0.0,0.0,0.0,0.0,0.0,0.0,0.0,0.0,0.0,0.0,0.0,0.0,0.0,0.0,0.0,0.0,0.0,0.0,0.0,0.0,0.0,0.0,0.0,0.0,0.0,0.0,0.0,0.0,0.0,0.0,0.0,0.0,0.0,0.0,0.0,0.0,0.0,0.0,0.0,0.0,0.0,0.0,0.0,0.0,0.0,0.0,0.0,0.0,0.0,0.0,0.0,0.0,0.0,0.0,0.0,0.0,0.0,0.0,0.0,0.0,0.0,0.0,0.0,0.0,0.0,0.0,0.0,0.0,0.0,0.0,0.0,0.0,0.0,0.0,0.0,0.0,-2.1339,-2.0633,-2.0108,-2.005,-1.9257,-1.9041,-1.9779,-1.9155,-1.8987,-1.9595,0.0,0.0,0.0,0.0,0.0,0.0,0.0,0.0,0.0,0.0,0.0,0.0,0.0,0.0,0.0,0.0,0.0,0.0,0.0,0.0,0.0,0.0,0.0,0.0,0.0,0.0,0.0,0.0,0.0,0.0,0.0,0.0,0.0,0.0,0.0,0.0,0.0,0.0,0.0,0.0,0.0,0.0,0.0,0.0,0.0,0.0,0.0,0.0,0.0,0.0,0.0,0.0,0.0,0.0,0.0,0.0,0.0,0.0,0.0,0.0,-1.9352,0.0,0.0,0.0,0.0,0.0,0.0,0.0,0.0,0.0,0.0,0.0,0.0,0.0,0.0,0.0,0.0,0.0,0.0,0.0,0.0,0.0,0.0,0.0,0.0,0.0,0.0,0.0,0.0,0.0,0.0,0.0,0.0,0.0,0.0,0.0,0.0,0.0,0.0,0.0,0.0,0.0,-2.1624,-2.1297,-2.0933,-2.0299,-1.9907,-1.9841,-2.0171,-1.9888,-1.9754,-1.9924,-1.9909,0.0,0.0,0.0,0.0,0.0,0.0,0.0,0.0,0.0,0.0,0.0,0.0,0.0,0.0,0.0,0.0,0.0,0.0,0.0,0.0,0.0,0.0,0.0,0.0,0.0,0.0,0.0,0.0,0.0,0.0,0.0,0.0,0.0,0.0,0.0,0.0,0.0,0.0,0.0,0.0,0.0,0.0,0.0,0.0,0.0,0.0,0.0,0.0,0.0,0.0,0.0,0.0,0.0,0.0,0.0,0.0,0.0,0.0,0.0,0.0,-2.0546,0.0,0.0,0.0,0.0,0.0,0.0,0.0,0.0,0.0,0.0,0.0,0.0,0.0,0.0,0.0,0.0,0.0,0.0,0.0,0.0,0.0,0.0,0.0,0.0,0.0,0.0,0.0,0.0,0.0,0.0,0.0,0.0,0.0,0.0,0.0,0.0,0.0,0.0,0.0,0.0,-2.287,-2.2023,-2.135,-2.0927,-2.0436,-2.0188,-2.0285,-2.0205,-2.0133,-2.0133,-2.0041,0.0,0.0,0.0,0.0,0.0,0.0,0.0,0.0,0.0,0.0,0.0,0.0,0.0,0.0,0.0,0.0,0.0,0.0,0.0,0.0,0.0,0.0,0.0,0.0,0.0,0.0,0.0,0.0,0.0,0.0,0.0,0.0,0.0,0.0,0.0,0.0,0.0,0.0,0.0,0.0,0.0,0.0,0.0,0.0,0.0,0.0,0.0,0.0,0.0,0.0,0.0,0.0,0.0,-2.4984,-2.4979,-2.4729,-2.4989,-2.514,-2.5074,-2.3336,-2.2701,-2.2838,-2.2173,0.0,0.0,0.0,0.0,0.0,0.0,0.0,0.0,0.0,0.0,0.0,0.0,0.0,0.0,0.0,0.0,0.0,0.0,0.0,0.0,0.0,0.0,0.0,0.0,-2.5586,-2.5589,0.0,0.0,0.0,0.0,0.0,0.0,0.0,0.0,0.0,0.0,0.0,0.0,-2.4129,-2.2831,-2.1831,-2.1523,-2.0908,-2.0446,-2.0312,-2.0312,-2.0312,-2.0312,-2.0135,-1.9981,0.0,0.0,0.0,0.0,0.0,0.0,0.0,0.0,0.0,0.0,0.0,0.0,0.0,0.0,0.0,0.0,0.0,0.0,0.0,0.0,0.0,0.0,0.0,0.0,0.0,0.0,0.0,0.0,0.0,0.0,0.0,0.0,-2.4517,-2.4432,0.0,0.0,0.0,0.0,0.0,0.0,0.0,0.0,0.0,0.0,0.0,0.0,0.0,-2.5623,-2.5692,-2.6737,-2.7282,-2.7311,-2.7513,-2.7602,-2.7563,-2.7602,-2.726,-2.6614,-2.6327,0.0,-2.4821,-2.4723,0.0,0.0,0.0,0.0,0.0,0.0,0.0,0.0,0.0,0.0,0.0,0.0,0.0,0.0,0.0,0.0,0.0,0.0,0.0,0.0,0.0,0.0,-2.5676,-2.5671,-2.5678,-2.5676,0.0,-2.5579,-2.5502,-2.5482,-2.5492,0.0,0.0,0.0,0.0,0.0,0.0,0.0,-2.4187,-2.3898,-2.3186,-2.1658,-2.1408,-2.1062,-2.0369,-2.0312,-2.0312,-2.0312,-2.0269,-2.018,-1.9993,-2.0143,0.0,0.0,0.0,0.0,0.0,0.0,0.0,0.0,0.0,0.0,0.0,0.0,0.0,0.0,0.0,0.0,0.0,0.0,0.0,0.0,0.0,0.0,0.0,0.0,0.0,0.0,0.0,0.0,0.0,-2.5152,-2.5072,-2.5114,-2.5161,-2.5186,0.0,0.0,0.0,0.0,0.0,0.0,0.0,0.0,0.0,-2.6637,-2.7448,-2.7906,-2.7949,-2.8886,-2.9374,-2.9374,-2.9469,-2.9249,-2.8764,-2.8764,-2.8339,-2.7574,-2.7574,-2.7285,-2.6754,-2.5814,-2.5313,-2.513,0.0,0.0,0.0,0.0,-2.5146,-2.5187,-2.4889,-2.5056,0.0,-2.5002,0.0,0.0,0.0,0.0,0.0,0.0,0.0,0.0,0.0,0.0,-2.5644,-2.5693,-2.5699,-2.5703,-2.5709,-2.5659,-2.5609,0.0,-2.5525,-2.5476,-2.541,0.0,0.0,0.0,0.0,-2.5236,-2.487,-2.4438,-2.3861,-2.3043,-2.2524,-2.1889,-2.1043,-2.0966,-2.0773,-2.0331,-2.0312,-2.0269,-2.0169,-2.0249,-2.0441,0.0,0.0,0.0,0.0,0.0,0.0,0.0,0.0,0.0,0.0,0.0,0.0,0.0,0.0,0.0,0.0,0.0,0.0,0.0,0.0,0.0,0.0,0.0,0.0,0.0,0.0,0.0,0.0,-2.5389,-2.5366,-2.5565,-2.5537,-2.5473,0.0,0.0,0.0,0.0,0.0,0.0,-2.7295,-2.7312,-2.7706,-2.8642,-2.9453,-2.9911,-2.9965,-3.0826,-3.128,-3.128,-3.128,-3.0939,-3.0296,-3.0071,-2.9516,-2.8725,-2.8492,-2.8291,-2.7995,-2.6509,-2.5814,-2.566,-2.5382,-2.527,-2.5284,-2.5284,-2.5371,-2.5517,-2.5551,-2.557,-2.5571,-2.5566,-2.5566,-2.5564,-2.5525,0.0,0.0,0.0,0.0,-2.5535,-2.5622,-2.5619,-2.5628,-2.5697,-2.5703,-2.5703,-2.5703,-2.5683,-2.5654,0.0,-2.5595,-2.5517,-2.5447,0.0,0.0,0.0,0.0,-2.5423,-2.5423,-2.4889,-2.4399,-2.4149,-2.3524,-2.2774,-2.1908,-2.1639,-2.1235,-2.0639,-2.0408,-2.0312,-2.0312,-2.0581,-2.0696,-2.0619,0.0,0.0,0.0,0.0,0.0,0.0,0.0,0.0,0.0,0.0,0.0,0.0,0.0,0.0,0.0,0.0,0.0,0.0,0.0,0.0,0.0,0.0,0.0,0.0,0.0,0.0,0.0,0.0,0.0,-2.5585,-2.5476,0.0,0.0,0.0,0.0,-2.6543,-2.7363,-2.8211,-2.9035,-2.9129,-2.9562,-3.0444,-3.1314,-3.177,-3.1782,-3.2634,-3.307,-3.307,-3.307,-3.305,-3.2974,-3.2146,-3.1303,-3.0421,-2.959,-2.8799,-2.8041,-2.7123,-2.6734,-2.6636,-2.5799,-2.5472,-2.5477,-2.5477,-2.5496,-2.5492,-2.5496,-2.552,-2.5516,-2.5503,-2.5503,-2.5507,-2.5507,-2.5507,0.0,0.0,-2.5586,-2.5605,-2.5683,-2.5683,-2.5703,-2.5703,-2.5703,-2.5703,-2.5703,-2.5644,-2.5625,0.0,-2.5697,-2.5655,-2.5526,0.0,-2.5543,-2.5428,-2.5459,-2.5479,-2.5479,-2.5395,-2.5053,-2.4274,-2.4091,-2.3687,-2.2812,-2.1985,-2.1485,-2.1446,-2.0716,-2.0312,-2.0312,-2.135,-2.1754,-2.1446,-2.3822,0.0,0.0,0.0,0.0,0.0,0.0,0.0,0.0,0.0,0.0,0.0,0.0,0.0,0.0,0.0,0.0,0.0,0.0,0.0,0.0,0.0,0.0,0.0,0.0,0.0,0.0,0.0,0.0,-2.7195,-2.8113,0.0,-2.8781,-2.8971,-2.9132,-2.9171,-2.94,-2.9926,-3.0839,-3.0856,-3.1219,-3.2058,-3.2936,-3.3378,-3.3371,-3.4236,-3.4691,-3.4691,-3.4691,-3.4384,-3.3826,-3.3506,-3.2615,-3.1295,-3.0975,-3.0367,-2.9502,-2.8647,-2.7696,-2.6699,-2.5832,-2.5495,-2.5495,-2.5495,-2.5495,-2.5495,-2.5495,-2.5495,-2.5495,-2.5495,-2.5495,-2.5495,-2.5495,-2.5495,-2.5492,-2.5525,-2.5532,-2.5559,-2.5624,-2.5644,-2.5644,-2.5684,-2.5703,-2.5703,-2.5703,-2.5684,-2.5662,-2.5704,-2.5678,-2.5624,-2.5566,-2.5583,-2.5582,-2.5543,-2.5541,-2.557,-2.5564,-2.5534,-2.5401,-2.5062,-2.4976,-2.4591,-2.3765,-2.3419,-2.2994,-2.2444,-2.2172,-2.2026,-2.1963,-2.2367,-2.2667,-2.2842,-2.2342,-2.2573,0.0,0.0,0.0,0.0,0.0,0.0,0.0,0.0,0.0,0.0,0.0,0.0,0.0,0.0,0.0,0.0,0.0,0.0,0.0,0.0,0.0,0.0,0.0,0.0,0.0,0.0,-2.8245,-2.896,-3.0234,-3.097,-3.0727,-3.1161,-3.1348,-3.1119,-3.1623,-3.2354,-3.3278,-3.3108,-3.3353,-3.416,-3.4487,-3.4641,-3.4641,-3.5218,-3.5493,-3.5493,-3.5493,-3.5139,-3.4486,-3.4199,-3.3422,-3.2244,-3.1685,-3.1111,-3.0486,-2.9333,-2.8103,-2.6864,-2.6147,-2.5697,-2.5428,-2.5428,-2.5428,-2.5428,-2.5428,-2.5428,-2.5428,-2.5428,-2.5428,-2.5428,-2.5428,-2.5428,-2.5447,-2.5466,-2.5468,-2.5479,-2.5543,-2.5562,-2.5579,-2.5644,-2.5664,-2.5664,-2.5703,-2.5703,-2.5703,-2.5703,-2.5652,-2.5634,-2.5603,-2.5609,-2.5626,-2.5572,-2.56,-2.5625,-2.5604,-2.5605,-2.5574,-2.5537,-2.5476,-2.5222,-2.4678,-2.438,-2.3964,-2.3415,-2.3126,-2.2956,-2.2894,-2.3182,-2.334,-2.3331,-2.0196,-2.0419,-2.4168,0.0,0.0,0.0,0.0,0.0,0.0,0.0,0.0,0.0,0.0,0.0,0.0,0.0,0.0,0.0,0.0,0.0,0.0,0.0,0.0,0.0,0.0,0.0,-2.7221,-2.8007,-2.9155,-3.0808,-3.1693,-3.1869,-3.1166,-3.2484,-3.3101,-3.2294,-3.3998,-3.5434,-3.6272,-3.5822,-3.5902,-3.669,-3.596,-3.5556,-3.5556,-3.5537,-3.5498,-3.5498,-3.5479,-3.5354,-3.5049,-3.4211,-3.3672,-3.3259,-3.1638,-3.0903,-3.0734,-2.9112,-2.7961,-2.7179,-2.6756,-2.6053,-2.5284,-2.5284,-2.5284,-2.5303,-2.5303,-2.5303,-2.5303,-2.5303,-2.5303,-2.5303,-2.5303,-2.5303,-2.5303,-2.539,-2.5409,-2.5409,-2.5486,-2.5495,-2.5516,-2.5581,-2.5605,-2.5625,-2.5684,-2.5703,-2.5703,-2.5703,-2.5703,-2.5684,-2.5605,-2.5664,-2.5664,-2.552,-2.5628,0.0,-2.5605,-2.5605,-2.5605,-2.5605,-2.5548,-2.5505,-2.5505,-2.4735,-2.4276,-2.434,-2.3494,-2.2979,-2.2978,-2.3794,-2.3802,-2.2889,-1.8003,-1.8689,-2.5245,0.0,0.0,0.0,0.0,0.0,0.0,0.0,0.0,0.0,0.0,0.0,0.0,0.0,0.0,0.0,0.0,0.0,0.0,0.0,0.0,0.0,0.0,-2.8137,-2.8839,-3.0562,-3.2189,-3.3368,-3.4797,-3.5622,-3.5405,-3.5791,-3.5967,-3.5741,-3.6222,-3.6623,-3.6871,-3.6744,-3.6746,-3.6973,-3.6765,-3.6651,-3.6651,-3.6083,-3.5799,-3.578,-3.5211,-3.4889,-3.4793,-3.4547,-3.3753,-3.2506,-3.2053,-3.1166,-2.9998,-2.9526,-2.8829,-2.794,-2.6654,-2.5729,-2.5088,-2.5088,-2.5173,-2.5303,-2.5303,-2.5303,-2.5303,-2.5303,-2.5303,-2.5303,-2.5303,-2.5303,-2.5303,-2.5322,-2.5322,-2.5341,-2.5409,-2.5456,-2.5526,-2.558,-2.5636,-2.5684,-2.5703,-2.5703,-2.5703,-2.5703,-2.5703,-2.5684,-2.5684,-2.5684,-2.5682,-2.5659,-2.5687,0.0,-2.5662,-2.5664,-2.565,-2.5602,-2.5549,-2.5505,-2.5505,-2.5287,-2.5175,-2.5239,-2.505,-2.4903,-2.4866,-2.5052,-2.4986,-2.462,-2.2658,-2.2447,0.0,0.0,0.0,0.0,0.0,0.0,0.0,0.0,0.0,0.0,0.0,0.0,0.0,0.0,0.0,0.0,0.0,0.0,0.0,0.0,0.0,0.0,-2.9609,-3.1009,-3.2502,-3.3342,-3.4568,-3.6533,-3.7366,-3.7765,-3.7765,-3.7765,-3.7634,-3.728,-3.7692,-3.7952,-3.7952,-3.7732,-3.7612,-3.7612,-3.7269,-3.7099,-3.7099,-3.6293,-3.5899,-3.588,-3.509,-3.4632,-3.4508,-3.4508,-3.3896,-3.2832,-3.216,-3.1302,-3.0348,-2.9676,-2.8913,0.0,0.0,0.0,0.0,0.0,-2.5,-2.5103,-2.5152,-2.5173,-2.5192,-2.5274,-2.5303,-2.5303,-2.5303,-2.5303,-2.5303,-2.5303,-2.5303,-2.5303,-2.5341,-2.539,-2.5438,-2.5534,-2.5591,-2.5634,-2.5683,-2.5703,-2.5703,-2.5703,-2.5703,0.0,-2.5703,-2.5703,-2.5684,-2.5664,-2.5678,-2.5687,-2.5667,-2.5672,-2.5694,-2.5648,-2.5615,-2.5577,-2.5582,-2.556,0.0,0.0,0.0,-2.5634,-2.5593,-2.5537,0.0,0.0,0.0,-2.4543,-2.4341,0.0,0.0,0.0,-2.5303,-2.487,0.0,0.0,0.0,0.0,0.0,0.0,0.0,0.0,0.0,0.0,0.0,0.0,0.0,0.0,0.0,0.0,-3.2687,-3.4582,-3.6956,-3.6263,-3.6595,-3.9566,-3.9282,-3.8872,-3.8964,-3.8891,-3.8542,-3.7808,-3.8645,-3.9156,-3.9063,0.0,0.0,0.0,0.0,-3.7328,-3.7422,-3.6543,-3.6073,-3.6054,-3.5268,-3.4667,-3.4277,-3.4277,-3.4055,-3.3587,-3.2155,-3.1421,-3.1146,-2.9732,-2.8668,-2.7963,-2.8147,-2.729,-2.5879,-2.519,-2.4879,-2.4818,-2.4943,0.0,0.0,-2.5182,-2.5253,-2.5264,-2.5264,-2.5274,-2.5322,-2.5418,-2.538,-2.5341,-2.5534,-2.5437,-2.5388,-2.5706,-2.5644,-2.5574,-2.5799,-2.5762,-2.5703,-2.5703,-2.5703,-2.5703,-2.5703,-2.5703,-2.5684,-2.5625,-2.5664,-2.5685,-2.5619,-2.5668,-2.5703,-2.5684,0.0,0.0,-2.5688,-2.5619,-2.5639,-2.5691,-2.5646,-2.5609,-2.5605,-2.5535,-2.5513,-2.5495,-2.5447,-2.5418,-2.5409,-2.5341,-2.5322,-2.5303,-2.5303,-2.487,0.0,0.0,0.0,0.0,0.0,0.0,0.0,0.0,0.0,0.0,0.0,0.0,0.0,0.0,0.0,-3.2582,-3.4571,-3.662,-3.8938,-3.883,-3.8935,-4.0005,-3.9856,-3.9918,-4.0579,-4.0047,-3.9588,-3.9441,-3.9645,-3.9455,-3.881,-3.8685,-3.8918,-3.9564,-3.8807,-3.8715,-3.9361,-3.7903,-3.7211,-3.7193,0.0,0.0,-3.4843,-3.4843,-3.4118,-3.2816,-3.2504,-3.1641,-3.0411,-3.0099,-2.9494,-2.8654,-2.7603,-2.6599,-2.5758,-2.5772,-2.5359,-2.4804,-2.4828,-2.4842,-2.4842,-2.4869,-2.4968,-2.5065,-2.5065,-2.5163,0.0,-2.6159,-2.5851,-2.561,-2.7024,-2.639,-2.5746,-2.7181,-2.652,-2.5779,-2.6504,-2.6152,-2.5703,-2.5703,-2.5703,-2.5703,-2.5703,-2.5703,-2.5703,-2.5684,-2.5684,-2.5702,-2.5672,-2.5681,-2.5684,-2.5625,-2.5621,-2.562,-2.562,-2.5616,-2.5622,-2.5703,-2.5687,-2.5657,-2.5605,-2.5599,-2.5564,-2.549,-2.549,-2.5478,-2.5486,-2.5466,-2.5428,-2.539,-2.5322,-2.487,0.0,0.0,0.0,0.0,0.0,0.0,0.0,0.0,0.0,0.0,0.0,-2.8738,0.0,0.0,-3.3034,-3.5301,-3.6797,-3.8254,-3.9727,-4.0082,-4.0373,-4.0909,-4.0217,-3.9986,-4.078,-4.0131,-3.95,-3.9121,-3.9446,-3.9426,-3.8937,-3.9231,-3.9768,-4.0487,-3.9717,-3.9478,-3.99,-3.8285,-3.7507,-3.7477,-3.667,-3.6064,-3.5642,-3.4984,-3.4258,-3.3429,-3.2394,-3.1495,-3.0702,-3.0132,-2.9664,-2.9216,-2.8294,-2.7463,-2.6669,-2.5968,-2.5463,-2.5052,-2.4757,-2.4654,-2.467,-2.4775,-2.4891,-2.5087,-2.5526,-2.5803,-2.614,-2.7005,-2.6948,-2.6794,-2.7659,-2.7274,-2.6774,-2.7237,-2.6742,-2.616,-2.6197,-2.5913,-2.5644,-2.5644,-2.5684,-2.5703,-2.5703,-2.5703,-2.5703,-2.5703,-2.5703,-2.5703,-2.5703,-2.5703,-2.5684,-2.5644,-2.5648,-2.5644,-2.5644,-2.5644,-2.5652,-2.5703,-2.5703,-2.5684,-2.5644,-2.5644,-2.5623,-2.5603,-2.5562,-2.5545,-2.5547,-2.5531,-2.5483,-2.5444,-2.5427,-2.5159,0.0,0.0,0.0,0.0,0.0,0.0,0.0,0.0,-2.8383,-2.977,-3.0666,-3.1732,-3.3508,-3.4556,-3.5808,-3.7787,-3.8717,-3.9411,-4.0003,-4.0497,-4.092,-4.142,-4.0405,-3.9941,-4.0778,-4.01,-3.9376,-3.8815,-3.9287,-3.9487,-3.9193,-3.9714,-4.0347,-4.0974,-4.0224,-3.9896,-4.0042,-3.862,-3.7799,-3.7653,-3.7015,-3.6541,-3.6194,-3.5002,-3.4375,-3.4141,-3.2151,-3.1299,-3.1211,-3.0159,-2.9755,-2.9782,-2.9314,-2.8764,-2.8062,-2.6468,-2.577,-2.5533,-2.4912,-2.4668,-2.4703,-2.4867,-2.4913,-2.5101,-2.6113,-2.6485,-2.6751,-2.7788,-2.7984,-2.7967,-2.8294,-2.814,-2.7824,-2.7507,-2.7054,-2.6574,-2.6101,-2.5917,-2.5826,-2.5834,-2.5875,-2.5916,-2.5937,-2.5781,-2.5684,-2.5703,-2.5703,-2.5703,-2.5703,-2.5703,-2.5703,-2.5703,-2.5703,-2.5703,-2.5703,-2.5703,-2.5703,-2.5703,-2.5703,-2.5703,-2.5703,-2.5703,-2.5703,-2.5703,-2.5644,-2.5625,-2.5625,-2.5579,-2.5535,-2.5527,-2.5526,-2.5447,-2.4138,-2.4036,-2.456,-2.5879,-2.6894,-2.8433,0.0,0.0,-3.2899,-3.3711,-3.4472,-3.5081,-3.5334,-3.6552,-3.7821,-3.8717,-3.9478,-3.9986,-4.007,-4.0171,-4.0204,-4.0303,-4.0374,-4.0795,-4.1598,-4.0937,-4.0418,-4.0329,-4.04,-4.0141,-3.9403,-3.9438,-3.9851,-4.0641,-3.9895,-3.9807,-4.0517,-3.9607,-3.8883,-3.8209,-3.812,-3.7339,-3.5918,-3.5137,-3.4375,-3.3596,-3.1989,-3.1299,-3.1246,-3.0397,-3.0303,-3.0584,-2.9828,-2.9693,-2.9751,-2.8117,-2.7071,-2.6355,-2.557,-2.5295,-2.5295,-2.5335,-2.4985,-2.4839,-2.6374,-2.6597,-2.6657,-2.8248,-2.8306,-2.8236,-2.9737,-2.9025,-2.8255,-2.966,-2.8305,-2.6892,-2.7566,-2.7162,-2.6676,-2.6668,-2.6671,-2.6695,-2.6757,-2.6113,-2.5625,-2.5684,-2.5703,-2.5703,-2.5703,-2.5703,-2.5703,-2.5703,-2.5703,-2.5703,-2.5703,-2.5703,-2.5703,-2.5703,-2.5703,-2.5703,-2.5703,-2.5703,-2.5703,-2.5703,-2.5684,-2.5684,-2.5684,-2.5683,-2.5648,-2.5586,-2.5584,-2.5524,-2.4425,-2.5312,0.0,0.0,-2.9228,-3.1478,-3.3051,-3.4066,-3.503,-3.6231,-3.7077,-3.7719,-3.8142,-3.8734,-3.9276,0.0,-3.9884,-4.007,-4.007,-4.007,-3.9918,-3.9495,-3.9607,-3.9784,-4.0141,-3.9899,-3.9491,-3.906,-3.9819,-4.0095,-3.9652,-4.0019,-4.0595,-4.1273,-4.053,-4.0241,-4.0577,-3.9799,-3.9252,-3.8934,-3.8532,-3.7966,-3.722,-3.532,-3.3641,-3.2182,-3.1524,-3.1248,-3.1179,-3.0629,-3.0499,-3.0589,-2.9645,-2.9493,-2.9675,-2.8306,-2.7585,-2.7181,-2.6374,-2.6098,-2.6098,-2.6098,-2.6021,-2.6116,-2.7252,-2.756,-2.7797,-2.9131,-2.9312,-2.9328,-3.0182,-2.989,-2.941,-2.9602,-2.8844,-2.8065,-2.7958,-2.7708,-2.7498,-2.7498,-2.7535,-2.7569,-2.7589,-2.7298,-2.689,-2.6412,-2.597,-2.5703,-2.5703,-2.5703,-2.5703,-2.5703,-2.5703,-2.5703,-2.5703,-2.5703,-2.5703,-2.5703,-2.5703,-2.5703,-2.5703,-2.5703,-2.5703,-2.5703,-2.5703,-2.5703,-2.5703,-2.5703,-2.5681,-2.5666,-2.5655,-2.5615,-2.506,0.0,0.0,-2.9161,-3.1867,-3.4438,-3.4861,-3.5943,-3.7229,-3.8548,-3.9073,-3.9394,-3.9715,-3.9783,-3.9783,-3.9783,-3.9783,-3.9851,-4.0054,-3.9901,-3.958,-3.9056,-3.8633,-3.8379,-3.8379,-3.8751,-3.8768,-3.8244,-3.9377,-4.0065,-3.9881,-4.041,-4.0874,-4.1331,-4.0761,-4.0464,-4.0464,-3.9669,-3.918,-3.8971,-3.8244,-3.7772,-3.7475,-3.5059,-3.3066,-3.1478,-3.1275,-3.1309,-3.1484,-3.0956,-3.0953,-3.1131,-2.9922,-2.9697,-2.995,-2.8822,-2.8323,-2.8026,-2.7218,-2.709,-2.7273,-2.7273,-2.7216,-2.734,-2.8361,-2.8521,-2.8532,-2.955,-2.9877,-2.9969,-3.0209,-3.0299,-3.0215,-2.9879,-2.9448,-2.9006,-2.8659,-2.8439,-2.8305,-2.8302,-2.8338,-2.8384,-2.8398,-2.822,-2.7852,-2.7246,-2.6695,-2.6191,-2.5722,-2.5684,-2.5703,-2.5703,-2.5703,-2.5703,-2.5703,-2.5703,-2.5703,-2.5703,-2.5703,-2.5703,-2.5703,-2.5703,-2.5703,-2.5703,-2.5703,-2.5703,-2.5703,-2.5703,-2.5703,-2.5703,-2.5703,-2.5677,0.0,0.0,-2.9634,-3.2527,-3.4979,-3.706,-3.8497,-3.9411,-4.0155,-4.0933,-4.0544,-3.9834,-3.9157,-3.9022,-3.9022,-3.9022,-3.9022,-3.9276,-3.9986,-3.9462,-3.9022,-3.8988,-3.7719,-3.6857,0.0,-3.8142,-3.8988,-3.8954,-3.9648,-4.0121,-4.0087,-4.0104,-4.0121,-4.0171,-4.0154,-4.0137,-4.0137,-3.9359,-3.8647,-3.7936,-3.7191,-3.6429,-3.5633,-3.4126,-3.2983,-3.2246,-3.1495,-3.1596,-3.2188,-3.1501,-3.1859,-3.2778,-3.1166,-3.0835,-3.114,-3.0331,-2.9583,-2.8847,-2.8044,-2.8282,-2.892,-2.892,-2.8393,-2.8066,-2.9664,-2.9185,-2.8277,-2.9172,-2.9551,-2.9765,-2.9954,-3.0013,-3.0266,-3.1354,-3.0333,-2.9313,-3.016,-2.966,-2.9074,-2.9063,-2.9063,-2.9091,-2.9164,-2.8522,-2.8022,-2.8046,-2.8033,-2.7439,-2.5817,-2.5664,-2.5703,-2.5703,-2.5703,-2.5703,-2.5703,-2.5703,-2.5703,-2.5703,-2.5703,-2.5703,-2.5703,-2.5703,-2.5703,-2.5703,-2.5703,-2.5703,-2.5703,-2.5703,-2.5703,-2.5703,-2.5703,-2.5703,0.0,0.0,-3.3863,-3.5893,-3.8075,-3.9969,-4.095,-4.1001,-4.0747,-4.051,-3.9478,-3.8261,-3.6992,-3.7178,-3.7533,-3.7533,-3.8345,-3.9242,-3.9969,-3.9868,-3.936,-3.8396,-3.7838,0.0,0.0,0.0,0.0,-3.8227,-3.8937,-3.9563,-4.0054,-4.007,-4.007,-4.007,-4.007,-4.007,-4.007,-3.936,-3.887,-3.8616,-3.7381,-3.6113,-3.4861,-3.4353,-3.3457,-3.229,-3.2544,-3.251,-3.2347,-3.256,-3.2615,-3.2434,-3.1389,-3.1278,-3.1464,-3.0158,-3.0025,-3.0402,-2.9945,-3.0141,-3.0595,-3.0595,-3.0044,-2.9494,-3.0044,-2.9508,-2.879,-2.9258,-2.9846,-3.0338,-3.0541,-3.099,-3.1535,-3.2103,-3.1781,-3.1484,-3.1962,-3.141,-3.0833,-3.0833,-3.0352,-2.9956,-2.9994,-2.9783,-2.9425,-2.8921,-2.8405,-2.79,-2.7336,-2.7315,-2.7148,-2.6562,-2.7051,-2.7187,-2.6602,-2.709,-2.7422,-2.7422,-2.7422,-2.7168,-2.6582,-2.6562,-2.6289,-2.5703,-2.5703,-2.5703,-2.5703,-2.5703,-2.5703,-2.5703,-2.5703,-2.5703,-3.1901,-3.437,-3.6586,-3.8903,-4.0544,-4.1711,-4.2185,-4.1728,-4.0849,-3.9563,-3.8183,-3.6606,-3.451,-3.4326,-3.469,-3.5211,-3.6274,-3.7533,-3.9089,-3.9292,-3.9056,-3.8379,-3.8075,-3.7719,0.0,0.0,0.0,-3.8244,-3.8971,-3.958,-4.0054,-4.007,-4.007,-4.007,-4.007,-4.007,-4.007,-3.936,-3.8734,-3.8193,-3.6958,-3.5842,-3.4878,-3.4624,-3.3829,-3.2696,-3.2916,-3.273,-3.2364,-3.2797,-3.2882,-3.2645,-3.2171,-3.2128,-3.2265,-3.1253,-3.146,-3.2073,-3.0937,-3.1018,-3.1626,-3.1626,-3.1356,-3.1072,-3.1072,-3.0503,-2.9885,-3.0072,-3.0487,-3.0943,-3.1162,-3.1615,-3.2126,-3.2691,-3.2659,-3.2622,-3.3116,-3.2647,-3.2122,-3.2122,-3.1679,-3.1198,-3.091,-3.0609,-3.0225,-2.9713,-2.9236,-2.8714,-2.8163,-2.8137,-2.7956,-2.7383,-2.7874,-2.7991,-2.7444,-2.7913,-2.8234,-2.8262,-2.8262,-2.8027,-2.748,-2.7461,-2.7051,-2.6172,-2.6152,-2.6016,-2.5703,-2.5703,-2.5703,-2.5703,-2.5703,-2.5703,-3.4793,-3.6417,-3.7905,-4.1424,-4.232,-4.2337,-4.2252,-4.161,-4.0426,-3.8244,-3.6664,-3.4814,0.0,0.0,-3.0882,-3.2381,-3.3158,-3.4624,-3.7601,-3.8024,-3.8261,0.0,0.0,0.0,0.0,0.0,0.0,-3.8939,0.0,-4.0037,-4.007,-4.007,-4.007,-4.007,-4.007,-4.007,-4.007,-3.936,-3.8261,-3.6823,-3.6045,-3.5673,-3.5656,-3.4895,-3.415,-3.3423,-3.2747,-3.2425,-3.2432,-3.2425,-3.2848,-3.3457,-3.3457,-3.3457,-3.3457,-3.3423,-3.3697,-3.3761,-3.1163,-3.1092,-3.209,-3.2054,-3.232,-3.2614,-3.2614,-3.2045,-3.1384,-3.1384,-3.1421,-3.1513,-3.1778,-3.1864,-3.2154,-3.3197,-3.3014,-3.2842,-3.3694,-3.3389,-3.2968,-3.2968,-3.2891,-3.2602,-3.1833,-3.0987,-3.0398,-3.0398,-3.0398,-2.9867,-2.8418,-2.8214,-2.8221,-2.8159,-2.8197,-2.8217,-2.8178,-2.8197,-2.8262,-2.8318,-2.832,-2.834,-2.8359,-2.8359,-2.7949,-2.707,-2.7051,-2.6621,-2.5762,-2.5762,-2.5742,-2.5703,-2.5703,-2.5703,-3.7263,-3.9478,-4.1119,-4.2049,-4.2709,-4.2844,-4.1728,-4.007,-3.8261,-3.6552,-3.3885,-3.1246,0.0,0.0,0.0,-3.2381,-3.4466,0.0,-3.9191,-3.9529,0.0,-3.9039,0.0,-3.9309,-3.8768,-3.9208,0.0,0.0,-3.9126,-3.9512,-4.0054,-4.007,-4.007,-4.007,-4.007,-4.007,-4.007,-3.936,-3.8531,-3.7618,-3.684,-3.6485,-3.6451,-3.569,-3.4928,-3.4235,-3.4607,-3.4455,-3.3964,-3.4539,-3.4556,-3.4218,-3.4218,-3.4218,-3.415,-3.3609,-3.3829,-3.4227,-3.298,-3.3072,-3.361,-3.3076,-3.2756,-3.2614,-3.2614,-3.2045,-3.1384,-3.1384,-3.1825,-3.2302,-3.2385,-3.2827,-3.3407,-3.3869,-3.4083,-3.4245,-3.4689,-3.4289,-3.3872,-3.3872,-3.2852,-3.1948,-3.1737,-3.0987,-3.0398,-3.0398,-3.0398,-3.0263,-2.9867,-2.9867,-2.964,-2.8983,-2.9553,-2.9708,-2.9051,-2.9592,-2.997,-2.9977,-2.9991,-2.9698,-2.907,-2.905,-2.8678,-2.791,-2.7891,-2.748,-2.668,-2.668,-2.6328,-2.5703,-2.5703,-2.5703,-3.921,-4.1112,-4.2361,-4.2669,-4.2861,-4.2301,-3.995,-3.7951,-3.574,-3.269,-3.0314,0.0,0.0,0.0,0.0,0.0,0.0,0.0,-3.8227,-3.8908,-3.9293,0.0,-3.9456,0.0,-3.9919,-4.0051,-3.991,0.0,-3.9122,-3.902,-3.9086,-3.9102,-3.9102,-3.9102,-3.9102,-3.9102,-3.9102,-3.8338,-3.7777,-3.738,-3.6323,-3.5975,-3.6265,-3.5496,-3.4897,-3.4506,0.0,-3.4709,-3.4066,-3.481,-3.4878,-3.4523,-3.4861,-3.4979,-3.4979,-3.4912,-3.4928,-3.4928,-3.4523,-3.4513,-3.4571,-3.3826,-3.3486,-3.3367,-3.3367,-3.2939,-3.2449,-3.2449,-3.2779,-3.3128,-3.3128,-3.3458,-3.3842,-3.3986,-3.426,-3.4572,-3.4851,-3.4757,-3.464,-3.4743,-3.3699,-3.2679,-3.2295,-3.1525,-3.0852,-3.0456,-3.0398,-3.0398,-3.0398,-3.0417,-3.0263,-2.979,-3.0206,-3.0302,-2.9829,-3.0225,-3.0525,-3.0544,-3.0559,-3.0361,-2.9887,-2.9868,-2.9489,-2.871,-2.8688,-2.8103,-2.6917,-2.6932,-2.6504,-2.5664,-2.6074,-2.6269,-4.0587,-4.1705,-4.2361,-4.3048,-4.2642,-4.11,-3.7603,-3.5459,-3.2945,-2.8338,0.0,-2.5603,-2.3647,0.0,-2.5098,-2.8057,0.0,-3.2555,-3.6286,-3.7284,-3.8504,-4.0793,-3.9273,-3.8894,-4.0992,-4.0525,-3.9974,-3.9811,-3.9028,-3.8398,-3.7978,-3.7863,-3.7822,-3.7822,-3.7822,-3.7822,-3.7822,-3.7141,-3.6789,-3.6678,-3.5448,-3.5094,-3.548,-3.4874,-3.4535,-3.4387,-3.4492,0.0,-3.3616,-3.4445,-3.4726,-3.4726,-3.5588,-3.5859,-3.5876,-3.6637,-3.6434,-3.5774,-3.5774,-3.5557,-3.5128,-3.4362,-3.4217,-3.4361,-3.4425,-3.4261,-3.4028,-3.3963,-3.3972,-3.3935,-3.3825,-3.3807,-3.3807,-3.3807,-3.3993,-3.4288,-3.4572,-3.487,-3.519,-3.5446,-3.4795,-3.3949,-3.3199,-3.2391,-3.1564,-3.0698,-3.0571,-3.0533,-3.0398,-3.0398,-3.0398,-3.0398,-3.0398,-3.0398,-3.0398,-3.0398,-3.0417,-3.0487,-3.0487,-3.0506,-3.0564,-3.0564,-3.0225,-2.9471,-2.9453,-2.8683,-2.714,-2.7195,-2.6714,-2.578,-2.6716,-2.7089,-4.0723,-4.1692,-4.2245,-4.2463,-4.1491,-3.9548,-3.6104,-3.2724,0.0,0.0,0.0,-2.3025,-2.2645,-2.3577,0.0,-2.8198,0.0,0.0,0.0,0.0,-3.7822,0.0,0.0,0.0,0.0,0.0,0.0,0.0,0.0,-3.7483,-3.8635,-3.8149,-3.7822,-3.7822,-3.7822,-3.7822,-3.7822,-3.7694,-3.7326,-3.6774,-3.6494,-3.5828,-3.4864,-3.4667,-3.4269,-3.3809,-3.4347,0.0,-3.4515,-3.5862,-3.6011,-3.5571,-3.6958,-3.7127,-3.6671,-3.7432,-3.7229,-3.6586,-3.6586,-3.6107,-3.5358,-3.4416,-3.4349,-3.4711,-3.5151,-3.5241,-3.5162,-3.4869,-3.477,-3.4651,-3.3972,-3.3807,-3.3807,-3.3807,-3.3993,-3.42,-3.4269,-3.4735,-3.519,-3.5446,-3.4795,-3.4141,-3.3987,-3.3256,-3.241,-3.1602,-3.1468,-3.1218,-3.0494,-3.0398,-3.0398,-3.0398,-3.0398,-3.0398,-3.0398,-3.0398,-3.0398,-3.0417,-3.0417,-3.0417,-3.0417,-3.0417,-3.0379,-3.0283,-3.0301,-2.9811,-2.8876,-2.8878,-2.8092,-2.6619,-2.7498,-2.754,-4.0209,-4.0446,-4.0562,-4.1409,-3.9687,-3.6887,-3.3557,0.0,0.0,0.0,0.0,-2.1508,-2.1508,0.0,0.0,0.0,0.0,0.0,0.0,0.0,0.0,0.0,0.0,0.0,0.0,0.0,0.0,0.0,0.0,-3.7919,-3.7147,-3.6829,-3.66,-3.66,-3.66,-3.66,-3.66,-3.66,-3.643,-3.609,-3.5734,-3.5385,-3.5115,-3.4376,-3.4074,-3.4126,-3.4436,0.0,-3.5267,-3.6322,-3.6762,-3.6891,-3.7618,-3.7686,-3.7449,-3.8193,-3.7753,-3.6823,-3.7229,-3.6603,-3.5504,-3.5019,-3.4927,-3.5052,-3.5563,-3.5319,-3.4875,-3.4968,-3.4706,-3.4302,-3.3899,-3.3807,-3.3807,-3.3807,-3.3993,-3.42,-3.42,-3.4676,-3.5138,-3.5273,-3.5072,-3.4737,-3.4276,-3.3853,-3.3295,-3.2449,-3.2314,-3.2179,-3.1756,-3.1352,-3.091,-3.0436,-3.0398,-3.0398,-3.0398,-3.0398,-3.0398,-3.0398,-3.0398,-3.0398,-3.0398,-3.0398,-3.0417,-3.0448,-3.0448,-3.0033,-2.9206,-2.9225,-2.8627,-2.7442,-2.8321,-2.8516,-3.9065,-3.8984,-3.8983,-4.0232,-3.785,-3.4382,-3.1336,-2.7724,0.0,0.0,-2.0602,-2.0498,-2.0498,0.0,0.0,0.0,0.0,0.0,0.0,0.0,0.0,0.0,0.0,0.0,0.0,0.0,0.0,0.0,0.0,0.0,-3.5854,-3.5579,-3.5504,-3.5504,-3.5504,-3.5504,-3.5504,-3.5504,-3.5429,-3.528,-3.4891,-3.4831,-3.5032,-3.414,-3.396,-3.4376,-3.4539,0.0,0.0,-3.653,-3.7202,-3.7713,-3.8195,-3.8278,-3.821,-3.8785,-3.8159,-3.7094,-3.7516,-3.6772,-3.5622,-3.5622,-3.5462,-3.5393,-3.601,-3.5598,-3.4965,-3.5224,-3.4835,-3.4247,-3.388,-3.3807,-3.3807,-3.3807,-3.3961,-3.4123,-3.4195,-3.4706,-3.521,-3.5265,-3.5624,-3.5667,-3.4803,-3.4691,-3.4372,-3.3333,-3.3179,-3.3103,-3.291,-3.2352,-3.1641,-3.0775,-3.0513,-3.0398,-3.0398,-3.0398,-3.0398,-3.0398,-3.0398,-3.0398,-3.0398,-3.0398,-3.0398,-3.0398,-3.0398,-3.0063,-2.9371,-2.9425,-2.9029,-2.8253,-2.9143,-2.944,-3.7055,-3.7904,-3.8746,-3.9026,-3.6435,-3.3136,-3.0431,0.0,0.0,-2.1129,-2.0213,-1.9779,-1.9779,-2.091,0.0,0.0,0.0,0.0,0.0,0.0,0.0,0.0,0.0,0.0,0.0,0.0,0.0,0.0,0.0,0.0,-3.6402,-3.5833,-3.5504,-3.5504,-3.5504,-3.5504,-3.5504,-3.5504,-3.519,-3.4577,-3.5145,-3.4835,-3.3712,-3.4192,-3.4134,-3.3623,-3.426,0.0,0.0,-3.6826,-3.736,-3.7001,-3.911,-3.9478,-3.8903,-3.8971,-3.8481,-3.7719,-3.7094,-3.6332,-3.5622,-3.5622,-3.5571,-3.5752,-3.6759,-3.7016,-3.6827,-3.6334,-3.6119,-3.5716,-3.4192,-3.3807,-3.3807,-3.3807,-3.3815,-3.3902,-3.4147,-3.4881,-3.5539,-3.5786,-3.6635,-3.7067,-3.6249,-3.6316,-3.593,-3.4314,-3.4083,-3.3795,-3.3006,-3.2833,-3.2487,-3.1679,-3.0871,-3.0398,-3.0398,-3.0398,-3.0398,-3.0398,-3.0398,-3.0398,-3.0398,-3.0398,-3.0398,-3.0398,-3.0398,-3.0359,-3.0294,-3.0283,-2.984,-2.9025,-2.989,-2.991,-3.5217,-3.6082,-3.6914,-3.7388,-3.4572,-3.1115,-2.903,0.0,0.0,-2.0459,-1.9884,-1.969,-1.969,-2.0782,-2.1859,0.0,0.0,0.0,0.0,0.0,0.0,0.0,0.0,0.0,0.0,0.0,0.0,0.0,0.0,0.0,-3.6492,-3.5863,-3.5504,-3.5504,-3.5504,-3.5504,-3.5504,-3.5504,-3.537,-3.51,-3.537,-3.522,-3.4696,-3.4547,-3.4322,-3.4145,-3.4348,0.0,0.0,-3.6553,-3.7464,-3.8068,-3.8548,-3.8841,-3.8937,-3.8497,-3.7872,-3.7195,-3.6874,-3.6265,-3.5622,-3.5622,-3.5622,-3.5681,-3.6247,-3.641,-3.631,-3.5702,-3.5532,-3.5367,-3.4706,-3.4908,-3.5293,-3.5293,-3.5293,-3.5321,-3.5449,-3.5873,-3.6255,-3.6376,-3.6986,-3.7394,-3.7089,-3.6837,-3.6469,-3.5815,-3.5295,-3.4853,-3.4507,-3.4007,-3.3564,-3.3237,-3.1987,-3.0968,-3.0436,-3.0398,-3.0398,-3.0398,-3.0398,-3.0398,-3.0398,-3.0398,-3.0398,-3.0398,-3.0398,-3.0398,-3.0398,-3.0398,-3.0217,-2.989,-3.0237,-3.0237,-3.2764,-3.3814,-3.4673,-3.5019,-3.2277,-2.9062,0.0,0.0,-2.1461,-1.9987,-1.969,-1.969,-1.969,-2.0617,-2.147,0.0,0.0,-2.3595,0.0,0.0,0.0,0.0,0.0,0.0,0.0,0.0,0.0,0.0,0.0,0.0,-3.6207,-3.5759,-3.5504,-3.5504,-3.5504,-3.5504,-3.5504,-3.5504,-3.5504,-3.5504,-3.5504,-3.5504,-3.5489,-3.4996,-3.4786,-3.4786,-3.4786,0.0,0.0,-3.6307,-3.7365,-3.8515,-3.8027,-3.8302,-3.887,-3.7922,-3.7246,-3.6755,-3.6518,-3.6079,-3.5622,-3.5622,-3.5622,-3.5596,-3.5423,-3.5821,-3.6203,-3.5848,-3.5587,-3.5349,-3.5064,-3.5661,-3.6303,-3.6303,-3.6303,-3.6303,-3.6303,-3.6648,-3.6941,-3.6941,-3.7488,-3.79,-3.7673,-3.7449,-3.7229,-3.698,-3.633,-3.5853,-3.5853,-3.5103,-3.4487,-3.4218,-3.3141,-3.1987,-3.0891,-3.0794,-3.0679,-3.0417,-3.0398,-3.0398,-3.0398,-3.0398,-3.0398,-3.0398,-3.0398,-3.0398,-3.0398,-3.0398,-3.0398,-3.0398,-3.0398,-3.0398,-2.9463,-3.1061,-3.2392,-3.1734,-2.9564,-2.7115,0.0,0.0,-2.0528,-1.9824,-1.969,-1.969,-1.969,-2.0258,-2.0932,-2.159,-2.2248,0.0,0.0,0.0,0.0,0.0,0.0,0.0,0.0,0.0,0.0,0.0,0.0,0.0,-3.5549,-3.5504,-3.5504,-3.5504,-3.5504,-3.5504,-3.5504,-3.5504,-3.5504,-3.5504,-3.5504,-3.5504,-3.5504,-3.5489,-3.5489,0.0,0.0,0.0,0.0,-3.6275,-3.7084,-3.7799,-3.7812,-3.8302,-3.8802,-3.733,-3.6789,-3.6671,-3.5893,-3.5622,-3.5622,-3.5622,-3.5622,-3.5423,-3.4433,-3.5556,-3.7236,-3.7429,-3.689,-3.6083,-3.521,-3.5661,-3.6303,-3.6303,-3.6303,-3.6303,-3.6303,-3.6909,-3.7507,-3.7507,-3.8359,-3.8819,-3.8029,-3.8395,-3.848,-3.7622,-3.7025,-3.6699,-3.6699,-3.5988,-3.5161,-3.4295,-3.418,-3.3487,-3.1833,-3.1698,-3.1314,-3.0436,-3.0398,-3.0398,-3.0398,-3.0398,-3.0398,-3.0398,-3.0398,-3.0398,-3.0398,-3.0398,-3.0398,-3.0398,-3.0398,-3.0398,-2.6546,-2.7979,-2.8981,-2.8323,-2.6856,-2.5151,-2.364,-2.1949,-2.0513,-1.9824,-1.969,-1.969,-1.969,-2.0243,-2.1081,-2.2188,-2.2892,0.0,0.0,0.0,0.0,0.0,0.0,0.0,0.0,0.0,0.0,0.0,0.0,0.0,-3.5519,-3.5504,-3.5504,-3.5504,-3.5504,-3.5504,-3.5504,-3.5504,-3.5504,-3.5504,-3.5504,-3.5504,-3.5504,-3.5504,-3.5504,0.0,0.0,0.0,0.0,-3.5269,-3.5585,-3.6268,-3.5812,-3.6048,-3.6687,-3.6194,-3.5994,-3.5943,-3.5707,-3.5622,-3.5622,-3.5622,-3.5622,-3.5508,-3.5076,-3.5997,-3.7236,-3.7447,-3.7312,-3.7055,-3.678,-3.7312,-3.7936,-3.7936,-3.7936,-3.7936,-3.7936,-3.8138,-3.8322,-3.8322,-3.8738,-3.9024,-3.8763,-3.8573,-3.8369,-3.8085,-3.7585,-3.7041,-3.6506,-3.6347,-3.6007,-3.518,-3.5084,-3.4391,-3.2679,-3.2526,-3.241,-3.2141,-3.1602,-3.1295,-3.1295,-3.0717,-3.0398,-3.0398,-3.0398,-3.0398,-3.0398,-3.0398,-3.0398,-3.0398,-3.0398,-3.0398,0.0,-2.5465,-2.6303,-2.563,-2.4672,0.0,0.0,-2.1096,-2.0198,-1.9779,-1.969,-1.969,-1.969,-2.0243,-2.1066,-2.2143,-2.2832,0.0,0.0,0.0,0.0,0.0,0.0,0.0,0.0,0.0,0.0,0.0,0.0,0.0,-3.5504,-3.5504,-3.5504,-3.5504,-3.5504,-3.5504,-3.5504,-3.5504,-3.5504,-3.5504,-3.5504,-3.5504,-3.5504,-3.5504,-3.5504,0.0,0.0,0.0,0.0,-3.4756,-3.4926,-3.5512,-3.4856,-3.5056,-3.5696,-3.5631,-3.5622,-3.5622,-3.5622,-3.5622,-3.5622,-3.5622,-3.5233,-3.4805,-3.504,-3.5825,-3.6681,-3.6949,-3.7257,-3.7507,-3.7507,-3.8102,-3.8707,-3.8707,-3.8707,-3.8707,-3.8707,-3.8707,-3.8707,-3.8707,-3.8844,-3.8961,-3.8961,-3.8768,-3.8595,-3.8595,-3.826,-3.7813,-3.7317,-3.6929,-3.6507,-3.6007,-3.568,-3.5064,-3.3968,-3.3583,-3.3256,-3.291,-3.2429,-3.216,-3.216,-3.1352,-3.1025,-3.1352,-3.0706,-3.0552,-3.0891,-3.0552,-3.0398,-3.0398,-3.0398,-3.0398,0.0,0.0,0.0,0.0,0.0,0.0,0.0,-2.0154,0.0,-1.969,-1.969,-1.969,-1.975,-2.0288,-2.0961,-2.171,0.0,0.0,0.0,0.0,0.0,0.0,0.0,0.0,0.0,0.0,0.0,0.0,0.0,0.0,-3.5429,-3.5474,-3.5459,-3.537,-3.5415,-3.5429,-3.5429,-3.5429,-3.5429,-3.5429,-3.5429,-3.5429,-3.5429,-3.5385,-3.537,0.0,0.0,0.0,0.0,-3.4622,-3.4789,-3.5313,-3.4761,-3.4923,-3.5564,-3.5568,-3.5622,-3.5622,-3.5622,-3.5622,-3.5622,-3.5622,-3.459,-3.3512,-3.4495,-3.5164,-3.5661,-3.6223,-3.6945,-3.7569,-3.7569,-3.8138,-3.8707,-3.8707,-3.8707,-3.8707,-3.8707,-3.8707,-3.8707,-3.8707,-3.8707,-3.8707,-3.8707,-3.8894,-3.9072,-3.9072,-3.8939,-3.8803,-3.8746,-3.757,-3.6714,-3.6656,-3.5926,-3.5446,-3.5479,-3.4743,-3.3949,-3.3141,-3.3026,-3.2987,-3.2987,-3.2218,-3.2128,-3.2859,-3.1347,-3.0936,-3.1737,-3.0948,-3.0552,-3.0513,-3.0436,-3.0398,-2.0258,0.0,-2.0797,-2.0647,-2.0498,-2.0303,0.0,-1.9794,-1.969,-1.969,0.0,0.0,-2.0378,-2.0602,0.0,0.0,0.0,0.0,0.0,0.0,0.0,0.0,0.0,0.0,0.0,0.0,0.0,0.0,0.0,-3.528,-3.4741,-3.522,-3.504,-3.3993,-3.4457,-3.4726,-3.4726,-3.4726,-3.4726,-3.4726,-3.4726,-3.4726,-3.4696,-3.4203,-3.3963,0.0,0.0,0.0,-3.3918,-3.3245,-3.3081,-3.3273,-3.3698,-3.3925,-3.423,-3.5228,-3.5622,-3.5622,-3.5622,-3.5622,-3.5622,-3.5622,-3.4218,-3.2815,-3.4283,-3.4888,-3.5375,-3.6803,-3.779,-3.8414,-3.8414,-3.856,-3.8707,-3.8707,-3.8707,-3.8707,-3.8707,-3.8707,-3.8707,-3.8707,-3.8707,-3.8707,-3.8707,-3.8762,-3.8803,-3.8803,-3.8941,-3.8808,-3.8184,-3.7448,-3.6766,-3.6159,-3.5363,-3.4963,-3.519,-3.5192,-3.5122,-3.4911,-3.4257,-3.3891,-3.3891,-3.3064,-3.2615,-3.2592,-3.2195,-3.2015,-3.2006,-3.2218,-3.2102,-3.1667,-3.0802,-3.0398,-1.969,-1.969,-1.969,-1.969,-1.969,-1.969,-1.969,0.0,0.0,0.0,0.0,0.0,0.0,0.0,0.0,0.0,0.0,0.0,0.0,0.0,0.0,0.0,0.0,0.0,0.0,0.0,0.0,0.0,0.0,-3.4741,-3.4068,-3.4382,-3.4247,-3.3514,-3.3544,-3.3858,-3.4472,-3.4173,-3.4337,-3.4936,-3.4322,-3.4188,-3.4457,-3.3799,-3.3499,0.0,0.0,0.0,-3.344,-3.2781,-3.2512,-3.2556,-3.3291,-3.3582,-3.3735,-3.5115,-3.5622,-3.5622,-3.5622,-3.5622,-3.5504,-3.4827,-3.3778,-3.2944,-3.3709,-3.4376,-3.5186,-3.6553,-3.7533,-3.823,-3.8597,-3.8707,-3.8707,-3.8707,-3.8707,-3.8707,-3.8707,-3.8707,-3.8707,-3.8707,-3.8707,-3.8707,-3.8707,-3.8707,-3.8707,-3.8707,-3.8952,-3.8931,-3.8495,-3.7657,-3.692,-3.6505,-3.5411,-3.4754,-3.4908,-3.5053,-3.5239,-3.5493,-3.5064,-3.4795,-3.4795,-3.3833,-3.3006,-3.2329,-3.2708,-3.2811,-3.2603,-3.2562,-3.2656,-3.2859,-3.184,-3.1437,-1.969,-1.969,-1.969,-1.969,-1.969,-1.969,-1.969,0.0,0.0,0.0,0.0,0.0,0.0,0.0,0.0,0.0,0.0,0.0,0.0,0.0,0.0,0.0,0.0,0.0,0.0,0.0,0.0,0.0,0.0,-3.4038,-3.338,-3.344,-3.341,-3.32,-3.2751,-3.3051,-3.4158,-3.3619,-3.3918,-3.504,-3.3888,-3.3634,-3.4158,-3.3499,-3.32,-3.32,0.0,0.0,-3.3155,-3.2602,-3.2362,-3.2405,-3.3244,-3.3582,-3.3735,-3.5115,-3.5622,-3.5622,-3.5622,-3.5537,-3.525,-3.4117,-3.3592,-3.343,-3.3429,-3.4196,-3.5275,-3.6225,-3.7055,-3.7826,-3.8524,-3.8707,-3.8707,-3.8707,-3.8707,-3.8707,-3.8707,-3.8707,-3.8707,-3.8707,-3.8707,-3.8707,-3.8707,-3.8707,-3.8707,-3.8707,-3.8894,-3.9036,-3.9036,-3.7935,-3.7163,-3.7163,-3.5716,-3.4757,-3.4821,-3.4708,-3.4832,-3.5354,-3.5369,-3.5403,-3.5432,-3.4462,-3.3478,-3.2466,-3.3161,-3.3467,-3.3392,-3.2789,-3.2974,-3.3882,-3.3191,-3.2978,-1.969,-1.969,-1.969,-1.969,-1.969,-1.969,-1.969,0.0,0.0,0.0,0.0,0.0,0.0,0.0,0.0,0.0,0.0,0.0,0.0,0.0,0.0,0.0,0.0,0.0,0.0,0.0,0.0,0.0,0.0,-3.3365,-3.2706,-3.3185,-3.2976,-3.1869,-3.2273,-3.2617,-3.2811,-3.2706,-3.2766,-3.2976,-3.2766,-3.2721,-3.2796,-3.2138,-3.1839,-3.1839,0.0,-3.1839,-3.1824,-3.1676,-3.1616,-3.1775,-3.3071,-3.3582,-3.3735,-3.5115,-3.5622,-3.5622,-3.5622,-3.5199,-3.4726,-3.5148,-3.4438,-3.3641,-3.5066,-3.5613,-3.6043,-3.7028,-3.79,-3.8542,-3.867,-3.8707,-3.8707,-3.8707,-3.8707,-3.8707,-3.8707,-3.8707,-3.8707,-3.8707,-3.8707,-3.8707,-3.8707,-3.8707,-3.8707,-3.8707,-3.875,-3.8762,-3.8762,-3.7993,-3.7432,-3.7432,-3.5956,-3.5066,-3.5347,-3.4699,-3.4445,-3.4793,-3.4813,-3.4926,-3.5138,-3.4774,-3.4392,-3.4046,-3.4068,-3.411,-3.422,-3.4275,-3.4295,-3.4308,-3.4472,-3.449,-1.969,-1.969,-1.969,-1.969,-1.969,-1.969,-1.969,0.0,0.0,0.0,0.0,0.0,0.0,0.0,0.0,0.0,0.0,0.0,0.0,0.0,0.0,0.0,0.0,0.0,0.0,0.0,0.0,0.0,0.0,0.0,-3.2018,-3.2273,-3.1988,-3.1001,-3.127,-3.127,-3.0941,-3.127,-3.1973,-3.3036,-3.2317,-3.2168,-3.2497,-3.1839,-3.1482,-3.1482,0.0,-3.1482,-3.1482,-3.1482,-3.1482,-3.164,-3.3024,-3.3582,-3.3735,-3.5115,-3.5622,-3.5622,-3.5622,-3.5402,-3.5081,-3.503,-3.4556,-3.4202,-3.5253,-3.5746,-3.6239,-3.7395,-3.8172,-3.8707,-3.8707,-3.8707,-3.8707,-3.8707,-3.8707,-3.8707,-3.8707,-3.8707,-3.8707,-3.8707,-3.8707,-3.8707,-3.8707,-3.8707,-3.8707,-3.8707,-3.8707,-3.8707,-3.8707,-3.7991,-3.7507,-3.7507,-3.6413,-3.557,-3.5254,-3.4874,-3.4649,-3.4711,-3.4694,-3.4793,-3.4978,-3.4636,-3.433,-3.4087,-3.4012,-3.4012,-3.408,-3.416,-3.4237,-3.4307,-3.4449,-3.4595,-1.969,-1.969,-1.969,-1.969,0.0,-1.9735,-1.9884,0.0,0.0,0.0,0.0,0.0,0.0,0.0,0.0,0.0,0.0,0.0,0.0,0.0,0.0,0.0,0.0,0.0,0.0,0.0,0.0,0.0,0.0,0.0,-3.1106,-3.1076,-3.0836,-3.0313,-3.0283,-3.0058,-2.9579,-3.0058,-3.1135,-3.2781,-3.1943,-3.1735,-3.2258,-3.1599,-3.13,-3.1285,-3.115,-3.1165,-3.13,-3.13,-3.139,-3.164,-3.3024,-3.3786,-3.4202,-3.5207,-3.5622,-3.5622,-3.5622,-3.5622,-3.552,-3.4945,-3.4759,-3.4873,-3.5532,-3.6007,-3.6523,-3.7749,-3.8382,-3.8707,-3.8707,-3.8707,-3.8707,-3.8707,-3.8707,-3.8707,-3.8707,-3.8707,-3.8707,-3.8707,-3.8707,-3.8707,-3.8707,-3.8707,-3.8707,-3.8707,-3.8707,-3.8707,-3.8707,-3.8157,-3.7771,-3.7771,-3.7055,-3.6156,-3.5082,-3.4825,-3.4644,-3.4498,-3.4551,-3.4615,-3.4737,-3.4386,-3.4099,-3.3902,-3.3842,-3.3807,-3.3807,-3.3807,-3.3902,-3.4099,-3.4099,-3.4242,-1.969,-1.969,-1.969,-1.969,-1.969,0.0,-2.0498,-2.1111,0.0,-2.2439,0.0,0.0,0.0,0.0,0.0,0.0,0.0,0.0,0.0,0.0,0.0,0.0,0.0,0.0,0.0,0.0,0.0,0.0,0.0,0.0,-2.9759,-2.9729,-2.9699,-2.9654,-2.9639,-2.9624,-2.9579,-2.9624,-3.0013,-3.0731,-3.127,-3.1497,-3.1526,-3.0896,-3.0567,-3.0552,-2.9968,-3.0043,-3.0567,-3.0567,-3.0956,-3.164,-3.3024,-3.435,-3.547,-3.556,-3.5622,-3.5622,-3.5622,-3.5622,-3.5605,-3.5554,-3.5537,-3.5725,-3.6755,-3.7102,-3.7343,-3.8332,-3.8658,-3.8707,-3.8707,-3.8707,-3.8707,-3.8707,-3.8707,-3.8707,-3.8707,-3.8707,-3.8707,-3.8707,-3.8707,-3.8707,-3.8707,-3.8707,-3.8707,-3.8707,-3.8707,-3.8707,-3.8707,-3.8652,-3.8615,-3.8615,-3.7881,-3.6762,-3.5137,-3.4321,-3.3889,-3.3868,-3.4093,-3.4246,-3.4246,-3.4223,-3.4176,-3.4171,-3.3928,-3.3807,-3.3807,-3.3807,-3.3815,-3.3815,-3.3815,-3.3842,-1.969,-1.969,-1.969,-1.969,-1.969,0.0,0.0,-2.1545,-2.2488,-2.3116,0.0,0.0,0.0,0.0,0.0,0.0,0.0,0.0,0.0,0.0,0.0,0.0,0.0,0.0,0.0,0.0,0.0,0.0,0.0,0.0,-2.9609,-2.9579,-2.94,-2.8981,-2.8966,-2.8562,-2.7724,-2.8547,-2.8876,-2.8697,-2.9804,-3.0313,-3.0313,-3.0058,-2.9924,-2.9924,-2.9684,-2.9924,-3.0477,-3.0088,-3.0567,-3.164,-3.3024,-3.4399,-3.5622,-3.5622,-3.5622,-3.5622,-3.5622,-3.5622,-3.5622,-3.5622,-3.5622,-3.581,-3.6865,-3.719,-3.7414,-3.8401,-3.8707,-3.8707,-3.8707,-3.8707,-3.8707,-3.8707,-3.8707,-3.8707,-3.8707,-3.8707,-3.8707,-3.8707,-3.8707,-3.8707,-3.8707,-3.8707,-3.8707,-3.8707,-3.8707,-3.8707,-3.8707,-3.8707,-3.8707,-3.8707,-3.7533,-3.6486,-3.5862,-3.4578,-3.3807,-3.3807,-3.3902,-3.3961,-3.3961,-3.3961,-3.3961,-3.3961,-3.3868,-3.3807,-3.3807,-3.3807,-3.3807,-3.3807,-3.3807,-3.3807,-1.969,-1.969,-1.969,-1.969,0.0,0.0,-2.1126,-2.2353,-2.3535,-2.4373,0.0,0.0,0.0,0.0,0.0,0.0,0.0,0.0,0.0,0.0,0.0,0.0,0.0,0.0,0.0,0.0,0.0,0.0,0.0,0.0,0.0,-2.8951,-2.8652,-2.7993,-2.7964,-2.7425,-2.6303,-2.7186,-2.753,-2.7275,-2.8188,-2.8966,-2.9564,-2.937,-2.9265,-2.9265,-2.9041,-2.943,-3.0178,-2.9759,-3.0483,-3.1894,-3.2866,-3.4071,-3.5267,-3.5267,-3.5419,-3.5622,-3.5622,-3.5622,-3.5622,-3.5622,-3.5622,-3.581,-3.6865,-3.719,-3.7414,-3.8401,-3.8707,-3.8707,-3.8707,-3.8707,-3.8762,-3.9019,-3.9074,-3.9074,-3.9074,-3.9074,-3.9001,-3.8762,-3.8707,-3.8707,-3.8707,-3.8707,-3.8707,-3.8707,-3.8707,-3.8707,-3.8707,-3.8707,-3.8707,-3.8707,-3.7496,-3.6578,-3.6321,-3.5,-3.4082,-3.3825,-3.3807,-3.3807,-3.3807,-3.3807,-3.3807,-3.3807,-3.3807,-3.3807,-3.3807,-3.3807,-3.3807,-3.3807,-3.3807,-3.3807,-1.969,-1.969,-1.969,0.0,0.0,0.0,-2.2383,-2.3684,-2.4955,-2.6333,0.0,0.0,0.0,0.0,0.0,0.0,0.0,0.0,0.0,0.0,0.0,0.0,0.0,0.0,0.0,0.0,0.0,0.0,0.0,0.0,0.0,-2.761,-2.726,-2.6617,-2.6587,-2.6258,-2.5615,-2.5615,-2.5944,-2.6572,-2.6587,-2.7634,-2.9549,-2.8891,-2.8592,-2.8547,-2.7874,-2.8389,-2.9564,-2.9579,-3.0751,-3.2492,-3.2508,-3.3334,-3.4489,-3.4489,-3.4979,-3.5622,-3.5622,-3.5622,-3.5605,-3.5622,-3.5622,-3.581,-3.6865,-3.719,-3.7414,-3.8401,-3.8707,-3.8707,-3.8707,-3.8707,-3.8909,-3.9698,-3.9882,-3.9882,-3.9882,-3.9882,-3.9643,-3.8854,-3.8707,-3.8707,-3.8726,-3.8707,-3.8707,-3.8707,-3.8707,-3.8707,-3.8707,-3.8707,-3.8707,-3.8707,-3.7973,-3.7165,-3.6376,-3.5514,-3.4688,-3.3862,-3.3807,-3.3807,-3.3807,-3.3807,-3.3807,-3.3807,-3.3807,-3.3807,-3.3807,-3.3807,-3.3807,-3.3807,-3.3807,-3.3807,-1.969,-1.969,0.0,0.0,0.0,0.0,0.0,-2.3684,0.0,0.0,0.0,0.0,0.0,0.0,0.0,0.0,0.0,0.0,0.0,0.0,0.0,0.0,0.0,0.0,0.0,0.0,0.0,0.0,0.0,0.0,0.0,-2.6692,-2.6318,-2.6572,-2.6138,-2.5585,-2.4881,-2.5839,-2.5929,-2.5226,-2.6617,-2.764,-2.821,-2.7964,-2.7874,-2.7874,-2.7715,-2.8068,-2.8921,-2.9385,-3.0181,-3.115,-3.1598,-3.2922,-3.4489,-3.4489,-3.4979,-3.5622,-3.5622,-3.5267,-3.4912,-3.5453,-3.5267,-3.5112,-3.6707,-3.719,-3.7414,-3.8401,-3.8707,-3.8707,-3.8707,-3.9129,-3.946,-3.9129,-3.9056,-3.9056,-3.9056,-3.9056,-3.9001,-3.8762,-3.8707,-3.8946,-3.9698,-3.9203,-3.8891,-3.946,-3.9056,-3.8707,-3.8707,-3.8707,-3.8707,-3.8707,-3.7973,-3.7386,-3.7147,-3.6395,-3.555,-3.4706,-3.4651,-3.4394,-3.3825,-3.3807,-3.3807,-3.3807,-3.3807,-3.3807,-3.3807,-3.3807,-3.3807,-3.3807,-3.3807,-3.3807,-1.969,0.0,0.0,0.0,0.0,0.0,0.0,0.0,0.0,0.0,0.0,0.0,0.0,0.0,0.0,0.0,0.0,0.0,0.0,0.0,0.0,0.0,0.0,0.0,0.0,0.0,0.0,0.0,0.0,0.0,0.0,-2.6033,-2.5674,-2.5809,-2.542,-2.4896,-2.4223,-2.5001,-2.5136,-2.4597,-2.5839,-2.6542,-2.6811,-2.7335,-2.7625,-2.7625,-2.7859,-2.8218,-2.8652,-2.9599,-3.0138,-3.0525,-3.1175,-3.2314,-3.3609,-3.3609,-3.4269,-3.5165,-3.5165,-3.4878,-3.4624,-3.5368,-3.4912,-3.4355,-3.5946,-3.6332,-3.6488,-3.762,-3.8071,-3.8303,-3.8615,-3.9056,-3.9386,-3.9221,-3.9423,-3.957,-3.9258,-3.9184,-3.9074,-3.8762,-3.8707,-3.8909,-3.9551,-3.9129,-3.8854,-3.935,-3.9019,-3.8707,-3.8707,-3.8707,-3.8707,-3.8707,-3.8267,-3.7845,-3.7544,-3.7055,-3.6413,-3.5587,-3.5532,-3.5312,-3.4816,-3.4156,-3.3807,-3.3807,-3.3807,-3.3807,-3.3807,-3.3807,-3.3807,-3.3807,-3.3807,-3.3807,-1.969,0.0,0.0,0.0,0.0,0.0,0.0,0.0,0.0,0.0,0.0,0.0,0.0,0.0,0.0,0.0,0.0,0.0,0.0,0.0,0.0,0.0,0.0,0.0,0.0,0.0,0.0,0.0,0.0,0.0,0.0,-2.5495,-2.5181,-2.4597,-2.4522,-2.4238,-2.361,-2.3655,-2.3984,-2.4492,-2.4612,-2.5001,-2.5555,-2.6886,-2.7565,-2.7655,-2.8233,-2.8502,-2.8599,-2.9817,-3.0315,-3.035,-3.0957,-3.1674,-3.2313,-3.2313,-3.3169,-3.4387,-3.4387,-3.4353,-3.4421,-3.5165,-3.4506,-3.3651,-3.4841,-3.5069,-3.5137,-3.6366,-3.7093,-3.7661,-3.8395,-3.8707,-3.8982,-3.9625,-4.0359,-4.0689,-3.9955,-3.979,-3.957,-3.8836,-3.8707,-3.8726,-3.8799,-3.8762,-3.8707,-3.8707,-3.8707,-3.8707,-3.8707,-3.8707,-3.8707,-3.8707,-3.8707,-3.8395,-3.7661,-3.7606,-3.7257,-3.645,-3.6413,-3.6376,-3.6303,-3.4761,-3.3917,-3.3917,-3.3844,-3.3807,-3.3807,-3.3807,-3.3807,-3.3807,-3.3807,-3.3807,0.0,-1.969,0.0,0.0,0.0,0.0,0.0,0.0,0.0,0.0,0.0,0.0,0.0,0.0,0.0,0.0,0.0,0.0,0.0,0.0,0.0,0.0,0.0,0.0,0.0,0.0,0.0,0.0,0.0,0.0,-2.5585,-2.4597,-2.4223,-2.4567,-2.4103,-2.3744,-2.3595,-2.4133,-2.4208,0.0,-2.4896,-2.5196,-2.4836,-2.6198,-2.7081,-2.7625,-2.7724,-2.785,-2.785,-2.8606,-2.9171,-2.9675,-3.0266,-3.1225,-3.2313,-3.2313,-3.2865,-3.3643,-3.3643,-3.3254,-3.2882,-3.3643,-3.366,-3.3507,-3.4236,-3.4996,-3.5687,-3.581,-3.6656,-3.7533,-3.7698,-3.8689,-3.9533,-3.9074,-3.9093,-3.9166,-3.9001,-3.8964,-3.8909,-3.8726,-3.8707,-3.8909,-3.9533,-3.9129,-3.8707,-3.8707,-3.8707,-3.8707,-3.8707,-3.8707,-3.8707,-3.8707,-3.8707,-3.8634,-3.8469,-3.8432,-3.8102,-3.7276,-3.7221,-3.6945,-3.6321,-3.5312,-3.4734,-3.4734,-3.4119,-3.3807,-3.3807,-3.3807,-3.3807,-3.3807,-3.3807,-3.3807,0.0,0.0,0.0,0.0,0.0,0.0,0.0,0.0,0.0,0.0,0.0,0.0,0.0,0.0,0.0,0.0,0.0,0.0,0.0,0.0,0.0,0.0,0.0,0.0,0.0,0.0,0.0,0.0,0.0,-2.3699,-2.3729,-2.3655,-2.3625,-2.3684,-2.3625,-2.3595,-2.3595,-2.3954,-2.3954,-2.361,-2.4313,-2.4642,-2.4612,-2.5659,-2.6482,-2.7096,-2.7096,-2.7275,-2.7675,-2.8543,-2.9134,-2.9496,-3.0393,-3.1153,-3.1749,-3.1749,-3.2222,-3.2865,-3.2865,-3.2611,-3.2408,-3.3169,-3.2933,-3.253,-3.3352,-3.3929,-3.4375,-3.4893,-3.5624,-3.6486,-3.7276,-3.8102,-3.8726,-3.8707,-3.9001,-3.9166,-3.8781,-3.8707,-3.8707,-3.8707,-3.8707,-3.8836,-3.9239,-3.8982,-3.8707,-3.8707,-3.8707,-3.8707,-3.8707,-3.8707,-3.8707,-3.8707,-3.8707,-3.8707,-3.8707,-3.8707,-3.8524,-3.8102,-3.8065,-3.7881,-3.7477,-3.6633,-3.6028,-3.5642,-3.522,-3.4798,-3.4376,-3.4376,-3.4192,-3.3807,-3.3807,-3.3807,0.0,0.0,0.0,0.0,0.0,0.0,0.0,0.0,0.0,0.0,0.0,0.0,0.0,0.0,0.0,0.0,0.0,0.0,0.0,0.0,0.0,0.0,0.0,0.0,0.0,0.0,0.0,0.0,0.0,-2.2443,-2.1889,-2.2757,-2.3131,-2.2847,-2.3236,-2.343,-2.343,-2.343,-2.343,-2.343,-2.343,-2.3789,-2.4418,-2.4896,-2.5585,-2.6422,-2.6422,-2.6722,-2.7379,-2.8668,-2.923,-2.9364,-3.069,-3.119,-3.119,-3.119,-3.1579,-3.2087,-3.2087,-3.2087,-3.2188,-3.2814,-3.2273,-3.154,-3.241,-3.2631,-3.2769,-3.3681,-3.4419,-3.5217,-3.66,-3.7228,-3.7661,-3.8322,-3.9111,-3.9515,-3.8836,-3.8707,-3.8707,-3.8707,-3.8707,-3.8707,-3.8707,-3.8707,-3.8707,-3.8707,-3.8707,-3.8707,-3.8707,-3.8707,-3.8707,-3.8707,-3.8707,-3.8707,-3.8707,-3.8707,-3.8707,-3.8707,-3.8707,-3.8707,-3.8707,-3.8046,-3.7386,-3.6725,-3.6431,-3.5954,-3.521,-3.521,-3.4816,-3.4009,-3.4009,-3.4009,0.0,0.0,0.0,0.0,0.0,0.0,0.0,0.0,0.0,0.0,0.0,0.0,0.0,0.0,0.0,0.0,0.0,0.0,0.0,0.0,0.0,0.0,0.0,0.0,0.0,0.0,0.0,0.0,-2.2664,-2.2679,-2.2547,-2.2173,-2.2413,-2.3445,-2.3041,-2.2802,-2.2802,-2.2802,-2.2802,-2.2802,-2.2802,-2.3131,-2.3729,-2.3266,-2.4044,-2.5734,-2.5734,-2.5794,-2.6008,-2.7816,-2.8522,-2.8699,-3.049,-3.119,-3.119,-3.119,-3.1258,-3.1343,-3.1343,-3.1343,-3.136,-3.1461,-3.1782,-3.2076,-3.1574,-3.2132,-3.2837,-3.2317,-3.3288,-3.4521,-3.4757,-3.614,-3.7544,-3.7624,-3.8267,-3.8836,-3.8726,-3.8707,-3.8707,-3.8707,-3.8707,-3.8707,-3.8707,-3.8707,-3.8707,-3.8707,-3.8707,-3.8707,-3.8707,-3.8707,-3.8707,-3.8707,-3.8707,-3.8707,-3.8707,-3.8707,-3.8707,-3.8707,-3.8707,-3.8707,-3.8707,-3.8597,-3.8487,-3.8377,-3.7019,-3.6229,-3.6138,-3.6138,-3.5679,-3.4825,-3.4825,-3.4825,0.0,0.0,0.0,0.0,0.0,0.0,0.0,0.0,0.0,0.0,0.0,0.0,0.0,0.0,0.0,0.0,0.0,0.0,0.0,0.0,0.0,0.0,0.0,0.0,0.0,0.0,0.0,0.0,-2.1306,-2.1104,-2.1021,-2.144,-2.1784,-2.1979,-2.2084,-2.2128,-2.2128,-2.2128,-2.2128,-2.2128,-2.2128,-2.2278,-2.2532,-2.2248,-2.3206,-2.5061,-2.5061,-2.527,-2.5753,-2.7611,-2.8421,-2.8597,-3.0456,-3.119,-3.119,-3.119,-3.119,-3.119,-3.119,-3.119,-3.119,-3.119,-3.141,-3.1676,-3.1606,-3.1935,-3.2312,-3.2232,-3.293,-3.3846,-3.4297,-3.5617,-3.6927,-3.7397,-3.8102,-3.8707,-3.8707,-3.8707,-3.8707,-3.8707,-3.8707,-3.8707,-3.8707,-3.8707,-3.8707,-3.8707,-3.8707,-3.8707,-3.8707,-3.8707,-3.8707,-3.8707,-3.8707,-3.8707,-3.8707,-3.8707,-3.8707,-3.8707,-3.8707,-3.8707,-3.8707,-3.8707,-3.8707,-3.8707,-3.801,-3.7422,-3.6964,-3.6964,-3.6541,-3.5734,-3.5734,-3.5734,0.0,0.0,0.0,0.0,0.0,0.0,0.0,0.0,0.0,0.0,0.0,0.0,0.0,0.0,0.0,0.0,0.0,0.0,0.0,0.0,0.0,0.0,0.0,0.0,0.0,0.0,0.0,0.0,-2.0138,-1.988,-1.9775,-2.0646,-2.1126,-2.0976,-2.1276,-2.1455,-2.1455,-2.1455,-2.1455,-2.1455,-2.1455,-2.1545,-2.1695,-2.1515,-2.2428,-2.4133,-2.4133,-2.4507,-2.5228,-2.7119,-2.7971,-2.8339,-3.0172,-3.1021,-3.119,-3.119,-3.119,-3.119,-3.119,-3.119,-3.119,-3.119,-3.119,-3.1269,-3.1617,-3.1694,-3.1733,-3.2092,-3.2484,-3.3015,-3.3719,-3.503,-3.6296,-3.7037,-3.7973,-3.8707,-3.8707,-3.8707,-3.8707,-3.8707,-3.8707,-3.8707,-3.8707,-3.8707,-3.8707,-3.8707,-3.8707,-3.8707,-3.8707,-3.8707,-3.8707,-3.8707,-3.8707,-3.8707,-3.8707,-3.8707,-3.8707,-3.8707,-3.8707,-3.8707,-3.8707,-3.8707,-3.8707,-3.8707,-3.8707,-3.8395,-3.779,-3.779,-3.7386,-3.6597,-3.6597,-3.6597,0.0,0.0,0.0,0.0,0.0,0.0,0.0,0.0,0.0,0.0,0.0,0.0,0.0,0.0,0.0,0.0,0.0,0.0,0.0,0.0,0.0,0.0,0.0,0.0,0.0,0.0,0.0,0.0,-1.9926,-1.9912,-1.9868,-1.9819,-2.0363,-2.1605,-2.1081,-2.0767,-2.0767,-2.0767,-2.0767,-2.0767,-2.0767,-2.1096,-2.168,-2.1051,-2.15,-2.2787,-2.2787,-2.3131,-2.3831,-2.5642,-2.6816,-2.7639,-2.9438,-3.0581,-3.119,-3.119,-3.119,-3.119,-3.119,-3.119,-3.119,-3.119,-3.119,-3.119,-3.123,-3.123,-3.123,-3.1269,-3.1582,-3.2004,-3.2453,-3.4121,-3.5774,-3.6234,-3.7551,-3.8707,-3.8707,-3.8707,-3.8707,-3.8707,-3.8707,-3.8707,-3.8707,-3.8707,-3.8707,-3.8707,-3.8707,-3.8707,-3.8707,-3.8707,-3.8707,-3.8707,-3.8707,-3.8707,-3.8707,-3.8707,-3.8707,-3.8707,-3.8707,-3.8707,-3.8707,-3.8707,-3.8707,-3.8707,-3.8707,-3.8689,-3.8634,-3.8634,-3.8212,-3.7452,-3.7452,-3.7452,0.0,0.0,0.0,0.0,0.0,0.0,0.0,0.0,0.0,0.0,0.0,0.0,0.0,0.0,0.0,0.0,0.0,0.0,0.0,0.0,0.0,0.0,0.0,0.0,0.0,0.0,0.0,0.0,0.0,-1.8888,-1.9238,-1.9538,-1.9914,-2.0393,-2.0168,-2.0049,-2.0049,-2.0049,-2.0049,-2.0049,-2.0049,-2.0168,-2.0393,-2.0168,-2.0782,-2.2054,-2.2054,-2.2637,-2.3726,-2.5175,-2.6138,-2.6848,-2.8312,-2.9537,-3.0497,-3.0497,-3.0784,-3.119,-3.119,-3.119,-3.119,-3.119,-3.119,-3.119,-3.119,-3.119,-3.119,-3.119,-3.1507,-3.1861,-3.2004,-3.321,-3.4557,-3.5241,-3.6209,-3.7068,-3.7406,-3.8099,-3.8707,-3.8707,-3.8707,-3.8707,-3.8707,-3.8707,-3.8707,-3.8707,-3.8707,-3.8707,-3.8707,-3.8707,-3.8707,-3.8707,-3.8707,-3.8707,-3.8707,-3.8707,-3.8546,-3.8216,-3.8496,-3.8546,-3.8183,-3.8183,-3.8183,-3.8183,-3.7895,-3.805,-3.8707,-3.8707,-3.856,-3.8267,-3.8267,-3.8267,0.0,0.0,0.0,0.0,0.0,0.0,0.0,0.0,0.0,0.0,0.0,0.0,0.0,0.0,0.0,0.0,0.0,0.0,0.0,0.0,0.0,0.0,0.0,0.0,0.0,0.0,0.0,0.0,0.0,0.0,-1.8612,-1.9332,-1.969,-1.969,-1.969,-1.969,-1.969,-1.969,-1.969,-1.969,-1.969,-1.969,-1.969,-1.9929,-2.0632,-2.171,-2.1934,-2.2622,-2.3668,-2.4733,-2.557,-2.6406,-2.7421,-2.8598,-2.9736,-2.9736,-3.004,-3.0446,-3.0446,-3.0615,-3.0835,-3.0835,-3.1004,-3.119,-3.119,-3.119,-3.119,-3.119,-3.1372,-3.164,-3.1752,-3.2757,-3.3913,-3.4729,-3.5261,-3.5794,-3.6412,-3.7305,-3.8154,-3.8603,-3.8327,-3.8154,-3.8621,-3.8546,-3.8496,-3.8658,-3.8546,-3.8433,-3.8433,-3.8285,-3.8201,-3.8201,-3.8201,-3.8201,-3.8201,-3.8201,-3.805,-3.7685,-3.8016,-3.805,-3.7685,-3.7649,-3.7649,-3.7649,-3.736,-3.7524,-3.8201,-3.8201,-3.8285,-3.8433,-3.8285,-3.8201,0.0,0.0,0.0,0.0,0.0,0.0,0.0,0.0,0.0,0.0,0.0,0.0,0.0,0.0,0.0,0.0,0.0,0.0,0.0,0.0,0.0,0.0,0.0,0.0,0.0,0.0,0.0,0.0,-1.7827,-1.8145,-1.8145,-1.9132,-1.969,-1.969,-1.969,-1.969,-1.969,-1.969,-1.969,-1.969,-1.969,-1.969,-1.9705,-2.0393,-2.1081,-2.1739,-2.2398,-2.3026,-2.3638,-2.4158,-2.5105,-2.6302,-2.6825,-2.7811,-2.8941,-2.8941,-2.8958,-2.9011,-2.9011,-2.9482,-3.0108,-3.0108,-3.0598,-3.119,-3.119,-3.119,-3.119,-3.119,-3.119,-3.1291,-3.1696,-3.2722,-3.3809,-3.4623,-3.4818,-3.5031,-3.5775,-3.6308,-3.7022,-3.8382,-3.7598,-3.7127,-3.8418,-3.8216,-3.8065,-3.8596,-3.8216,-3.7859,-3.7859,-3.747,-3.719,-3.719,-3.719,-3.719,-3.719,-3.719,-3.7173,-3.719,-3.7173,-3.7173,-3.719,-3.719,-3.719,-3.719,-3.7135,-3.7135,-3.719,-3.7173,-3.7433,-3.7859,-3.7396,-3.719,-1.6993,0.0,0.0,0.0,0.0,0.0,0.0,0.0,0.0,0.0,0.0,0.0,0.0,0.0,0.0,0.0,0.0,0.0,0.0,0.0,0.0,0.0,0.0,0.0,0.0,0.0,0.0,0.0,-1.838,-1.8688,-1.8688,-1.9332,-1.969,-1.969,-1.969,-1.969,-1.969,-1.969,-1.969,-1.969,-1.969,-1.969,-1.9705,-2.0393,-2.1081,-2.1739,-2.2398,-2.3026,-2.3595,-2.3752,-2.4265,-2.4995,-2.5509,-2.6515,-2.7657,-2.7986,-2.8501,-2.9011,-2.9011,-2.9482,-3.0108,-3.0108,-3.0598,-3.119,-3.119,-3.119,-3.119,-3.119,-3.119,-3.123,-3.1351,-3.1641,-3.1943,-3.2149,-3.2651,-3.3158,-3.3783,-3.4401,-3.5359,-3.7256,-3.7309,-3.7184,-3.756,-3.747,-3.7433,-3.7596,-3.7487,-3.7396,-3.7396,-3.7285,-3.719,-3.719,-3.719,-3.719,-3.719,-3.719,-3.702,-3.6661,-3.6999,-3.7038,-3.6661,-3.6603,-3.6603,-3.6603,-3.6249,-3.6249,-3.6603,-3.702,-3.7266,-3.7396,-3.7248,-3.719,0.0,0.0,0.0,0.0,0.0,0.0,-1.7353,-1.7585,0.0,0.0,0.0,0.0,0.0,0.0,0.0,0.0,0.0,0.0,0.0,0.0,0.0,0.0,0.0,0.0,0.0,-1.7422,-1.7422,-1.7422,-1.8145,-1.8765,-1.9207,-1.953,-1.969,-1.969,-1.969,-1.969,-1.969,-1.969,-1.969,-1.969,-1.969,-1.9839,-2.0139,-2.0812,-2.1485,-2.2143,-2.2787,-2.3266,-2.3595,-2.3595,-2.4032,-2.4736,-2.5067,-2.5896,-2.6983,-2.7247,-2.7638,-2.8027,-2.8027,-2.8518,-2.9211,-2.9533,-3.0142,-3.0801,-3.1106,-3.119,-3.119,-3.119,-3.119,-3.119,-3.119,-3.119,-3.119,-3.119,-3.1512,-3.2021,-3.2608,-3.3316,-3.4392,-3.6317,-3.6544,-3.6535,-3.7082,-3.702,-3.696,-3.719,-3.702,-3.6882,-3.6882,-3.6684,-3.6522,-3.6522,-3.6522,-3.6522,-3.6522,-3.6522,-3.6399,-3.6097,-3.6357,-3.6399,-3.6097,-3.6071,-3.6071,-3.6071,-3.5783,-3.5739,-3.6071,-3.6357,-3.6522,-3.6522,-3.6522,-3.6522,0.0,0.0,0.0,0.0,0.0,0.0,-1.7353,-1.7353,-1.7271,0.0,0.0,0.0,0.0,0.0,0.0,0.0,0.0,0.0,0.0,0.0,0.0,0.0,0.0,0.0,-1.668,-1.668,-1.668,-1.668,-1.7626,-1.8612,-1.9566,-1.969,-1.969,-1.969,-1.969,-1.969,-1.969,-1.969,-1.969,-1.969,-1.9765,-2.0124,-2.0737,-2.147,-2.2128,-2.2753,-2.3325,-2.3595,-2.3595,-2.3595,-2.4158,-2.5012,-2.5128,-2.5746,-2.6539,-2.6657,-2.6691,-2.6691,-2.6691,-2.7182,-2.7943,-2.8619,-2.9364,-3.0125,-3.0852,-3.1072,-3.1089,-3.1173,-3.119,-3.119,-3.119,-3.119,-3.119,-3.119,-3.119,-3.1376,-3.2019,-3.2747,-3.3748,-3.539,-3.5436,-3.5602,-3.6837,-3.6643,-3.6481,-3.6943,-3.6603,-3.6291,-3.6291,-3.5898,-3.5622,-3.5622,-3.5622,-3.5622,-3.5622,-3.5622,-3.5622,-3.5622,-3.5622,-3.5622,-3.5622,-3.5622,-3.5622,-3.5622,-3.5622,-3.5622,-3.5622,-3.5622,-3.5622,-3.5622,-3.5622,-3.5622,0.0,0.0,0.0,0.0,0.0,0.0,-1.668,-1.668,-1.668,0.0,0.0,0.0,0.0,0.0,0.0,0.0,0.0,0.0,0.0,0.0,0.0,0.0,0.0,0.0,-1.7747,-1.7787,-1.7787,-1.7787,-1.838,-1.8855,-1.9043,-1.9479,-1.969,-1.969,-1.969,-1.969,-1.969,-1.969,-1.969,-1.969,-2.0243,-2.0587,-2.0752,-2.1934,-2.2604,-2.2753,-2.3325,-2.3595,-2.3595,-2.3595,-2.3709,-2.3991,-2.4855,-2.5335,-2.5598,-2.6385,-2.6691,-2.6691,-2.6691,-2.7182,-2.7806,-2.7994,-2.8569,-2.9347,-3.0091,-3.0311,-3.0446,-3.1021,-3.119,-3.119,-3.119,-3.119,-3.119,-3.119,-3.119,-3.1241,-3.1376,-3.1985,-3.2795,-3.3731,-3.4772,-3.5613,-3.5864,-3.581,-3.5766,-3.5898,-3.581,-3.5739,-3.5739,-3.565,-3.5622,-3.5622,-3.5622,-3.5622,-3.5622,-3.5622,-3.5622,-3.5622,-3.5622,-3.5622,-3.5622,-3.5622,-3.5622,-3.5622,-3.5622,-3.5622,-3.5622,-3.5622,-3.5622,-3.5622,-3.5622,-3.5622,0.0,0.0,0.0,-1.6522,0.0,0.0,0.0,-1.6522,-1.6522,0.0,0.0,0.0,0.0,0.0,0.0,0.0,0.0,0.0,0.0,0.0,0.0,0.0,0.0,0.0,-1.7271,-1.7544,-1.7907,-1.8458,-1.8727,-1.9006,-1.9281,-1.9566,-1.969,-1.969,-1.969,-1.969,-1.969,-1.969,-1.9854,-2.0198,-2.0557,-2.1051,-2.1724,-2.2368,-2.2847,-2.3161,-2.346,-2.3595,-2.3595,-2.3595,-2.3752,-2.4032,-2.4592,-2.5144,-2.5652,-2.6175,-2.6521,-2.6691,-2.6691,-2.6945,-2.7317,-2.7689,-2.8078,-2.8552,-2.9313,-2.955,-2.9617,-2.9989,-3.0362,-3.0649,-3.0649,-3.092,-3.119,-3.119,-3.119,-3.119,-3.119,-3.207,-3.2949,-3.3339,-3.4607,-3.5622,-3.5622,-3.5622,-3.5622,-3.5622,-3.5622,-3.5622,-3.5622,-3.5622,-3.5622,-3.5622,-3.5622,-3.5622,-3.5622,-3.5622,-3.5622,-3.5622,-3.5622,-3.5622,-3.5622,-3.5622,-3.5622,-3.5622,-3.5622,-3.5622,-3.5622,-3.5622,-3.5622,-3.5622,-3.5622,-3.5622,0.0,0.0,0.0,0.0,0.0,-1.6522,0.0,0.0,0.0,0.0,0.0,0.0,0.0,0.0,0.0,0.0,0.0,0.0,0.0,0.0,0.0,0.0,0.0,0.0,0.0,-1.6879,-1.7544,-1.8535,-1.8688,-1.8968,-1.953,-1.9639,-1.969,-1.969,-1.969,-1.969,-1.969,-1.969,-2.0034,-2.0722,-2.0842,-2.153,-2.2724,-2.2802,-2.3131,-2.3595,-2.3595,-2.3595,-2.3595,-2.3595,-2.3879,-2.4266,-2.4471,-2.5144,-2.6013,-2.612,-2.6367,-2.6691,-2.6691,-2.6691,-2.6793,-2.7402,-2.7671,-2.7943,-2.8569,-2.8873,-2.9011,-2.9011,-2.9414,-2.9888,-2.9888,-3.0446,-3.0987,-3.0987,-3.1089,-3.119,-3.119,-3.2239,-3.3237,-3.3372,-3.4489,-3.5453,-3.5588,-3.5622,-3.5622,-3.5622,-3.5622,-3.5622,-3.5622,-3.5622,-3.5622,-3.5622,-3.5622,-3.5622,-3.5622,-3.5622,-3.5622,-3.5622,-3.5622,-3.5622,-3.5622,-3.5622,-3.5622,-3.5622,-3.5622,-3.5622,-3.5622,-3.5622,-3.5622,-3.5622,-3.5622,-3.5622,0.0,0.0,0.0,0.0,-1.6522,0.0,0.0,0.0,0.0,-1.6522,0.0,0.0,0.0,0.0,0.0,0.0,0.0,0.0,0.0,0.0,0.0,0.0,0.0,0.0,0.0,-1.6552,-1.6837,-1.7422,-1.7907,-1.8419,-1.8968,-1.9442,-1.969,-1.969,-1.969,-1.969,-1.969,-1.969,-2.0034,-2.0722,-2.1306,-2.1964,-2.2739,-2.3236,-2.3535,-2.3595,-2.3595,-2.3595,-2.3595,-2.3595,-2.3638,-2.3809,-2.4752,-2.5486,-2.6049,-2.6487,-2.6657,-2.6691,-2.6691,-2.6691,-2.6708,-2.6793,-2.7283,-2.7806,-2.7926,-2.8433,-2.9011,-2.9011,-2.9042,-2.911,-2.911,-2.9668,-3.0226,-3.0226,-3.0717,-3.119,-3.119,-3.1833,-3.2611,-3.3271,-3.4066,-3.4827,-3.5504,-3.5622,-3.5622,-3.5622,-3.5622,-3.5622,-3.5622,-3.5622,-3.5622,-3.5622,-3.5622,-3.5622,-3.5622,-3.5622,-3.5622,-3.5622,-3.5622,-3.5622,-3.5622,-3.5622,-3.5622,-3.5622,-3.5622,-3.5622,-3.5622,-3.5622,-3.5622,-3.5622,-3.5622,-3.5622,0.0,0.0,0.0,0.0,0.0,0.0,-1.6522,0.0,-1.6522,0.0,0.0,0.0,0.0,0.0,0.0,0.0,-1.6371,0.0,0.0,0.0,0.0,0.0,0.0,0.0,0.0,0.0,0.0,0.0,-1.8612,-1.8817,-1.9332,-1.9566,-1.969,-1.969,-1.969,-1.9884,-2.0288,-1.9884,-2.0423,-2.1859,-2.1739,-2.2218,-2.3221,-2.3475,-2.3595,-2.3595,-2.3595,-2.3595,-2.3595,-2.3595,-2.3794,-2.4116,-2.4552,-2.5067,-2.5577,-2.5746,-2.6193,-2.6691,-2.6691,-2.6691,-2.6691,-2.6691,-2.6911,-2.7165,-2.7165,-2.7402,-2.7655,-2.7655,-2.8298,-2.9011,-2.9011,-2.9854,-3.0734,-3.0734,-3.097,-3.119,-3.119,-3.1765,-3.2374,-3.2696,-3.3694,-3.459,-3.4912,-3.5334,-3.5622,-3.5622,-3.5622,-3.5622,-3.5622,-3.5622,-3.5622,-3.5622,-3.5622,-3.5622,-3.5622,-3.5622,-3.5622,-3.5622,-3.5622,-3.5622,-3.5622,-3.5622,-3.5622,-3.5622,-3.5622,-3.5622,-3.5622,-3.5622,-3.5622,-3.5622,-3.5622,-3.5622,-1.671,0.0,0.0,0.0,0.0,0.0,0.0,0.0,0.0,0.0,0.0,0.0,0.0,0.0,0.0,0.0,0.0,-1.6471,0.0,0.0,0.0,0.0,0.0,0.0,0.0,0.0,0.0,-1.893,-1.8817,-1.8893,-1.9442,-1.9603,-1.969,-1.969,-1.9869,-2.0213,-2.0722,-2.0393,-2.1051,-2.2667,-2.2203,-2.2532,-2.3595,-2.3595,-2.3595,-2.3595,-2.3595,-2.3595,-2.3595,-2.3595,-2.3837,-2.4184,-2.4184,-2.4511,-2.4989,-2.5144,-2.5746,-2.6505,-2.6505,-2.659,-2.6691,-2.6691,-2.6691,-2.6691,-2.6691,-2.6691,-2.6691,-2.6691,-2.7503,-2.8399,-2.8602,-2.9617,-3.0649,-3.0852,-3.1055,-3.119,-3.119,-3.1765,-3.2313,-3.2313,-3.3474,-3.4489,-3.4489,-3.5115,-3.5622,-3.5622,-3.5622,-3.5622,-3.5622,-3.5622,-3.5622,-3.5622,-3.5622,-3.5622,-3.5622,-3.5622,-3.5622,-3.5622,-3.5622,-3.5622,-3.5622,-3.5622,-3.5622,-3.5622,-3.5622,-3.5723,-3.5943,-3.5943,-3.6045,-3.6231,-3.5825,-3.5622,0.0,0.0,0.0,-1.6522,0.0,0.0,0.0,0.0,-1.6522,0.0,0.0,0.0,0.0,0.0,0.0,0.0,0.0,0.0,0.0,0.0,0.0,0.0,0.0,0.0,0.0,0.0,0.0,-1.7353,-1.7827,-1.838,-1.8893,-1.9406,-1.969,-1.969,-2.0333,-2.0692,-2.0722,-2.1321,-2.1979,-2.2724,-2.2694,-2.2981,-2.3595,-2.3595,-2.3595,-2.3595,-2.3595,-2.3595,-2.3595,-2.3595,-2.3595,-2.3638,-2.3638,-2.3948,-2.4511,-2.5012,-2.554,-2.5997,-2.5997,-2.6332,-2.6691,-2.6691,-2.6691,-2.6691,-2.6691,-2.6691,-2.6691,-2.6691,-2.6725,-2.6945,-2.7672,-2.845,-2.9245,-2.9973,-3.0683,-3.119,-3.119,-3.1765,-3.2313,-3.2313,-3.3474,-3.4489,-3.4489,-3.5115,-3.5622,-3.5622,-3.5622,-3.5622,-3.5622,-3.5622,-3.5622,-3.5622,-3.5622,-3.5622,-3.5622,-3.5622,-3.5622,-3.5622,-3.5622,-3.5622,-3.5622,-3.5622,-3.5622,-3.5622,-3.5622,-3.5994,-3.6738,-3.6738,-3.711,-3.7804,-3.6315,-3.5622,0.0,0.0,-1.6522,-1.6522,0.0,0.0,0.0,0.0,0.0,0.0,0.0,0.0,0.0,0.0,0.0,0.0,0.0,0.0,0.0,0.0,0.0,0.0,0.0,0.0,0.0,0.0,0.0,-1.8263,-1.7987,-1.8263,-1.9369,-1.9603,-1.969,-1.969,-2.0363,-2.0917,-2.1365,-2.159,-2.2233,-2.3281,-2.2877,-2.2996,-2.3595,-2.3595,-2.3595,-2.3595,-2.3595,-2.3595,-2.3595,-2.3595,-2.3595,-2.3595,-2.3595,-2.3724,-2.3964,-2.4471,-2.5012,-2.554,-2.5888,-2.612,-2.6297,-2.659,-2.6691,-2.6691,-2.6691,-2.6691,-2.6691,-2.6691,-2.7418,-2.8264,-2.8518,-2.9516,-3.0514,-3.0768,-3.1021,-3.119,-3.119,-3.1393,-3.1562,-3.1562,-3.2763,-3.3778,-3.3778,-3.4387,-3.5047,-3.5537,-3.5622,-3.5622,-3.5622,-3.5622,-3.5622,-3.5622,-3.5622,-3.5622,-3.5622,-3.5622,-3.5622,-3.5622,-3.5622,-3.5622,-3.5622,-3.5622,-3.5859,-3.6366,-3.6383,-3.6772,-3.7533,-3.7533,-3.7652,-3.7889,-3.7381,-3.7127,-1.7061,-1.6823,0.0,-1.6522,-1.6522,0.0,-1.6522,0.0,0.0,0.0,0.0,0.0,0.0,0.0,0.0,0.0,0.0,0.0,0.0,-1.6522,-1.6522,0.0,0.0,0.0,0.0,0.0,-1.6477,-1.6491,-1.7291,-1.8263,0.0,0.0,-1.9794,-2.0049,-2.0707,-2.138,-2.2039,-2.2263,-2.2787,-2.3595,-2.3191,-2.3206,-2.3595,-2.3595,-2.3595,-2.3595,-2.3595,-2.3595,-2.3595,-2.3595,-2.3595,-2.3595,-2.3595,-2.3595,-2.3638,-2.3991,-2.4471,-2.4989,-2.554,-2.5726,-2.5799,-2.6297,-2.6436,-2.647,-2.6657,-2.6691,-2.6742,-2.7012,-2.7807,-2.8704,-2.9245,-3.0091,-3.0869,-3.114,-3.119,-3.119,-3.119,-3.119,-3.119,-3.119,-3.2171,-3.3,-3.3,-3.3609,-3.4455,-3.547,-3.5402,-3.5318,-3.5588,-3.5622,-3.5622,-3.5622,-3.5622,-3.5622,-3.5622,-3.5622,-3.5622,-3.5622,-3.5876,-3.6028,-3.6028,-3.6299,-3.6671,-3.7161,-3.7178,-3.755,-3.8294,-3.8294,-3.843,-3.8684,-3.8684,-3.8684]}]]